[[[{"header":{"parameterUnit":"kt","parameterCategory":2,"dx":1,"dy":1,"la1":29.285339999999998,"la2":30.599998999999997,"lo1":-89.70041500000002,"lo2":-87.6738589999976,"nx":112,"ny":82,"refTime":"2022-10-31T06:00:00:Z","depth":0,"parameterNumber":1,"parameterNumberName":"U-component_of_WINDS"},"data":[-1.9546,-1.9,-1.8331,-1.838,-1.7391,-1.6165,-1.5274,-1.4919,-1.4551,-1.3818,-1.3739,-1.3752,-1.3591,-1.308,0.0,0.0,0.0,0.0,0.0,-1.0422,0.0,0.0,0.0,0.0,0.0,0.0,0.0,0.0,0.0,0.0,0.0,-2.2109,-2.3193,-2.4261,-2.4775,-2.5169,-2.5275,-2.5659,-2.5949,-2.6054,-2.6054,-2.6054,-2.6054,-2.6357,-2.6565,-2.6841,-2.7228,-2.7603,-2.7795,-2.7795,-2.7795,-2.7795,-2.7795,-2.7795,-2.7795,-2.7795,-2.7795,-2.7795,-2.7795,-2.7795,-2.7795,-2.7795,-2.7795,-2.7795,-2.7795,-2.6762,-2.5446,-2.5092,-2.3924,-2.2763,-2.2332,-2.2289,-2.2352,-2.2352,-2.2352,-2.2352,-2.2352,-2.2352,-2.2352,-2.2352,-2.2352,-2.2352,-2.2352,-2.2352,-2.2352,-2.2352,-2.2352,-2.2352,-2.2352,-2.2352,-2.2352,-2.2352,-2.2352,-2.2352,-2.2352,-2.2352,-2.2352,-2.2352,-2.2352,-2.2352,-2.2352,-2.2352,-2.2395,-2.2393,-2.2541,-2.2611,-2.2858,-2.3154,-2.3344,-2.3439,-2.3678,-2.3753,-1.8231,-1.7721,-1.7115,-1.7115,-1.6096,-1.482,-1.3894,-1.3539,-1.3184,-1.2447,-1.2605,-1.2869,-1.2842,-1.2487,0.0,0.0,0.0,0.0,0.0,0.0,0.0,0.0,0.0,0.0,0.0,0.0,0.0,0.0,-1.9572,-2.0571,-2.1728,-2.2679,-2.3496,-2.4274,-2.4958,-2.5275,-2.5275,-2.5764,-2.6054,-2.6054,-2.6054,-2.6054,-2.6054,-2.6252,-2.6421,-2.6697,-2.7069,-2.7373,-2.765,-2.7755,-2.7795,-2.7795,-2.7795,-2.7795,-2.7795,-2.7795,-2.7795,-2.7795,-2.7795,-2.7795,-2.7795,-2.7795,-2.7795,-2.7795,-2.7795,-2.6504,-2.5114,-2.5114,-2.3734,-2.2352,-2.2352,-2.2352,-2.2352,-2.2352,-2.2352,-2.2352,-2.2352,-2.2352,-2.2352,-2.2352,-2.2352,-2.2352,-2.2352,-2.2352,-2.2352,-2.2352,-2.2352,-2.2352,-2.2352,-2.2352,-2.2352,-2.2352,-2.2352,-2.2352,-2.2352,-2.2352,-2.2352,-2.2352,-2.2352,-2.2352,-2.2352,-2.2352,-2.2352,-2.2352,-2.2424,-2.2541,-2.2527,-2.2921,-2.3154,-2.3302,-2.346,-2.3534,-1.693,-1.6181,-1.5489,-1.5462,-1.4249,-1.3106,-1.3315,-1.2974,-1.2459,-1.1791,-1.217,-1.2446,-1.1804,-1.1985,0.0,0.0,0.0,0.0,0.0,-1.1705,0.0,0.0,0.0,0.0,0.0,-1.813,-1.9382,-1.9989,-2.0782,-2.1754,-2.2871,-2.3298,-2.3794,-2.4287,-2.4958,-2.5275,-2.5275,-2.5764,-2.6054,-2.6054,-2.6054,-2.6054,-2.6054,-2.6054,-2.6212,-2.6421,-2.6697,-2.7069,-2.7457,-2.7663,-2.7781,-2.7795,-2.7795,-2.7795,-2.7795,-2.7795,-2.7795,-2.7795,-2.7795,-2.7795,-2.7795,-2.7795,-2.7795,-2.7795,-2.7795,-2.6504,-2.5114,-2.5114,-2.3734,-2.2352,-2.2352,-2.2352,-2.2352,-2.2352,-2.2352,-2.2352,-2.2352,-2.2352,-2.2352,-2.2352,-2.2352,-2.2352,-2.2352,-2.2352,-2.2352,-2.2352,-2.2352,-2.2352,-2.2352,-2.2352,-2.2352,-2.2352,-2.2352,-2.2352,-2.2352,-2.2352,-2.2352,-2.2352,-2.2352,-2.2352,-2.2352,-2.2352,-2.2352,-2.2352,-2.2352,-2.2382,-2.2516,-2.2527,-2.2758,-2.328,-2.3291,-2.3302,-1.517,-1.4906,-1.4583,-1.4117,-1.3657,-1.3105,-1.2343,-1.2394,-1.2393,-1.1564,-1.2062,0.0,0.0,0.0,-1.2657,0.0,0.0,-1.2671,-1.2208,-1.2684,-1.3867,-1.5997,-1.668,-1.755,-1.8953,-1.9646,-2.0371,-2.1228,-2.2033,-2.2595,-2.2911,-2.3681,-2.4142,-2.4301,-2.4958,-2.5275,-2.5275,-2.5764,-2.6054,-2.6054,-2.6054,-2.6054,-2.6054,-2.6054,-2.6212,-2.6421,-2.6486,-2.6885,-2.7444,-2.7524,-2.7597,-2.7795,-2.7795,-2.7795,-2.7795,-2.7795,-2.7795,-2.7795,-2.7795,-2.7795,-2.7795,-2.7795,-2.7795,-2.7795,-2.7795,-2.6504,-2.5114,-2.5114,-2.3734,-2.2352,-2.2352,-2.2352,-2.2352,-2.2352,-2.2352,-2.2352,-2.2352,-2.2352,-2.2352,-2.2352,-2.2352,-2.2352,-2.2352,-2.2352,-2.2352,-2.2352,-2.2352,-2.2352,-2.2352,-2.2352,-2.2352,-2.2352,-2.2352,-2.2352,-2.2352,-2.2352,-2.2352,-2.2352,-2.2352,-2.2352,-2.2352,-2.2352,-2.2352,-2.2352,-2.2352,-2.2384,-2.2448,-2.253,-2.2601,-2.2727,-2.2985,-2.3154,-1.3782,-1.3729,-1.3689,-1.3067,-1.279,-1.2487,-1.1685,-1.1893,-1.2078,-1.1528,0.0,0.0,0.0,0.0,0.0,0.0,-1.3423,-1.3792,-1.3411,-1.4135,-1.544,-1.7326,-1.755,-1.8235,-2.0051,-2.0859,-2.1624,-2.2445,-2.3022,-2.3345,-2.3463,-2.4024,-2.4301,-2.4301,-2.4762,-2.5065,-2.5275,-2.5645,-2.5922,-2.6054,-2.6054,-2.6054,-2.6054,-2.6054,-2.6146,-2.6318,-2.6355,-2.6687,-2.7017,-2.7254,-2.7537,-2.761,-2.761,-2.761,-2.7623,-2.7755,-2.7795,-2.7795,-2.7795,-2.7795,-2.7795,-2.7795,-2.7795,-2.7709,-2.7365,-2.6246,-2.5028,-2.4596,-2.3475,-2.2352,-2.2352,-2.2352,-2.2352,-2.2352,-2.2352,-2.2352,-2.2352,-2.2352,-2.2352,-2.2352,-2.2352,-2.2352,-2.2352,-2.2352,-2.2352,-2.2352,-2.2352,-2.2352,-2.2352,-2.2352,-2.2352,-2.2352,-2.2352,-2.2352,-2.2352,-2.2352,-2.2352,-2.2352,-2.2352,-2.2352,-2.2352,-2.2352,-2.2352,-2.2352,-2.2352,-2.2352,-2.2352,-2.2403,-2.2467,-2.2477,-2.272,-2.2942,-1.2657,-1.2644,-1.2697,-1.2234,-1.1867,-1.1593,-1.1458,0.0,-1.1778,-1.1872,0.0,-1.2948,-1.346,0.0,0.0,-1.3357,-1.4451,-1.515,-1.4694,-1.599,-1.7313,-1.8242,-1.8348,-1.894,-2.053,-2.1861,-2.2877,-2.3529,-2.3847,-2.405,-2.4287,-2.4301,-2.4301,-2.4301,-2.4515,-2.4894,-2.5275,-2.5553,-2.5751,-2.6054,-2.6054,-2.6054,-2.6054,-2.6054,-2.6054,-2.6067,-2.6331,-2.6381,-2.6447,-2.7043,-2.728,-2.7391,-2.7391,-2.7391,-2.7333,-2.7597,-2.7716,-2.7742,-2.7742,-2.7768,-2.7795,-2.7795,-2.7795,-2.7623,-2.6676,-2.5717,-2.4769,-2.3906,-2.3043,-2.2352,-2.2352,-2.2352,-2.2352,-2.2352,-2.2352,-2.2352,-2.2352,-2.2352,-2.2352,-2.2352,-2.2352,-2.2352,-2.2352,-2.2352,-2.2352,-2.2352,-2.2352,-2.2352,-2.2352,-2.2352,-2.2352,-2.2352,-2.2352,-2.2352,-2.2352,-2.2352,-2.2352,-2.2352,-2.2352,-2.2352,-2.2352,-2.2352,-2.2352,-2.2352,-2.2352,-2.2352,-2.2352,-2.2352,-2.2352,-2.2363,-2.2509,-2.2664,-1.1467,-1.1405,-1.159,-1.1471,-1.1405,-1.1537,0.0,0.0,0.0,-1.3237,-1.3513,-1.3762,-1.4412,-1.4517,-1.4649,-1.5011,-1.5743,-1.6255,-1.6136,-1.8186,-2.0024,-2.091,-2.1003,-2.1426,-2.2319,-2.2674,-2.3167,-2.376,-2.4063,-2.4248,-2.4301,-2.4301,-2.4301,-2.4301,-2.4515,-2.4894,-2.5275,-2.5553,-2.5751,-2.6054,-2.6054,-2.6054,-2.6054,-2.6054,-2.6054,-2.6054,-2.6107,-2.6265,-2.6421,-2.6608,-2.6793,-2.6907,-2.6907,-2.6907,-2.6907,-2.6973,-2.7228,-2.7524,-2.7524,-2.7597,-2.7795,-2.7795,-2.7795,-2.7623,-2.6676,-2.5286,-2.3906,-2.3734,-2.3043,-2.2352,-2.2352,-2.2352,-2.2352,-2.2352,-2.2352,-2.2352,-2.2352,-2.2352,-2.2352,-2.2352,-2.2352,-2.2352,-2.2352,-2.2352,-2.2352,-2.2352,-2.2352,-2.2352,-2.2352,-2.2352,-2.2352,-2.2352,-2.2352,-2.2352,-2.2352,-2.2352,-2.2352,-2.2352,-2.2352,-2.2352,-2.2352,-2.2352,-2.2352,-2.2352,-2.2352,-2.2352,-2.2352,-2.2352,-2.2352,-2.2363,-2.2509,-2.2664,-1.0575,-1.0838,-1.1273,-1.1273,-1.1603,0.0,0.0,-1.2816,-1.3146,-1.4249,-1.4485,-1.4761,-1.5691,-1.5931,-1.6168,-1.664,-1.7326,-1.7945,-1.838,-1.9831,-2.1057,-2.1691,-2.1902,-2.2257,-2.314,-2.3364,-2.3562,-2.3865,-2.4142,-2.4301,-2.4301,-2.4301,-2.4301,-2.4301,-2.4446,-2.4736,-2.5275,-2.5407,-2.5698,-2.6054,-2.6054,-2.6054,-2.6054,-2.6054,-2.6054,-2.6054,-2.6054,-2.6133,-2.6278,-2.6355,-2.6407,-2.6489,-2.6552,-2.6618,-2.6631,-2.6775,-2.692,-2.7122,-2.7122,-2.7228,-2.7373,-2.7531,-2.7571,-2.7426,-2.6626,-2.5458,-2.4165,-2.3302,-2.2698,-2.2352,-2.2352,-2.2352,-2.2352,-2.2352,-2.2352,-2.2352,-2.2352,-2.2352,-2.2352,-2.2352,-2.2352,-2.2352,-2.2352,-2.2352,-2.2352,-2.2352,-2.2352,-2.2352,-2.2352,-2.2352,-2.2352,-2.2352,-2.2352,-2.2352,-2.2352,-2.2352,-2.2352,-2.2352,-2.2352,-2.2352,-2.2352,-2.2352,-2.2352,-2.2352,-2.2352,-2.2352,-2.2352,-2.2352,-2.2352,-2.2352,-2.2393,-2.2636,-0.999,-1.045,-1.1076,-1.1313,-1.1893,0.0,-1.3067,-1.3381,-1.3959,-1.5269,-1.5524,-1.5905,-1.7062,-1.7417,-1.7679,-1.8133,-1.8815,-1.9673,-2.0609,-2.1136,-2.1596,-2.2074,-2.2296,-2.2784,-2.3609,-2.39,-2.3971,-2.3971,-2.4169,-2.4301,-2.4301,-2.4301,-2.4301,-2.4301,-2.4301,-2.4591,-2.5262,-2.5275,-2.5566,-2.6054,-2.6054,-2.6054,-2.6054,-2.6054,-2.6054,-2.6054,-2.6054,-2.6054,-2.6067,-2.6305,-2.6265,-2.6067,-2.6318,-2.6329,-2.6355,-2.6565,-2.6697,-2.6736,-2.6736,-2.6775,-2.6867,-2.7188,-2.7183,-2.6982,-2.6328,-2.5472,-2.4366,-2.2773,-2.2352,-2.2352,-2.2352,-2.2352,-2.2352,-2.2352,-2.2352,-2.2352,-2.2352,-2.2352,-2.2352,-2.2352,-2.2352,-2.2352,-2.2352,-2.2352,-2.2352,-2.2352,-2.2352,-2.2352,-2.2352,-2.2352,-2.2352,-2.2352,-2.2352,-2.2352,-2.2352,-2.2352,-2.2352,-2.2352,-2.2352,-2.2352,-2.2352,-2.2352,-2.2352,-2.2352,-2.2352,-2.2352,-2.2352,-2.2352,-2.2352,-2.2352,-2.2352,-2.2607,-0.9854,-0.9985,-1.03,-1.1383,-1.1712,0.0,-1.3392,-1.4016,-1.476,-1.6389,-1.6891,-1.7351,-1.8314,-1.8512,-1.8652,-1.9191,-1.9857,-2.0648,-2.1795,-2.223,-2.2639,-2.3265,-2.3582,-2.3826,-2.4169,-2.4235,-2.4261,-2.4261,-2.4287,-2.4301,-2.4301,-2.4301,-2.4301,-2.4301,-2.4301,-2.4591,-2.5262,-2.5275,-2.5566,-2.6054,-2.6054,-2.6054,-2.6054,-2.6054,-2.6054,-2.6054,-2.6054,-2.6054,-2.6054,-2.6081,-2.6081,-2.6054,-2.6081,-2.6094,-2.6107,-2.6133,-2.6318,-2.646,-2.646,-2.6618,-2.6828,-2.6854,-2.645,-2.575,-2.5108,-2.4246,-2.3356,-2.2547,-2.2352,-2.2352,-2.2352,-2.2352,-2.2352,-2.2352,-2.2352,-2.2352,-2.2352,-2.2352,-2.2352,-2.2352,-2.2352,-2.2352,-2.2352,-2.2352,-2.2352,-2.2352,-2.2352,-2.2352,-2.2352,-2.2352,-2.2352,-2.2352,-2.2352,-2.2352,-2.2352,-2.2352,-2.2352,-2.2352,-2.2352,-2.2352,-2.2352,-2.2352,-2.2352,-2.2352,-2.2352,-2.2352,-2.2352,-2.2352,-2.2352,-2.2352,-2.2352,-2.2607,-0.9401,-0.9849,-1.043,-1.126,0.0,0.0,-1.4104,-1.4899,-1.5845,-1.7365,-1.8051,-1.8586,-1.9514,-1.9901,-2.0216,-2.0453,-2.1123,-2.1848,-2.2336,-2.2797,-2.318,-2.349,-2.3926,-2.4169,-2.4287,-2.4301,-2.4301,-2.4301,-2.4301,-2.4301,-2.4301,-2.4301,-2.4301,-2.4301,-2.4301,-2.4591,-2.5262,-2.5275,-2.5566,-2.6054,-2.6054,-2.6054,-2.6054,-2.6054,-2.6054,-2.6054,-2.6054,-2.6054,-2.6054,-2.6054,-2.6054,-2.6054,-2.6054,-2.6054,-2.6054,-2.6054,-2.6133,-2.6239,-2.6239,-2.6305,-2.6355,-2.6032,-2.5671,-2.5225,-2.4003,-2.3401,-2.2951,-2.2332,-2.214,-2.2172,-2.232,-2.2352,-2.2352,-2.2352,-2.2352,-2.2352,-2.2352,-2.2352,-2.2352,-2.2352,-2.2352,-2.2352,-2.2352,-2.2352,-2.2352,-2.2352,-2.2352,-2.2352,-2.2352,-2.2352,-2.2352,-2.2352,-2.2352,-2.2352,-2.2352,-2.2352,-2.2352,-2.2352,-2.2352,-2.2352,-2.2352,-2.2352,-2.2352,-2.2352,-2.2352,-2.2352,-2.2352,-2.2352,-2.2352,-2.2352,-2.2352,-2.2607,-0.9166,0.0,0.0,0.0,0.0,0.0,-1.5137,-1.6047,-1.7048,-1.813,-1.9,-1.9704,-2.0398,-2.1005,-2.1478,-2.1557,-2.2109,-2.2517,-2.2517,-2.3088,-2.3516,-2.3516,-2.3958,-2.4301,-2.4301,-2.4301,-2.4301,-2.4301,-2.4301,-2.4301,-2.4301,-2.4301,-2.4301,-2.4301,-2.4301,-2.4591,-2.5262,-2.5275,-2.5566,-2.6054,-2.6054,-2.6054,-2.6054,-2.6054,-2.6054,-2.6054,-2.6054,-2.6054,-2.6054,-2.6054,-2.6054,-2.6054,-2.6054,-2.6054,-2.6054,-2.6054,-2.6054,-2.6054,-2.6054,-2.588,-2.5596,-2.5234,-2.4819,-2.4214,-2.3153,-2.2651,-2.2383,-2.2087,-2.1992,-2.2055,-2.2289,-2.2352,-2.2352,-2.2352,-2.2352,-2.2352,-2.2352,-2.2352,-2.2352,-2.2352,-2.2352,-2.2352,-2.2352,-2.2352,-2.2352,-2.2352,-2.2352,-2.2352,-2.2352,-2.2352,-2.2352,-2.2352,-2.2352,-2.2352,-2.2352,-2.2352,-2.2352,-2.2352,-2.2352,-2.2352,-2.2352,-2.2352,-2.2352,-2.2352,-2.2352,-2.2352,-2.2352,-2.2352,-2.2352,-2.2352,-2.2352,-2.2607,0.0,0.0,0.0,-1.2934,-1.4038,-1.511,-1.6534,-1.755,-1.8262,-1.8591,-1.9791,-2.0729,-2.0755,-2.1532,-2.2204,-2.2494,-2.2503,-2.2517,-2.2517,-2.3088,-2.3516,-2.3516,-2.3958,-2.4301,-2.4301,-2.4301,-2.4301,-2.4301,-2.4301,-2.4301,-2.4301,-2.4301,-2.4301,-2.4301,-2.4301,-2.4591,-2.5262,-2.5275,-2.5566,-2.6054,-2.6054,-2.6054,-2.6054,-2.6054,-2.6054,-2.6054,-2.6054,-2.6054,-2.6054,-2.6054,-2.6054,-2.6054,-2.6054,-2.6054,-2.6054,-2.6054,-2.6054,-2.6054,-2.6054,-2.5477,-2.4751,-2.4683,-2.3633,-2.2303,-2.248,-2.1982,-2.1336,-2.1864,-2.1992,-2.2055,-2.2289,-2.2352,-2.2352,-2.2352,-2.2352,-2.2352,-2.2352,-2.2352,-2.2352,-2.2352,-2.2352,-2.2352,-2.2352,-2.2352,-2.2352,-2.2352,-2.2352,-2.2352,-2.2352,-2.2352,-2.2352,-2.2352,-2.2352,-2.2352,-2.2352,-2.2352,-2.2352,-2.2352,-2.2352,-2.2352,-2.2352,-2.2352,-2.2352,-2.2352,-2.2352,-2.2352,-2.2352,-2.2352,-2.2352,-2.2352,-2.2352,-2.2607,-1.0012,-1.1229,-1.2579,-1.3752,-1.4979,-1.6139,-1.697,-1.7906,-1.867,-1.9086,-2.019,-2.1123,-2.1373,-2.198,-2.2468,-2.2503,-2.2517,-2.2517,-2.2517,-2.3088,-2.3516,-2.3516,-2.3958,-2.4301,-2.4301,-2.4301,-2.4301,-2.4301,-2.4301,-2.4301,-2.4301,-2.4301,-2.4301,-2.4301,-2.4301,-2.4498,-2.4894,-2.5169,-2.546,-2.5751,-2.5949,-2.6054,-2.6054,-2.6054,-2.6054,-2.6054,-2.6054,-2.6054,-2.6054,-2.6054,-2.6054,-2.6054,-2.6054,-2.6054,-2.6054,-2.6054,-2.5638,-2.5154,-2.5154,-2.459,-2.3783,-2.3217,-2.2651,-2.2096,-2.1536,-2.115,-2.0969,-2.1368,-2.1568,-2.1748,-2.2055,-2.2236,-2.2352,-2.2352,-2.2352,-2.2352,-2.2352,-2.2352,-2.2352,-2.2352,-2.2352,-2.2352,-2.2352,-2.2352,-2.2352,-2.2352,-2.2352,-2.2352,-2.2352,-2.2352,-2.2352,-2.2352,-2.2352,-2.2352,-2.2352,-2.2352,-2.2352,-2.2352,-2.2352,-2.2352,-2.2352,-2.2352,-2.2352,-2.2352,-2.2352,-2.2352,-2.2352,-2.2352,-2.2352,-2.2352,-2.2352,-2.2437,-1.0542,-1.2012,-1.3489,-1.4826,-1.6162,-1.7299,-1.7929,-1.8692,-1.9396,-1.9704,-2.0624,-2.1492,-2.173,-2.2178,-2.2517,-2.2517,-2.2517,-2.2517,-2.2517,-2.3088,-2.3516,-2.3516,-2.3958,-2.4301,-2.4301,-2.4301,-2.4301,-2.4301,-2.4301,-2.4301,-2.4301,-2.4301,-2.4301,-2.4301,-2.4301,-2.4393,-2.4591,-2.5063,-2.5407,-2.5685,-2.5909,-2.6054,-2.6054,-2.6054,-2.6054,-2.6054,-2.6054,-2.6054,-2.6054,-2.6054,-2.6054,-2.6054,-2.6054,-2.6054,-2.6054,-2.6054,-2.5477,-2.4671,-2.4671,-2.3944,-2.2975,-2.2328,-2.1923,-2.1519,-2.0952,-2.079,-2.0843,-2.1074,-2.1399,-2.1632,-2.1939,-2.2172,-2.2352,-2.2352,-2.2352,-2.2352,-2.2352,-2.2352,-2.2352,-2.2352,-2.2352,-2.2352,-2.2352,-2.2352,-2.2352,-2.2352,-2.2352,-2.2352,-2.2352,-2.2352,-2.2352,-2.2352,-2.2352,-2.2352,-2.2352,-2.2352,-2.2352,-2.2352,-2.2352,-2.2352,-2.2352,-2.2352,-2.2352,-2.2352,-2.2352,-2.2352,-2.2352,-2.2352,-2.2352,-2.2352,-2.2352,-2.2352,-1.0732,-1.2383,-1.389,-1.5911,-1.7377,-1.8525,-1.913,-1.9865,-2.0398,-2.0221,-2.1031,-2.177,-2.1556,-2.2109,-2.2517,-2.2517,-2.2517,-2.2517,-2.2517,-2.3088,-2.3516,-2.3516,-2.3958,-2.4301,-2.4301,-2.4301,-2.4301,-2.4301,-2.4301,-2.4301,-2.4301,-2.4301,-2.4301,-2.4301,-2.4301,-2.4301,-2.4301,-2.4944,-2.5368,-2.5672,-2.5896,-2.6054,-2.6054,-2.6054,-2.6054,-2.6054,-2.6054,-2.6054,-2.6054,-2.6054,-2.6054,-2.6054,-2.6054,-2.6054,-2.6054,-2.6054,-2.5477,-2.4671,-2.4671,-2.354,-2.2166,-2.2085,-2.1519,-2.079,-2.079,-2.079,-2.0832,-2.1064,-2.1378,-2.1611,-2.1833,-2.2151,-2.2342,-2.2352,-2.2352,-2.2352,-2.2352,-2.2352,-2.2352,-2.2352,-2.2352,-2.2352,-2.2352,-2.2352,-2.2352,-2.2352,-2.2352,-2.2352,-2.2352,-2.2352,-2.2352,-2.2352,-2.2352,-2.2352,-2.2352,-2.2352,-2.2352,-2.2352,-2.2352,-2.2352,-2.2352,-2.2352,-2.2352,-2.2352,-2.2352,-2.2352,-2.2352,-2.2352,-2.2352,-2.2352,-2.2352,-2.2352,-0.7652,-1.0798,-1.3636,-1.4422,-1.6909,-1.8719,-1.7047,-1.8625,-1.9881,-1.8025,-1.9848,-2.1086,-1.9001,-2.0736,-2.2517,-2.2517,-2.2517,-2.2517,-2.2517,-2.3088,-2.3516,-2.3516,-2.3958,-2.4301,-2.4301,-2.4301,-2.4301,-2.4301,-2.4301,-2.4301,-2.4301,-2.4301,-2.4301,-2.4301,-2.4301,-2.4301,-2.4301,-2.4446,-2.4788,-2.5381,-2.5804,-2.6054,-2.6054,-2.6054,-2.6054,-2.6054,-2.6054,-2.6054,-2.6054,-2.6054,-2.6054,-2.6054,-2.6054,-2.6054,-2.6054,-2.6054,-2.5477,-2.459,-2.4025,-2.3056,-2.2004,-2.1357,-2.1033,-2.079,-2.079,-2.079,-2.0801,-2.0864,-2.1053,-2.1368,-2.16,-2.1833,-2.213,-2.231,-2.2352,-2.2352,-2.2352,-2.2352,-2.2352,-2.2352,-2.2352,-2.2352,-2.2352,-2.2352,-2.2352,-2.2352,-2.2352,-2.2352,-2.2352,-2.2352,-2.2352,-2.2352,-2.2352,-2.2352,-2.2352,-2.2352,-2.2352,-2.2352,-2.2352,-2.2352,-2.2352,-2.2352,-2.2352,-2.2352,-2.2352,-2.2352,-2.2352,-2.2352,-2.2352,-2.2352,-2.2352,-2.2352,-0.5741,-0.8896,-1.194,-1.2585,-1.5341,-1.7303,-1.4708,-1.6547,-1.8054,-1.5406,-1.6506,-1.743,-1.5811,-1.8305,-2.0604,-2.0604,-2.1665,-2.2517,-2.2517,-2.3088,-2.3516,-2.3516,-2.3958,-2.4301,-2.4301,-2.4301,-2.4301,-2.4301,-2.4301,-2.4301,-2.4301,-2.4301,-2.4301,-2.4301,-2.4301,-2.4301,-2.4301,-2.4301,-2.4538,-2.4999,-2.558,-2.5922,-2.6054,-2.6054,-2.6054,-2.6054,-2.6054,-2.6054,-2.6054,-2.6054,-2.6054,-2.6054,-2.6054,-2.6054,-2.6054,-2.6054,-2.5477,-2.459,-2.4186,-2.3217,-2.2166,-2.2004,-2.1762,-2.1438,-2.1438,-2.1438,-2.1276,-2.0952,-2.0958,-2.1283,-2.1516,-2.1748,-2.2055,-2.2299,-2.2352,-2.2352,-2.2352,-2.2352,-2.2352,-2.2352,-2.2352,-2.2352,-2.2352,-2.2352,-2.2352,-2.2352,-2.2352,-2.2352,-2.2352,-2.2352,-2.2352,-2.2352,-2.2352,-2.2352,-2.2352,-2.2352,-2.2352,-2.2352,-2.2352,-2.2352,-2.2352,-2.2352,-2.2352,-2.2352,-2.2352,-2.2352,-2.2352,-2.2352,-2.2352,-2.2352,-2.2352,-2.2352,-0.4434,-0.6656,-0.9165,-1.031,-1.3135,-1.4861,-1.2117,-1.3916,-1.5361,-1.2509,-1.2189,-1.2491,-1.2491,-1.5114,-1.7499,-1.799,-2.0102,-2.1875,-2.2447,-2.3016,-2.3371,-2.3516,-2.3958,-2.4301,-2.4301,-2.4301,-2.4301,-2.4301,-2.4301,-2.4301,-2.4301,-2.4301,-2.4301,-2.4301,-2.4301,-2.4301,-2.4301,-2.4301,-2.4446,-2.4672,-2.5289,-2.5725,-2.6054,-2.6054,-2.6054,-2.6054,-2.6054,-2.6054,-2.6054,-2.6054,-2.6054,-2.6054,-2.5893,-2.5974,-2.6054,-2.5893,-2.5396,-2.4671,-2.459,-2.346,-2.2247,-2.2975,-2.2651,-2.2004,-2.2004,-2.2004,-2.1842,-2.1033,-2.0937,-2.1148,-2.1473,-2.1695,-2.2013,-2.2246,-2.2331,-2.2352,-2.2352,-2.2352,-2.2352,-2.2352,-2.2352,-2.2352,-2.2352,-2.2352,-2.2352,-2.2352,-2.2352,-2.2352,-2.2352,-2.2352,-2.2352,-2.2352,-2.2352,-2.2352,-2.2352,-2.2352,-2.2352,-2.2352,-2.2352,-2.2352,-2.2352,-2.2352,-2.2352,-2.2352,-2.2352,-2.2352,-2.2352,-2.2352,-2.2352,-2.2352,-2.2352,-2.2352,-0.3022,-0.3736,-0.5019,-0.7553,-1.0491,-1.1993,-0.9189,-1.0918,-1.2379,-0.9655,-0.9404,-0.9652,-0.9652,-1.1728,-1.4471,-1.7569,-1.7419,-1.827,-2.2014,-2.2587,-2.2791,-2.3444,-2.3958,-2.4301,-2.4301,-2.4301,-2.4301,-2.4301,-2.4301,-2.4301,-2.4301,-2.4301,-2.4301,-2.4301,-2.4301,-2.4301,-2.4301,-2.4301,-2.4446,-2.4672,-2.5092,-2.5619,-2.6054,-2.6054,-2.6054,-2.6054,-2.6054,-2.6054,-2.6054,-2.6054,-2.6054,-2.5974,-2.5235,-2.5396,-2.5974,-2.5154,-2.4832,-2.459,-2.3944,-2.3056,-2.2085,-2.1438,-2.1195,-2.1033,-2.1033,-2.1033,-2.1033,-2.0871,-2.0822,-2.0906,-2.123,-2.1463,-2.1695,-2.2002,-2.2214,-2.2352,-2.2352,-2.2352,-2.2352,-2.2352,-2.2352,-2.2352,-2.2352,-2.2352,-2.2352,-2.2352,-2.2352,-2.2352,-2.2352,-2.2352,-2.2352,-2.2352,-2.2352,-2.2352,-2.2352,-2.2352,-2.2352,-2.2352,-2.2352,-2.2352,-2.2352,-2.2352,-2.2352,-2.2352,-2.2352,-2.2352,-2.2352,-2.2352,-2.2352,-2.2352,-2.2352,-2.2352,-0.2825,-0.3168,-0.3757,-0.5221,-0.7804,-0.9314,-0.6509,-0.8183,-0.9511,-0.6606,-0.6287,-0.6509,-0.6481,-0.8465,-1.0733,-1.2493,-1.4462,-1.6507,-1.8691,-2.0443,-2.1759,-2.227,-2.2646,-2.3096,-2.3611,-2.3699,-2.3849,-2.4225,-2.4301,-2.4301,-2.4301,-2.4301,-2.4301,-2.4301,-2.4301,-2.4301,-2.4301,-2.4301,-2.4366,-2.4525,-2.505,-2.5421,-2.5619,-2.5027,-2.4751,-2.4751,-2.4751,-2.4751,-2.4751,-2.4751,-2.4751,-2.4671,-2.4267,-2.4348,-2.4671,-2.4267,-2.4106,-2.4025,-2.3621,-2.2894,-2.2166,-2.2166,-2.1923,-2.1519,-2.1519,-2.1519,-2.1438,-2.0952,-2.079,-2.0843,-2.1167,-2.1399,-2.1632,-2.1939,-2.2087,-2.2204,-2.232,-2.2352,-2.2352,-2.2352,-2.2352,-2.2352,-2.2352,-2.2352,-2.2352,-2.2352,-2.2352,-2.2352,-2.2352,-2.2352,-2.2352,-2.2352,-2.2352,-2.2352,-2.2352,-2.2352,-2.2352,-2.2352,-2.2352,-2.2352,-2.2352,-2.2352,-2.2352,-2.2352,-2.2352,-2.2352,-2.2352,-2.2352,-2.2352,-2.2352,-2.2352,-2.2352,-0.2928,-0.3235,-0.3475,-0.3641,-0.5461,-0.6696,-0.4534,-0.576,-0.6752,-0.44,-0.4129,-0.4255,-0.4306,-0.5748,-0.719,-0.7847,-1.1085,-1.4111,-1.5515,-1.7977,-1.995,-2.1011,-2.1431,-2.1916,-2.2771,-2.2871,-2.3097,-2.3774,-2.3774,-2.3774,-2.3774,-2.3774,-2.3774,-2.3774,-2.3774,-2.3774,-2.3774,-2.3774,-2.3774,-2.3774,-2.4445,-2.4807,-2.4976,-2.388,-2.3481,-2.354,-2.354,-2.354,-2.354,-2.354,-2.354,-2.346,-2.3298,-2.3379,-2.346,-2.3298,-2.3217,-2.3217,-2.3217,-2.2651,-2.2004,-2.2732,-2.249,-2.1842,-2.1842,-2.1842,-2.1681,-2.1033,-2.079,-2.0832,-2.1022,-2.1325,-2.1558,-2.179,-2.196,-2.2066,-2.2299,-2.2352,-2.2352,-2.2352,-2.2352,-2.2352,-2.2352,-2.2352,-2.2352,-2.2352,-2.2352,-2.2352,-2.2352,-2.2352,-2.2352,-2.2352,-2.2352,-2.2352,-2.2352,-2.2352,-2.2352,-2.2352,-2.2352,-2.2352,-2.2352,-2.2352,-2.2352,-2.2352,-2.2352,-2.2352,-2.2352,-2.2352,-2.2352,-2.2352,-2.2352,-2.2352,-0.2702,-0.3016,-0.335,-0.3474,-0.3911,-0.4217,-0.3979,-0.4086,-0.4265,-0.4113,-0.415,-0.4298,-0.4273,-0.3996,-0.4683,-0.7481,-0.7141,-0.8694,-1.4883,-1.5697,-1.7067,-2.0721,-2.1431,-2.1693,-2.2018,-2.2042,-2.2118,-2.2193,-2.2193,-2.2193,-2.2193,-2.2193,-2.2193,-2.2193,-2.2193,-2.2193,-2.2193,-2.2193,-2.2193,-2.2193,-2.2747,-2.3312,-2.4027,-2.3447,-2.3314,-2.354,-2.354,-2.354,-2.354,-2.354,-2.354,-2.346,-2.2571,-2.2813,-2.346,-2.2571,-2.2247,-2.2247,-2.2247,-2.1681,-2.0952,-2.1033,-2.1033,-2.0952,-2.0952,-2.0952,-2.0871,-2.079,-2.079,-2.079,-2.0822,-2.1001,-2.1315,-2.1558,-2.1769,-2.2066,-2.2299,-2.2352,-2.2352,-2.2352,-2.2352,-2.2352,-2.2352,-2.2352,-2.2352,-2.2352,-2.2352,-2.2352,-2.2352,-2.2352,-2.2352,-2.2352,-2.2352,-2.2352,-2.2352,-2.2352,-2.2352,-2.2352,-2.2352,-2.2352,-2.2352,-2.2352,-2.2352,-2.2352,-2.2352,-2.2352,-2.2352,-2.2352,-2.2352,-2.2352,-2.2352,-2.2352,-0.276,-0.3127,-0.344,-0.3469,-0.3615,-0.3744,-0.3781,-0.3449,-0.3289,-0.373,-0.4081,-0.4128,-0.3687,-0.3011,-0.2871,-0.3698,-0.4447,-0.5901,-0.8598,-1.1986,-1.4913,-1.6752,-1.8717,-2.0258,-2.1103,-2.1137,-2.1364,-2.1892,-2.1967,-2.1967,-2.1967,-2.1967,-2.1967,-2.1967,-2.1967,-2.1967,-2.1967,-2.1967,-2.1967,-2.1967,-2.2348,-2.2455,-2.2387,-2.1842,-2.201,-2.2651,-2.2085,-2.1923,-2.1923,-2.1923,-2.1923,-2.1842,-2.1519,-2.1519,-2.1842,-2.1519,-2.1357,-2.1357,-2.1357,-2.1114,-2.079,-2.079,-2.079,-2.079,-2.079,-2.079,-2.079,-2.079,-2.079,-2.079,-2.079,-2.0969,-2.1283,-2.1526,-2.1642,-2.1812,-2.2278,-2.2352,-2.2352,-2.2352,-2.2352,-2.2352,-2.2352,-2.2352,-2.2352,-2.2352,-2.2352,-2.2352,-2.2352,-2.2352,-2.2352,-2.2352,-2.2352,-2.2352,-2.2352,-2.2352,-2.2352,-2.2352,-2.2352,-2.2352,-2.2352,-2.2352,-2.2352,-2.2352,-2.2352,-2.2352,-2.2352,-2.2352,-2.2352,-2.2352,-2.2352,-2.2427,-0.2682,-0.3071,-0.3356,-0.3328,-0.3324,-0.3426,-0.3657,-0.3133,-0.2783,-0.3279,-0.3504,-0.3476,-0.2894,-0.2418,-0.1941,-0.1301,-0.246,-0.3707,-0.4369,-0.8153,-1.1748,-1.3895,-1.6115,-1.823,-2.0112,-2.0232,-2.0534,-2.1137,-2.1213,-2.1213,-2.1213,-2.1213,-2.1213,-2.1213,-2.1213,-2.1213,-2.1213,-2.1213,-2.1213,-2.1213,-2.1478,-2.1422,-2.1056,-2.0669,-2.0985,-2.1681,-2.1033,-2.079,-2.079,-2.079,-2.079,-2.079,-2.079,-2.079,-2.079,-2.079,-2.079,-2.079,-2.079,-2.079,-2.079,-2.079,-2.079,-2.079,-2.079,-2.079,-2.079,-2.079,-2.079,-2.079,-2.079,-2.0916,-2.1095,-2.1421,-2.1526,-2.1685,-2.2161,-2.2299,-2.2352,-2.2352,-2.2352,-2.2352,-2.2352,-2.2352,-2.2352,-2.2352,-2.2352,-2.2352,-2.2352,-2.2352,-2.2352,-2.2352,-2.2352,-2.2352,-2.2352,-2.2352,-2.2352,-2.2352,-2.2352,-2.2352,-2.2352,-2.2352,-2.2352,-2.2352,-2.2352,-2.2352,-2.2352,-2.2352,-2.2352,-2.2352,-2.2352,-2.2393,-0.2345,-0.2699,-0.3092,-0.294,-0.2713,-0.2751,-0.3538,-0.3111,-0.2596,-0.268,-0.24,-0.2178,-0.2177,-0.2139,-0.1906,-0.1267,-0.1217,-0.1995,-0.416,-0.4505,-0.695,-1.34,-1.4231,-1.561,-1.9077,-1.9476,-1.9476,-1.9476,-1.9476,-1.9476,-1.9476,-1.9476,-1.9476,-1.9476,-1.9476,-1.9476,-1.9476,-1.9476,-1.9476,-1.9476,-1.9719,-1.9962,-2.0273,-2.0195,-2.0438,-2.079,-2.079,-2.079,-2.079,-2.079,-2.079,-2.079,-2.079,-2.079,-2.079,-2.079,-2.079,-2.079,-2.079,-2.079,-2.079,-2.079,-2.079,-2.079,-2.079,-2.079,-2.079,-2.079,-2.079,-2.079,-2.079,-2.079,-2.0853,-2.1095,-2.141,-2.1642,-2.1864,-2.2183,-2.2352,-2.2352,-2.2352,-2.2352,-2.2352,-2.2352,-2.2352,-2.2352,-2.2352,-2.2352,-2.2352,-2.2352,-2.2352,-2.2352,-2.2352,-2.2352,-2.2352,-2.2352,-2.2352,-2.2352,-2.2352,-2.2352,-2.2352,-2.2352,-2.2352,-2.2352,-2.2352,-2.2352,-2.2352,-2.2352,-2.2352,-2.2352,-2.2352,-2.2393,-0.2295,-0.2378,-0.2542,-0.2965,-0.2506,-0.2264,-0.3215,-0.2673,-0.2124,-0.2635,-0.2329,-0.1882,-0.1426,-0.1323,-0.1097,-0.0471,-0.0337,-0.0613,-0.134,-0.315,-0.5289,-0.755,-1.157,-1.4713,-1.5959,-1.8105,-1.94,-1.94,-1.94,-1.94,-1.94,-1.94,-1.94,-1.94,-1.94,-1.94,-1.94,-1.94,-1.94,-1.94,-1.9474,-1.9719,-1.9952,-2.011,-2.0353,-2.0638,-2.0797,-2.079,-2.079,-2.079,-2.079,-2.079,-2.079,-2.079,-2.079,-2.079,-2.079,-2.079,-2.079,-2.079,-2.079,-2.079,-2.079,-2.079,-2.079,-2.079,-2.079,-2.079,-2.079,-2.079,-2.079,-2.079,-2.0853,-2.1167,-2.141,-2.1642,-2.1949,-2.2183,-2.2352,-2.2352,-2.2352,-2.2352,-2.2352,-2.2352,-2.2352,-2.2352,-2.2352,-2.2352,-2.2352,-2.2352,-2.2352,-2.2352,-2.2352,-2.2352,-2.2352,-2.2352,-2.2352,-2.2352,-2.2352,-2.2352,-2.2352,-2.2352,-2.2352,-2.2352,-2.2352,-2.2352,-2.2352,-2.2352,-2.2352,-2.2352,-2.2352,-2.2564,-0.186,-0.1989,-0.2245,-0.2646,-0.1903,-0.1371,-0.2477,-0.2052,-0.1556,-0.1992,-0.179,-0.1403,-0.0716,-0.0615,-0.0444,-0.0066,0.0,0.0,0.0,-0.1578,-0.3282,-0.4701,-0.8269,-1.1695,-1.4293,-1.643,-1.8105,-1.9325,-1.94,-1.94,-1.94,-1.94,-1.94,-1.94,-1.94,-1.94,-1.94,-1.94,-1.94,-1.94,-1.94,-1.9603,-1.9846,-2.0078,-2.039,-2.0613,-2.0765,-2.079,-2.079,-2.079,-2.079,-2.079,-2.079,-2.079,-2.079,-2.079,-2.079,-2.079,-2.079,-2.079,-2.079,-2.079,-2.079,-2.079,-2.079,-2.079,-2.079,-2.079,-2.079,-2.079,-2.079,-2.079,-2.0832,-2.0979,-2.1273,-2.1516,-2.1738,-2.2055,-2.2246,-2.2342,-2.2352,-2.2352,-2.2352,-2.2352,-2.2352,-2.2352,-2.2352,-2.2352,-2.2352,-2.2352,-2.2352,-2.2352,-2.2352,-2.2352,-2.2352,-2.2352,-2.2352,-2.2352,-2.2352,-2.2352,-2.2352,-2.2352,-2.2352,-2.2352,-2.2352,-2.2352,-2.2352,-2.2352,-2.2352,-2.2352,-2.2352,-2.2607,-0.1117,-0.1477,-0.2019,-0.2073,-0.1076,-0.0376,-0.1463,-0.1337,-0.098,-0.0975,-0.092,-0.0737,-0.0113,0.0,0.0,0.0,0.0,0.0,0.0,0.0,-0.1102,-0.4116,-0.4727,-0.7224,-1.3315,-1.4301,-1.5825,-1.8871,-1.9325,-1.94,-1.94,-1.94,-1.94,-1.94,-1.94,-1.94,-1.94,-1.94,-1.94,-1.94,-1.94,-1.9592,-1.9814,-2.0068,-2.0379,-2.0591,-2.0765,-2.079,-2.079,-2.079,-2.079,-2.079,-2.079,-2.079,-2.079,-2.079,-2.079,-2.079,-2.079,-2.079,-2.079,-2.079,-2.079,-2.079,-2.079,-2.079,-2.079,-2.079,-2.079,-2.079,-2.079,-2.079,-2.079,-2.079,-2.0969,-2.1294,-2.1526,-2.1759,-2.2066,-2.231,-2.2352,-2.2352,-2.2352,-2.2352,-2.2352,-2.2352,-2.2352,-2.2352,-2.2352,-2.2352,-2.2352,-2.2352,-2.2352,-2.2352,-2.2352,-2.2352,-2.2352,-2.2352,-2.2352,-2.2352,-2.2352,-2.2352,-2.2352,-2.2352,-2.2352,-2.2352,-2.2352,-2.2352,-2.2352,-2.2352,-2.2374,-2.2541,-0.11,-0.096,-0.1073,-0.1571,-0.145,-0.1266,-0.1536,-0.1193,-0.0831,-0.083,-0.0485,-0.0205,-0.0052,0.0,0.0,0.0,0.0,0.0,0.0,0.0,-0.0288,-0.1027,-0.3352,-0.5431,-0.6996,-1.1639,-1.4915,-1.5673,-1.8029,-1.94,-1.94,-1.94,-1.94,-1.94,-1.94,-1.94,-1.94,-1.94,-1.94,-1.94,-1.94,-1.9508,-1.9495,-1.9994,-2.0216,-2.0369,-2.0691,-2.079,-2.079,-2.079,-2.079,-2.079,-2.079,-2.079,-2.079,-2.079,-2.079,-2.079,-2.079,-2.079,-2.079,-2.079,-2.079,-2.079,-2.079,-2.079,-2.079,-2.079,-2.079,-2.079,-2.079,-2.079,-2.079,-2.079,-2.0969,-2.1294,-2.1526,-2.1759,-2.2066,-2.231,-2.2352,-2.2352,-2.2352,-2.2352,-2.2352,-2.2352,-2.2352,-2.2352,-2.2352,-2.2352,-2.2352,-2.2352,-2.2352,-2.2352,-2.2352,-2.2352,-2.2352,-2.2352,-2.2352,-2.2352,-2.2352,-2.2352,-2.2352,-2.2352,-2.2352,-2.2352,-2.2352,-2.2352,-2.2352,-2.2363,-2.2446,-2.2689,-0.0855,-0.0702,-0.0606,-0.0799,-0.0842,-0.0827,-0.0854,-0.0619,-0.0403,-0.0428,-0.0181,0.0,0.0,0.0,0.0,0.0,0.0,0.0,0.0,0.0,0.0,0.0,-0.1552,-0.3235,-0.4716,-0.8069,-1.0728,-1.2253,-1.537,-1.7197,-1.7197,-1.8634,-1.94,-1.94,-1.94,-1.94,-1.94,-1.94,-1.94,-1.94,-1.94,-1.94,-1.9487,-1.9856,-2.0089,-2.0205,-2.0554,-2.0765,-2.079,-2.079,-2.079,-2.079,-2.079,-2.079,-2.079,-2.079,-2.079,-2.079,-2.079,-2.079,-2.079,-2.079,-2.079,-2.079,-2.079,-2.079,-2.079,-2.079,-2.079,-2.079,-2.079,-2.079,-2.079,-2.079,-2.0885,-2.1043,-2.1368,-2.16,-2.1833,-2.214,-2.2278,-2.2352,-2.2352,-2.2352,-2.2352,-2.2352,-2.2352,-2.2352,-2.2352,-2.2352,-2.2352,-2.2352,-2.2352,-2.2352,-2.2352,-2.2352,-2.2352,-2.2352,-2.2352,-2.2352,-2.2352,-2.2352,-2.2352,-2.2352,-2.2352,-2.2352,-2.2352,-2.2352,-2.2352,-2.2363,-2.2509,-2.2664,-0.0634,-0.0522,-0.04,-0.0079,0.0,0.0,0.0,0.0,0.0,0.0,0.0,0.0,0.0,0.0,0.0,0.0,0.0,0.0,0.0,0.0,0.0,0.0,0.0,-0.1051,-0.3871,-0.4564,-0.6015,-0.8757,-1.2025,-1.4073,-1.4528,-1.7197,-1.8947,-1.94,-1.94,-1.94,-1.94,-1.94,-1.94,-1.94,-1.94,-1.94,-1.9411,-1.9719,-1.9962,-2.0205,-2.0506,-2.0649,-2.079,-2.079,-2.079,-2.079,-2.079,-2.079,-2.079,-2.079,-2.079,-2.079,-2.079,-2.079,-2.079,-2.079,-2.079,-2.079,-2.079,-2.079,-2.079,-2.079,-2.079,-2.079,-2.079,-2.079,-2.079,-2.079,-2.079,-2.0853,-2.1095,-2.141,-2.1642,-2.1864,-2.2193,-2.2352,-2.2352,-2.2352,-2.2352,-2.2352,-2.2352,-2.2352,-2.2352,-2.2352,-2.2352,-2.2352,-2.2352,-2.2352,-2.2352,-2.2352,-2.2352,-2.2352,-2.2352,-2.2352,-2.2352,-2.2352,-2.2352,-2.2352,-2.2352,-2.2352,-2.2352,-2.2352,-2.2352,-2.2363,-2.2551,-2.2695,-0.064,-0.0353,-0.0074,0.0,0.0,0.0,0.0,0.0,0.0,0.0,0.0,0.0,0.0,0.0,0.0,0.0,0.0,0.0,0.0,0.0,0.0,0.0,0.0,-0.0223,-0.0675,-0.3257,-0.5102,-0.5558,-0.8601,-1.1645,-1.4452,-1.5067,-1.6582,-1.9325,-1.94,-1.94,-1.94,-1.94,-1.94,-1.94,-1.94,-1.94,-1.9411,-1.9719,-1.9962,-2.0205,-2.0506,-2.0649,-2.079,-2.079,-2.079,-2.079,-2.079,-2.079,-2.079,-2.079,-2.079,-2.079,-2.079,-2.079,-2.079,-2.079,-2.079,-2.079,-2.079,-2.079,-2.079,-2.079,-2.079,-2.079,-2.079,-2.079,-2.079,-2.079,-2.079,-2.0853,-2.1095,-2.141,-2.1642,-2.1864,-2.2193,-2.2352,-2.2352,-2.2352,-2.2352,-2.2352,-2.2352,-2.2352,-2.2352,-2.2352,-2.2352,-2.2352,-2.2352,-2.2352,-2.2352,-2.2352,-2.2352,-2.2352,-2.2352,-2.2352,-2.2352,-2.2352,-2.2352,-2.2352,-2.2352,-2.2352,-2.2352,-2.2352,-2.2352,-2.2363,-2.272,-2.2942,-0.0911,-0.0447,0.0,0.0,0.0,0.0,0.0,0.0,0.0,0.0,0.0,0.0,0.0,0.0,0.0,0.0,0.0,0.0,0.0,0.0,0.0,0.0,0.0,0.0,0.0,-0.1363,-0.2211,-0.2211,-0.5257,-0.7764,-0.9209,-1.0956,-1.3467,-1.6733,-1.6809,-1.6809,-1.6809,-1.8569,-1.94,-1.94,-1.94,-1.94,-1.94,-1.9592,-1.9772,-2.0004,-2.0237,-2.0469,-2.0691,-2.0818,-2.079,-2.079,-2.079,-2.079,-2.079,-2.079,-2.079,-2.079,-2.079,-2.079,-2.079,-2.079,-2.079,-2.079,-2.079,-2.079,-2.079,-2.079,-2.079,-2.079,-2.079,-2.079,-2.079,-2.079,-2.079,-2.0822,-2.0927,-2.122,-2.1463,-2.1685,-2.2002,-2.2204,-2.2331,-2.2352,-2.2352,-2.2352,-2.2352,-2.2352,-2.2352,-2.2352,-2.2352,-2.2352,-2.2352,-2.2352,-2.2352,-2.2352,-2.2352,-2.2352,-2.2352,-2.2352,-2.2352,-2.2352,-2.2352,-2.2352,-2.2352,-2.2352,-2.2352,-2.2352,-2.2352,-2.2363,-2.2752,-2.2974,-0.1015,0.0,0.0,0.0,0.0,0.0,0.0,0.0,0.0,0.0,0.0,0.0,0.0,0.0,0.0,0.0,0.0,0.0,0.0,0.0,0.0,0.0,0.0,0.0,0.0,0.0,0.0,0.0,-0.2287,-0.4038,-0.4797,-0.7232,-1.005,-1.3315,-1.2708,-1.3012,-1.4528,-1.7045,-1.8256,-1.8332,-1.9098,-1.9022,-1.8332,-1.9098,-1.9613,-1.9846,-2.0089,-2.039,-2.0613,-2.0776,-2.079,-2.079,-2.079,-2.079,-2.079,-2.079,-2.079,-2.079,-2.079,-2.079,-2.079,-2.079,-2.079,-2.079,-2.079,-2.079,-2.079,-2.079,-2.079,-2.079,-2.079,-2.079,-2.079,-2.079,-2.079,-2.079,-2.079,-2.0979,-2.1294,-2.1537,-2.1759,-2.2076,-2.231,-2.2352,-2.2352,-2.2352,-2.2352,-2.2352,-2.2352,-2.2352,-2.2352,-2.2352,-2.2352,-2.2352,-2.2352,-2.2352,-2.2352,-2.2352,-2.2352,-2.2352,-2.2352,-2.2352,-2.2352,-2.2352,-2.2352,-2.2352,-2.2352,-2.2352,-2.2352,-2.2363,-2.2699,-2.2921,0.0,-0.0303,0.0,0.0,0.0,0.0,0.0,0.0,0.0,0.0,0.0,0.0,0.0,0.0,0.0,0.0,0.0,0.0,0.0,0.0,0.0,0.0,0.0,0.0,0.0,0.0,0.0,0.0,-0.0229,-0.1678,-0.4721,-0.5102,-0.67,-0.9974,-0.7156,-0.8449,-1.4528,-1.4839,-1.4915,-1.4983,-1.7954,-1.7878,-1.5067,-1.8029,-1.9613,-1.9846,-2.0089,-2.039,-2.0613,-2.0776,-2.079,-2.079,-2.079,-2.079,-2.079,-2.079,-2.079,-2.079,-2.079,-2.079,-2.079,-2.079,-2.079,-2.079,-2.079,-2.079,-2.079,-2.079,-2.079,-2.079,-2.079,-2.079,-2.079,-2.079,-2.079,-2.079,-2.079,-2.0979,-2.1294,-2.1537,-2.1759,-2.2076,-2.231,-2.2352,-2.2352,-2.2352,-2.2352,-2.2352,-2.2352,-2.2352,-2.2352,-2.2352,-2.2352,-2.2352,-2.2352,-2.2352,-2.2352,-2.2352,-2.2352,-2.2352,-2.2352,-2.2352,-2.2352,-2.2352,-2.2352,-2.2352,-2.2352,-2.2352,-2.2352,-2.2363,-2.253,-2.2674,0.3184,0.3,0.2427,0.2406,0.1181,0.0,0.0,0.0,0.0,0.0,0.0,0.0,0.0,0.0,0.0,0.0,0.0,0.0,0.0,0.0,0.0,0.0,0.0,0.0,0.0,0.0,0.0,0.0,0.0,-0.0534,-0.1755,-0.183,-0.2363,-0.3659,-0.4419,-0.6015,-0.8525,-1.05,-1.1569,-1.1569,-1.2784,-1.377,-1.4604,-1.5825,-1.7538,-1.9635,-2.0026,-2.0237,0.0,-2.0712,-2.079,-2.079,-2.079,-2.079,-2.079,-2.079,-2.079,-2.079,-2.079,-2.079,-2.079,-2.079,-2.079,-2.079,-2.079,-2.079,-2.079,-2.079,-2.079,-2.079,-2.079,-2.079,-2.079,-2.079,-2.079,-2.079,-2.079,-2.0864,-2.099,-2.1315,-2.1547,-2.178,-2.2087,-2.2257,-2.2352,-2.2352,-2.2352,-2.2352,-2.2352,-2.2352,-2.2352,-2.2352,-2.2352,-2.2352,-2.2352,-2.2352,-2.2352,-2.2352,-2.2352,-2.2352,-2.2352,-2.2352,-2.2352,-2.2352,-2.2352,-2.2352,-2.2352,-2.2352,-2.2352,-2.2363,-2.2509,-2.2664,0.609,0.5821,0.5079,0.5067,0.3699,0.2152,0.1403,0.1168,0.0914,0.0156,0.0,0.0,0.0,0.0,0.0,0.0,0.0,0.0,0.0,0.0,0.0,0.0,0.0,0.0,0.0,0.0,0.0,0.0,0.0,0.0,0.0,0.0,0.0,0.0,-0.2135,-0.381,-0.4873,-0.708,-0.8145,-0.8221,-0.9214,-1.0354,-1.1563,-1.3618,-1.5825,-1.7973,-1.9435,-2.0121,-2.0216,-2.0596,-2.0727,-2.079,-2.079,-2.079,-2.079,-2.079,-2.079,-2.079,-2.079,-2.079,-2.079,-2.079,-2.079,-2.079,-2.079,-2.079,-2.079,-2.079,-2.079,-2.079,-2.079,-2.079,-2.079,-2.079,-2.079,-2.079,-2.079,-2.079,-2.0864,-2.1095,-2.1421,-2.1653,-2.196,-2.2193,-2.2352,-2.2352,-2.2352,-2.2352,-2.2352,-2.2352,-2.2352,-2.2352,-2.2352,-2.2352,-2.2352,-2.2352,-2.2352,-2.2352,-2.2352,-2.2352,-2.2352,-2.2352,-2.2352,-2.2352,-2.2352,-2.2352,-2.2352,-2.2352,-2.2352,-2.2352,-2.2435,-2.2636,0.7356,0.7617,0.7626,0.7641,0.7503,0.6762,0.4449,0.3682,0.2835,0.0519,0.0,0.0,0.0,0.0,0.0,0.0,0.0,0.0,0.0,0.0,0.0,0.0,0.0,0.0,0.0,0.0,0.0,0.0,0.0,0.0,0.0,0.0,0.0,0.0,0.0,-0.1526,-0.4797,-0.4797,-0.4797,-0.4873,-0.8069,-0.7921,-0.5102,-1.1563,-1.4528,-1.4696,-1.8264,-1.9895,-2.0205,-2.0506,-2.066,-2.079,-2.079,-2.079,-2.079,-2.079,-2.079,-2.079,-2.079,-2.079,-2.079,-2.079,-2.079,-2.079,-2.079,-2.079,-2.079,-2.079,-2.079,-2.079,-2.079,-2.079,-2.079,-2.079,-2.079,-2.079,-2.079,-2.079,-2.0864,-2.1095,-2.1421,-2.1653,-2.196,-2.2193,-2.2352,-2.2352,-2.2352,-2.2352,-2.2352,-2.2352,-2.2352,-2.2352,-2.2352,-2.2352,-2.2352,-2.2352,-2.2352,-2.2352,-2.2352,-2.2352,-2.2352,-2.2352,-2.2352,-2.2352,-2.2352,-2.2352,-2.2352,-2.2352,-2.2352,-2.2352,-2.2352,-2.2393,1.146,1.1096,1.0298,1.0334,0.8924,0.722,0.6064,0.4745,0.3431,0.2192,0.0886,0.0,0.0,0.0,0.0,0.0,0.0,0.0,0.0,0.0,0.0,0.0,0.0,0.0,0.0,0.0,0.0,0.0,0.0,0.0,0.0,0.0,0.0,0.0,0.0,-0.0458,-0.1449,-0.1449,-0.1449,-0.1449,-0.244,-0.3581,-0.4949,-0.6852,-0.8981,-1.1348,-1.4871,-1.6531,-1.695,-1.9545,-2.066,-2.079,-2.079,-2.079,-2.079,-2.079,-2.079,-2.079,-2.079,-2.079,-2.079,-2.079,-2.079,-2.079,-2.079,-2.079,-2.079,-2.079,-2.079,-2.079,-2.079,-2.079,-2.079,-2.079,-2.079,-2.079,-2.079,-2.079,-2.0811,-2.0874,-2.1304,-2.16,-2.1664,-2.2087,-2.2352,-2.2352,-2.2352,-2.2352,-2.2352,-2.2352,-2.2352,-2.2352,-2.2352,-2.2352,-2.2352,-2.2352,-2.2352,-2.2352,-2.2352,-2.2352,-2.2352,-2.2352,-2.2352,-2.2352,-2.2352,-2.2352,-2.2352,-2.2352,-2.2352,-2.2352,-2.2352,-2.2395,1.3979,1.3674,1.3006,1.2998,1.1738,1.0078,0.852,0.7218,0.5891,0.4239,0.2998,0.2027,0.1248,0.1076,0.0832,0.0141,0.0,0.0,0.0,0.0,0.0,0.0,0.0,0.0,0.0,0.0,0.0,0.0,0.0,0.0,0.0,0.0,0.0,0.0,0.0,0.0,0.0,0.0,0.0,0.0,0.0,-0.0992,-0.2973,-0.4264,-0.5939,-0.7997,-1.1428,-1.3778,-1.5345,-1.7582,-1.9387,-2.0744,-2.0748,-2.079,-2.079,-2.079,-2.079,-2.079,-2.079,-2.079,-2.079,-2.079,-2.079,-2.079,-2.079,-2.079,-2.079,-2.079,-2.079,-2.079,-2.079,-2.079,-2.079,-2.079,-2.079,-2.079,-2.079,-2.079,-2.079,-2.079,-2.1095,-2.1473,-2.1568,-2.197,-2.2246,-2.2342,-2.2352,-2.2352,-2.2352,-2.2352,-2.2352,-2.2352,-2.2352,-2.2352,-2.2352,-2.2352,-2.2352,-2.2352,-2.2352,-2.2352,-2.2352,-2.2352,-2.2352,-2.2352,-2.2352,-2.2352,-2.2352,-2.2352,-2.2352,-2.2352,-2.2352,-2.2352,1.5138,1.5329,1.5361,1.5361,1.5154,1.429,1.1406,1.0428,0.9334,0.6497,0.575,0.5026,0.308,0.2713,0.2123,0.0294,0.0,0.0,0.0,0.0,0.0,0.0,0.0,0.0,0.0,0.0,0.0,0.0,0.0,0.0,0.0,0.0,0.0,0.0,0.0,0.0,0.0,0.0,0.0,0.0,0.0,0.0,-0.0076,-0.3048,-0.4419,-0.4569,-0.784,-1.111,-1.4109,-1.4955,-1.7197,-2.0214,-2.0594,-2.0769,-2.079,-2.079,-2.079,-2.079,-2.079,-2.079,-2.079,-2.079,-2.079,-2.079,-2.079,-2.079,-2.079,-2.079,-2.079,-2.079,-2.079,-2.079,-2.079,-2.079,-2.079,-2.079,-2.079,-2.079,-2.079,-2.079,-2.0979,-2.1294,-2.1516,-2.1748,-2.2066,-2.2289,-2.2342,-2.2352,-2.2352,-2.2352,-2.2352,-2.2352,-2.2352,-2.2352,-2.2352,-2.2352,-2.2352,-2.2352,-2.2352,-2.2352,-2.2352,-2.2352,-2.2352,-2.2352,-2.2352,-2.2352,-2.2352,-2.2352,-2.2352,-2.2352,-2.2352,-2.2352,1.4816,1.5027,1.5361,1.5361,1.5319,1.4864,1.3278,1.1613,0.9944,0.8405,0.6795,0.5036,0.3072,0.2719,0.2121,0.0316,0.0,0.0,0.0,0.0,0.0,0.0,0.0,0.0,0.0,0.0,0.0,0.0,0.0,0.0,0.0,0.0,0.0,0.0,0.0,0.0,0.0,0.0,0.0,0.0,0.0,0.0,0.0,-0.0687,-0.1068,-0.1221,-0.4495,-0.644,-0.7753,-1.2893,-1.5739,-1.7075,-1.9606,-2.0712,-2.079,-2.079,-2.079,-2.079,-2.079,-2.079,-2.079,-2.079,-2.079,-2.079,-2.079,-2.079,-2.079,-2.079,-2.079,-2.079,-2.079,-2.079,-2.079,-2.079,-2.079,-2.079,-2.079,-2.079,-2.079,-2.079,-2.0979,-2.1241,-2.1294,-2.1642,-2.2013,-2.2066,-2.2236,-2.2352,-2.2352,-2.2352,-2.2352,-2.2352,-2.2352,-2.2352,-2.2352,-2.2352,-2.2352,-2.2352,-2.2352,-2.2352,-2.2352,-2.2352,-2.2352,-2.2352,-2.2352,-2.2352,-2.2352,-2.2352,-2.2352,-2.2352,-2.2352,-2.2352,1.4974,1.5181,1.5361,1.5361,1.5361,1.5117,1.4118,1.2891,1.1688,1.0736,0.9507,0.7733,0.4781,0.5337,0.4907,0.0702,0.1079,0.1485,0.0185,0.0,0.0,0.0,0.0,0.0,0.0,0.0,0.0,0.0,0.0,0.0,0.0,0.0,0.0,0.0,0.0,0.0,0.0,0.0,0.0,0.0,0.0,0.0,0.0,0.0,0.0,-0.0076,-0.1831,-0.3518,-0.5305,-0.8891,-1.1392,-1.3414,-1.6916,-1.8337,-1.8611,-2.0182,-2.079,-2.079,-2.079,-2.079,-2.079,-2.079,-2.079,-2.079,-2.079,-2.079,-2.079,-2.079,-2.079,-2.079,-2.079,-2.079,-2.079,-2.079,-2.079,-2.079,-2.079,-2.079,-2.079,-2.079,-2.0895,-2.1011,-2.1209,-2.1421,-2.1653,-2.196,-2.2108,-2.2225,-2.2342,-2.2257,-2.2225,-2.2342,-2.2352,-2.2352,-2.2352,-2.2352,-2.2352,-2.2352,-2.2352,-2.2352,-2.2352,-2.2352,-2.2352,-2.2352,-2.2352,-2.2352,-2.2352,-2.2352,-2.2352,-2.2352,-2.2352,-2.2352,1.5276,1.5361,1.5361,1.5361,1.5361,1.5181,1.4411,1.4002,1.3505,1.2779,1.2364,1.0992,0.734,0.8613,0.8264,0.2395,0.2959,0.3323,0.1009,0.0324,0.0,0.0,0.0,0.0,0.0,0.0,0.0,0.0,0.0,0.0,0.0,0.0,0.0,0.0,0.0,0.0,0.0,0.0,0.0,0.0,0.0,0.0,0.0,0.0,0.0,0.0,0.0,-0.1526,-0.404,-0.4849,-0.6805,-0.9621,-1.3363,-1.4754,-1.5286,-1.8701,-1.9919,-2.0,-2.0618,-2.079,-2.0779,-2.0737,-2.0758,-2.079,-2.079,-2.079,-2.079,-2.079,-2.079,-2.079,-2.079,-2.079,-2.079,-2.079,-2.079,-2.079,-2.079,-2.079,-2.079,-2.079,-2.079,-2.0853,-2.1135,-2.1116,-2.1357,-2.1738,-2.1833,-2.2023,-2.2257,-2.2087,-2.2013,-2.2214,-2.2236,-2.2246,-2.2289,-2.2289,-2.231,-2.2352,-2.2352,-2.2352,-2.2352,-2.2352,-2.2352,-2.2352,-2.2352,-2.2352,-2.2352,-2.2352,-2.2352,-2.2352,-2.2352,-2.2352,1.5181,1.5361,1.5361,1.5361,1.5361,1.5234,1.4678,1.4306,1.3979,1.3537,1.322,1.2416,1.0399,1.0331,0.9865,0.7615,0.5478,0.3964,0.3626,0.1477,0.0,0.0,0.0,0.0,0.0,0.0,0.0,0.0,0.0,0.0,0.0,0.0,0.0,0.0,0.0,0.0,0.0,0.0,0.0,0.0,0.0,0.0,0.0,0.0,0.0,0.0,0.0,-0.0229,-0.0839,-0.374,-0.53,-0.6204,-0.9559,-1.0959,-1.1628,-1.5119,-1.639,-1.6807,-1.9828,-2.079,-2.0758,-2.0628,-2.0702,-2.079,-2.079,-2.079,-2.079,-2.079,-2.079,-2.079,-2.079,-2.079,-2.079,-2.079,-2.079,-2.079,-2.079,-2.079,-2.079,-2.079,-2.079,-2.0801,-2.0832,-2.1011,-2.1251,-2.1304,-2.1494,-2.1706,-2.2013,-2.1759,-2.1632,-2.1674,-2.1674,-2.1748,-2.2023,-2.2045,-2.213,-2.2342,-2.2352,-2.2352,-2.2352,-2.2352,-2.2352,-2.2352,-2.2352,-2.2352,-2.2352,-2.2352,-2.2352,-2.2352,-2.2352,-2.2352,1.4921,1.5266,1.5361,1.5361,1.5361,1.5308,1.5048,1.4721,1.4348,1.4203,1.397,1.3161,1.1248,1.234,1.2421,0.893,0.8591,0.8267,0.671,0.5598,0.4238,0.2496,0.2389,0.1842,0.0142,0.0,0.0,0.0,0.0426,0.0498,0.0,0.0429,0.0432,0.0,0.0,0.0,0.0,0.0,0.0,0.0,0.0,0.0,0.0,0.0,0.0,0.0,0.0458,0.0382,-0.0076,-0.1068,-0.153,-0.1999,-0.5875,-0.7152,-0.7347,-1.1306,-1.3973,-1.5722,-1.7243,-1.7429,-1.7013,-1.6925,-1.8631,-2.067,-2.067,-2.0765,-2.079,-2.079,-2.079,-2.079,-2.079,-2.079,-2.079,-2.079,-2.079,-2.079,-2.079,-2.079,-2.079,-2.079,-2.079,-2.079,-2.079,-2.0874,-2.099,-2.1209,-2.1315,-2.1421,-2.1516,-2.1442,-2.1431,-2.1568,-2.1579,-2.1621,-2.1716,-2.1727,-2.1769,-2.1875,-2.197,-2.197,-2.197,-2.197,-2.197,-2.197,-2.197,-2.1938,-2.2151,-2.2151,-2.2225,-2.2352,-2.2352,-2.2352,1.4552,1.4911,1.5138,1.5319,1.5361,1.5361,1.5361,1.5038,1.4795,1.4795,1.47,1.4115,1.2625,1.4302,1.4734,1.131,1.169,1.1862,1.0164,0.92,0.7893,0.5742,0.5527,0.4724,0.2549,0.163,0.1275,0.1701,0.2267,0.1985,0.0638,0.1135,0.114,0.0288,0.0289,0.0218,0.0,0.0222,0.0375,0.0608,0.0608,0.0609,0.0611,0.0611,0.0611,0.0687,0.1298,0.1145,0.0687,0.1298,0.1526,0.1223,-0.2002,-0.2935,-0.2861,-0.7034,-1.0037,-1.2143,-1.2033,-1.2196,-1.2378,-1.2378,-1.5168,-1.8593,-1.8593,-1.9267,-2.0059,-2.0362,-2.0373,-2.0474,-2.0698,-2.079,-2.079,-2.079,-2.079,-2.079,-2.079,-2.079,-2.079,-2.079,-2.079,-2.079,-2.079,-2.079,-2.0853,-2.1022,-2.1053,-2.1053,-2.1053,-2.1053,-2.1209,-2.1378,-2.1399,-2.1421,-2.1484,-2.1494,-2.1516,-2.1579,-2.1579,-2.1579,-2.1579,-2.1579,-2.1579,-2.1579,-2.1579,-2.1664,-2.1822,-2.1822,-2.2002,-2.2172,-2.2172,-2.2204,1.3874,1.4242,1.4411,1.5192,1.5361,1.5361,1.5361,1.534,1.5319,1.5319,1.5489,1.5651,1.5688,1.6011,1.6518,1.7106,1.4519,1.2841,1.4069,1.0847,0.8612,0.9323,0.8877,0.8582,0.8689,0.6014,0.488,0.6364,0.6505,0.5236,0.2341,0.227,0.1915,0.1136,0.1078,0.0723,0.0,0.0732,0.1483,0.2251,0.2251,0.2265,0.2366,0.2366,0.2366,0.2366,0.2442,0.2442,0.2366,0.2442,0.2442,0.2442,0.2215,0.2139,0.1759,-0.1777,-0.3258,-0.333,-0.3063,-0.5143,-0.7899,-0.7899,-1.0307,-1.3243,-1.3243,-1.5388,-1.8045,-1.9048,-1.9337,-1.9547,-2.0565,-2.079,-2.079,-2.079,-2.079,-2.079,-2.079,-2.079,-2.079,-2.079,-2.079,-2.079,-2.079,-2.079,-2.079,-2.0801,-2.0811,-2.0811,-2.0811,-2.0811,-2.0811,-2.0822,-2.0822,-2.0916,-2.123,-2.1241,-2.1336,-2.1568,-2.1579,-2.1579,-2.1579,-2.1579,-2.1579,-2.1579,-2.1579,-2.159,-2.16,-2.16,-2.16,-2.1621,-2.1621,-2.1727,1.4274,1.483,1.5249,1.6056,1.6249,1.6295,1.6573,1.6619,1.6619,1.6619,1.694,1.7261,1.7291,1.7645,1.8029,1.8368,1.7409,1.6718,1.7259,1.6141,1.4613,1.3004,1.2785,1.2096,1.045,1.1012,1.1707,1.2263,1.1104,0.89,0.5377,0.566,0.4744,0.1986,0.1924,0.1786,0.15,0.1807,0.204,0.2343,0.2361,0.2385,0.2414,0.2414,0.2425,0.252,0.3054,0.2978,0.2596,0.3054,0.3284,0.3207,0.2749,0.2825,0.3054,0.1303,-0.069,-0.1991,0.1146,-0.0229,-0.3446,-0.3446,-0.617,-0.9419,-0.9419,-1.1818,-1.4664,-1.5042,-1.6653,-1.8338,-1.8732,-1.8831,-1.8949,-1.9647,-1.9847,-1.9958,-2.0678,-2.079,-2.079,-2.079,-2.079,-2.079,-2.079,-2.079,-2.079,-2.079,-1.8906,-1.7527,-1.7527,-1.557,-1.4182,-1.4182,-1.4182,-1.4203,-1.435,-1.435,-1.528,-1.765,-1.5678,-1.6418,-2.0879,-1.8972,-1.889,-2.1043,-2.1043,-2.1199,-2.1357,-2.1357,-2.1431,-2.1579,-2.1579,-2.1621,1.3801,1.4486,1.5088,1.5905,1.6303,1.6584,1.6998,1.7081,1.7164,1.7247,1.7617,1.7853,1.7853,1.8293,1.8777,1.9034,1.8914,1.9038,1.9426,1.9183,1.8331,1.6684,1.6419,1.5648,1.3936,1.5946,1.6956,1.6004,1.4891,1.2692,0.9123,0.8603,0.7074,0.4322,0.3261,0.2623,0.2341,0.2573,0.2726,0.2727,0.298,0.3085,0.311,0.3124,0.3143,0.3243,0.3772,0.3781,0.3338,0.3871,0.4108,0.4047,0.3513,0.3665,0.4047,0.3513,0.1907,0.0533,0.374,0.3127,0.0838,0.0838,-0.1837,-0.5003,-0.5003,-0.7427,-1.0207,-1.0563,-1.2222,-1.4197,-1.5669,-1.6078,-1.6505,-1.8307,-1.898,-1.9337,-2.0037,-2.0398,-2.066,-2.0734,-2.0755,-2.0776,-2.0779,-2.079,-2.079,-2.079,-1.8916,-1.6626,-1.4263,-1.1905,-1.0521,-1.0521,-1.0521,-1.0521,-1.0521,-1.0521,-1.1498,-1.3857,-1.1824,-1.2556,-1.7113,-1.5164,-1.5002,-1.7284,-1.7356,-1.7427,-1.7559,-1.7559,-1.7703,-1.7835,-1.7835,-1.7871,1.2488,1.3107,1.3802,1.4772,1.5459,1.6063,1.6608,1.6726,1.6867,1.7246,1.7462,1.7531,1.7531,1.7957,1.8553,1.9312,1.9165,1.9349,2.0626,1.9749,1.9264,2.0124,1.9543,1.9177,1.9437,2.051,2.0062,1.7409,1.7563,1.6522,1.3509,1.0804,0.8976,0.82,0.5236,0.333,0.2554,0.3188,0.3543,0.3543,0.4305,0.4691,0.4694,0.468,0.4635,0.4638,0.4638,0.4743,0.4871,0.4871,0.4831,0.4881,0.4884,0.4884,0.4884,0.4884,0.4884,0.4884,0.4884,0.4887,0.4887,0.4887,0.2748,0.0152,0.0152,-0.2134,-0.4963,-0.5942,-0.6271,-0.7296,-1.153,-1.2587,-1.3379,-1.6619,-1.8039,-1.8665,-1.8675,-1.9312,-1.9933,-2.0141,-2.0262,-2.0256,-2.0404,-2.0445,-2.0456,-2.0456,-2.0445,-1.7996,-1.1161,-1.0266,-1.0272,-1.0195,-1.0195,-1.0195,-1.0195,-1.0195,-1.0195,-1.0358,-1.0277,-1.0277,-1.0521,-1.0358,-1.0358,-1.0521,-1.0521,-1.0521,-1.0521,-1.0521,-1.0521,-1.0521,-1.0521,-1.058,1.3004,1.3195,1.3672,1.5614,1.5857,1.5984,1.7253,1.7578,1.7668,1.7951,1.8343,1.8616,1.8616,1.915,1.9597,1.9846,1.9954,2.0072,2.0453,2.0381,2.0356,2.0627,2.0433,2.0341,2.0418,2.0874,2.0846,2.0129,2.0444,1.9446,1.6591,1.5763,1.4327,1.2134,0.9117,0.7498,0.729,0.5239,0.418,0.418,0.4408,0.4558,0.4561,0.4619,0.4669,0.4638,0.4638,0.472,0.4735,0.4735,0.4746,0.4765,0.4807,0.4823,0.4818,0.4775,0.4786,0.4823,0.4823,0.4852,0.4887,0.4887,0.4276,0.3511,0.3511,0.122,-0.1372,-0.1683,-0.3444,-0.5588,-0.6758,-0.7072,-0.7472,-0.9161,-0.9725,-1.0135,-1.0849,-1.118,-1.1349,-1.1464,-1.1943,-1.2278,-1.2317,-1.2892,-1.3367,-1.3367,-1.2307,-1.0175,-0.6369,-0.5854,-0.5097,-0.3103,-0.2861,-0.2861,-0.2861,-0.2861,-0.4003,-0.6531,-0.433,-0.5144,-1.0277,-0.8077,-0.7914,-1.044,-1.0521,-1.0521,-1.0521,-1.0521,-1.0521,-1.0521,-1.0521,-1.0537,1.2276,1.2395,1.2829,1.4364,1.4609,1.4866,1.6427,1.685,1.7154,1.7948,1.8371,1.8618,1.8868,1.929,1.9646,1.9778,2.0042,2.0266,2.0371,2.0543,2.0701,2.0755,2.0768,2.0768,2.0768,2.0926,2.1031,2.1031,2.136,2.085,1.925,1.8054,1.6737,1.5132,1.2292,1.0868,1.0868,0.7904,0.6442,0.6371,0.5101,0.4463,0.4466,0.4571,0.4603,0.4565,0.4565,0.4578,0.4675,0.4675,0.4688,0.4641,0.4749,0.4762,0.4759,0.4725,0.4733,0.4762,0.4762,0.4786,0.4812,0.4812,0.4831,0.4849,0.4849,0.3573,0.206,0.206,0.0686,-0.1143,-0.2438,-0.2818,-0.3356,-0.5297,-0.5997,-0.6391,-0.7052,-0.7451,-0.777,-0.7811,-0.821,-0.8536,-0.8655,-0.911,-0.8424,-0.5462,-0.4185,-0.2998,-0.1501,-0.135,-0.072,0.0887,0.1049,0.0887,0.0484,0.0162,-0.0894,-0.2922,-0.1142,-0.1799,-0.596,-0.4167,-0.4003,-0.6042,-0.6123,-0.6123,-0.6123,-0.6123,-0.6123,-0.6123,-0.6123,-0.6108,1.0746,1.1028,1.1541,1.2049,1.2512,1.3212,0.0,1.5143,1.5721,1.7181,1.7539,1.7697,1.8222,1.8586,1.8941,1.923,1.9673,2.0015,2.0266,2.0358,2.0477,2.065,2.0767,2.0793,2.0793,2.0755,2.0768,2.0768,2.1018,2.1176,2.1215,1.8906,1.7611,1.7643,1.5038,1.3684,1.3684,1.0912,0.9583,0.9524,0.678,0.5304,0.4959,0.4959,0.4817,0.4463,0.4463,0.4563,0.4614,0.4614,0.4643,0.462,0.4625,0.4622,0.4617,0.4617,0.4622,0.4701,0.4701,0.4633,0.4638,0.4638,0.4746,0.4863,0.4863,0.4826,0.4868,0.4876,0.4876,0.419,0.1296,0.0534,-0.0152,-0.3048,-0.4338,-0.4792,-0.4792,-0.5476,-0.6025,-0.6167,-0.6258,-0.6355,-0.6658,-0.6754,-0.4622,0.1786,0.2818,0.2758,0.2679,0.2682,0.2605,0.2526,0.253,0.2215,0.1424,0.0719,0.0321,0.0321,0.0243,0.0245,0.0163,0.0163,0.0082,0.0,0.0,0.0,0.0,0.0,0.0,0.0,0.0,0.0,0.0,0.0,0.0,0.0,0.0,0.0,0.0,1.3802,1.4052,1.4893,1.5236,1.5532,1.6063,1.6983,1.7745,1.8146,1.8974,1.9585,1.9625,2.0108,2.0332,2.0174,2.0345,2.0477,2.0477,2.0701,2.0768,2.0768,2.0834,2.0966,2.1136,2.0674,2.0536,2.0884,1.7956,1.6353,1.6353,1.346,1.211,1.2449,1.1686,1.0284,0.8205,0.8205,0.6866,0.4463,0.4463,0.4471,0.4482,0.4482,0.4487,0.4502,0.4622,0.4611,0.4497,0.4497,0.4598,0.464,0.464,0.4672,0.4638,0.4638,0.472,0.4728,0.4728,0.4735,0.4754,0.4802,0.489,0.475,0.4112,0.3892,0.374,0.3129,0.2822,0.2746,0.2746,0.2594,0.2442,0.2448,0.1913,0.1455,0.1459,0.0929,0.1397,0.3992,0.4376,0.4152,0.3537,0.3488,0.3197,0.2573,0.2517,0.2452,0.2294,0.214,0.2063,0.2063,0.2067,0.1672,0.0956,0.0956,0.0637,0.0,0.0,0.0,0.0,0.0,0.0,0.0,0.0,0.0,0.0,0.0,0.0,0.0,0.0,0.0,0.0,0.0,0.0,0.0,0.0,1.4301,1.5024,0.0,1.6864,1.7353,1.8341,1.9099,1.923,1.9625,1.991,1.9778,2.0015,2.0187,2.0187,2.045,2.0622,2.0622,2.0754,2.0834,2.0992,2.0992,2.1058,2.1268,1.9876,1.915,1.915,1.6301,1.4979,1.5147,1.3577,1.2179,1.0808,0.95,0.7977,0.6456,0.5002,0.4395,0.4494,0.4494,0.444,0.4461,0.4505,0.4406,0.4382,0.4414,0.4513,0.4542,0.4569,0.4598,0.4549,0.4549,0.4643,0.4667,0.4667,0.4688,0.4643,0.4746,0.4754,0.4762,0.4791,0.4799,0.4807,0.4836,0.4844,0.4852,0.4881,0.4887,0.4887,0.4887,0.4505,0.4276,0.4276,0.3913,0.3922,0.4739,0.4887,0.4734,0.4352,0.4299,0.4064,0.3635,0.3614,0.3481,0.3058,0.3088,0.2962,0.2587,0.2523,0.2294,0.1898,0.1819,0.1657,0.1176,0.0784,0.0547,0.0544,0.0155,0.0,0.0,0.0759,0.105,0.0,0.0,0.0,0.0,0.0,0.0,0.0,0.0,0.0,0.0,0.0,0.0,0.0,0.0,0.0,1.6337,1.751,1.8473,1.8868,1.9073,1.9244,1.9309,1.9686,1.9897,1.9897,2.0147,2.0319,2.0319,2.0582,2.0754,2.0754,2.0806,2.0768,2.0768,2.1005,2.1136,2.1136,1.8946,1.7859,1.7847,1.5408,0.0,1.3438,1.1205,0.9918,0.9172,0.6333,0.5142,0.5195,0.4644,0.4463,0.4422,0.4333,0.4296,0.4302,0.4417,0.4436,0.4441,0.4416,0.444,0.4448,0.4448,0.4558,0.4606,0.4606,0.464,0.0,0.469,0.4693,0.4696,0.4635,0.4638,0.4722,0.477,0.4858,0.4794,0.4844,0.4855,0.4855,0.4855,0.4863,0.4871,0.4871,0.4841,0.4812,0.4714,0.4711,0.4791,0.4802,0.4823,0.4804,0.4646,0.4818,0.4546,0.3861,0.3833,0.3585,0.3018,0.2957,0.2884,0.2722,0.2722,0.2546,0.2277,0.159,0.1282,0.1351,0.0674,0.0375,0.0451,0.1563,0.2092,0.0,0.0,0.0,0.0,0.0,0.0,0.0,0.0,0.0,0.0,0.0,0.0,0.0,0.0,0.0,0.0,1.6033,1.7418,1.8222,1.8367,1.8486,1.875,1.9191,1.952,1.952,1.9857,2.0029,2.0029,2.0292,2.045,2.045,2.0701,0.0,0.0,0.0,2.0821,2.0821,2.0524,2.0471,2.0727,2.0397,1.8981,1.6621,1.6284,1.4654,1.2018,0.924,0.8096,0.7907,0.5325,0.4309,0.4315,0.4302,0.4296,0.4296,0.4304,0.4307,0.4307,0.4312,0.0,0.0,0.4463,0.45,0.4474,0.4474,0.4479,0.4495,0.4619,0.4632,0.4645,0.4698,0.4638,0.4638,0.472,0.4722,0.4722,0.4656,0.4656,0.4656,0.4656,0.4773,0.4885,0.4885,0.4677,0.4468,0.4369,0.4354,0.4375,0.4494,0.459,0.4667,0.4633,0.4818,0.0,0.4716,0.4634,0.4554,0.4584,0.4504,0.4137,0.3431,0.3358,0.2944,0.2009,0.178,0.172,0.1828,0.1737,0.1819,0.1928,0.1829,0.1787,0.0,0.0,0.0,0.0,0.0,0.0,0.0,0.0,0.0,0.0,0.0,0.0,0.0,0.0,0.0,0.0,1.5103,1.6128,1.6218,1.685,1.7577,1.8328,1.8789,1.9046,1.9204,1.948,1.9725,1.9725,1.9989,2.016,2.016,2.0279,2.0411,2.0569,2.0582,2.0661,2.0768,2.0768,2.0834,2.0952,2.0952,2.0366,1.922,1.7619,1.6171,1.4843,1.2063,1.0854,1.0674,0.7801,0.6692,0.6928,0.0,0.0,0.0,0.0,0.562,0.4252,0.4283,0.4312,0.4333,0.4333,0.4348,0.4367,0.4367,0.4367,0.4372,0.4395,0.4497,0.4529,0.4555,0.4584,0.4544,0.4651,0.4659,0.4669,0.463,0.4638,0.4638,0.4638,0.473,0.0,0.4777,0.4664,0.4549,0.4502,0.4495,0.4502,0.46,0.4645,0.4656,0.4542,0.4641,0.4682,0.4615,0.4628,0.0,0.0,0.0,0.4554,0.4163,0.4163,0.0,0.0,0.0,0.2534,0.2521,0.2078,0.0,0.0,0.2791,0.2743,0.0,0.0,0.0,0.0,0.0,0.0,0.0,0.0,0.0,0.0,0.0,0.0,0.0,0.0,0.0,0.0,1.3802,1.4656,1.4451,1.5335,1.6506,1.767,1.8325,1.8711,1.8829,1.9112,1.929,1.9112,1.9527,1.9738,1.9738,1.9897,2.0081,2.0279,2.0342,2.0385,2.0609,2.0609,2.0609,2.0609,2.0675,2.0714,2.065,1.872,1.784,1.771,1.4843,1.3689,1.3556,1.0661,0.9525,0.9779,1.1527,1.1017,0.9288,0.9288,0.7991,0.6179,0.5536,0.4826,0.4228,0.4244,0.426,0.4273,0.4273,0.4283,0.4296,0.4296,0.4328,0.4428,0.4428,0.4388,0.4429,0.4542,0.4563,0.4587,0.4629,0.4578,0.4591,0.4591,0.4565,0.4592,0.4586,0.4539,0.4555,0.4523,0.4531,0.4547,0.4566,0.4611,0.4542,0.4471,0.4568,0.4604,0.4518,0.456,0.4604,0.4635,0.4607,0.4596,0.4685,0.4568,0.4497,0.4395,0.3729,0.3278,0.0,0.0,0.0,0.0,0.0,0.0,0.0,0.0,0.0,0.0,0.0,0.0,0.0,0.0,0.0,0.0,0.0,0.0,0.0,0.0,0.0,0.0,0.0,0.0,1.3394,1.4267,1.5255,1.6453,1.782,1.8542,1.8348,1.877,1.884,1.8331,1.8802,1.906,1.906,1.9673,2.0051,2.0064,2.0064,2.0064,2.0015,2.0015,2.0015,2.0015,2.0279,2.0411,2.0424,2.0573,2.0639,2.0511,1.7775,1.66,1.6352,1.349,1.2322,1.229,1.1828,1.1635,1.1572,1.1572,1.151,1.1103,0.8666,0.622,0.4118,0.4242,0.4298,0.428,0.428,0.4252,0.4296,0.4296,0.4299,0.4299,0.4299,0.4302,0.4302,0.4304,0.4417,0.446,0.446,0.4502,0.4468,0.4468,0.4382,0.427,0.4287,0.4268,0.4231,0.4115,0.4084,0.0,0.4263,0.4422,0.4481,0.4458,0.4568,0.4635,0.4633,0.4531,0.4518,0.463,0.4531,0.4566,0.4624,0.4395,0.4278,0.4285,0.4001,0.3853,0.385,0.0,0.0,0.0,0.0,0.0,0.0,0.0,0.0,0.0,0.0,0.0,0.0,0.0,0.0,0.0,0.0,0.0,0.0,0.0,0.0,0.0,0.0,0.0,0.0,1.2762,1.4155,1.6265,1.6625,1.6943,1.7549,1.8039,1.8092,1.7669,1.8364,1.8813,1.8813,1.8848,1.9,1.9382,1.9396,1.958,2.0038,2.0051,2.0051,2.0051,2.0143,2.0183,2.0183,2.0226,2.0266,2.0216,1.9312,1.8936,1.8685,1.5833,1.577,1.7457,1.7297,1.604,1.4355,1.4355,1.3237,1.1565,1.0679,0.9821,0.9136,0.9184,0.8024,0.6591,0.6591,0.5461,0.4131,0.4131,0.4187,0.4248,0.4248,0.4306,0.4296,0.4296,0.4312,0.4325,0.4325,0.4341,0.4354,0.4354,0.4291,0.4293,0.4253,0.4248,0.4248,0.4245,0.4197,0.4228,0.4357,0.4415,0.4473,0.4458,0.45,0.4523,0.4523,0.4487,0.4479,0.4521,0.4523,0.4489,0.451,0.4348,0.4252,0.4287,0.4084,0.388,0.3607,0.0,0.0,0.0,0.0,0.0,0.0,0.0,0.0,0.0,0.0,0.0,0.0,0.0,0.0,0.0,0.0,0.0,0.0,0.0,0.0,0.0,0.0,0.0,0.0,0.0,0.0,1.5773,1.611,0.0,1.6751,1.7262,1.726,1.65,1.6895,1.7421,1.8008,1.7739,1.7996,1.896,1.9095,1.9397,1.9791,1.996,2.0069,2.0178,2.0044,2.0091,2.0137,2.006,2.0051,2.0051,2.0051,2.0051,1.9888,1.7749,1.8013,1.9629,1.9131,1.7771,1.6178,1.6178,1.5053,1.3428,1.2875,1.2687,1.2549,1.1636,0.9628,0.7563,0.742,0.5754,0.3853,0.3892,0.3986,0.4096,0.4096,0.4137,0.4176,0.42,0.4221,0.4309,0.426,0.4281,0.4265,0.4161,0.416,0.4115,0.4094,0.4123,0.4163,0.4137,0.4195,0.4322,0.4383,0.4428,0.4468,0.4502,0.4453,0.4463,0.4463,0.4445,0.4505,0.4505,0.4452,0.4412,0.4391,0.4333,0.4245,0.4193,0.3986,0.3763,0.0,0.0,0.0,0.0,0.0,0.0,0.0,0.0,0.0,0.0,0.0,0.0,0.0,0.0,0.0,0.0,0.0,0.0,0.0,0.0,0.0,0.0,0.0,0.0,0.0,0.0,0.0,1.4924,1.6072,0.0,0.0,0.0,0.0,1.4942,1.453,1.5072,1.6728,1.6416,1.6975,1.8681,1.9107,1.9349,1.9392,1.9764,2.0082,2.0357,2.0121,2.012,2.0378,2.0132,2.002,2.002,2.002,2.002,1.9988,1.9264,1.8984,1.8832,1.7433,1.6864,1.6824,1.6798,1.6798,1.655,1.493,1.4491,1.42,1.1723,0.9399,0.749,0.6921,0.5191,0.0,0.0,0.3652,0.3792,0.3856,0.405,0.4203,0.4267,0.4266,0.426,0.4251,0.4239,0.4189,0.3897,0.3858,0.38,0.3683,0.0,0.3837,0.385,0.406,0.4258,0.4264,0.437,0.4441,0.4449,0.4494,0.4455,0.4455,0.4478,0.4449,0.4449,0.4322,0.4262,0.4274,0.4274,0.4244,0.4181,0.3826,0.0,0.0,0.0,0.0,0.0,0.0,0.0,0.0,0.0,0.0,0.0,0.0,0.0,0.0,0.0,0.0,0.0,0.0,0.0,0.0,0.0,0.0,0.0,0.0,0.0,0.0,1.1318,1.2522,1.4874,1.4413,1.3941,0.0,0.0,0.0,0.0,0.0,0.0,1.5263,1.5056,1.5433,1.6637,1.7256,1.7771,1.828,1.8877,1.9323,1.9694,1.9613,1.9757,2.0113,2.0084,1.9997,1.9997,1.9997,1.9997,1.9912,1.8293,1.7676,1.7635,1.6723,1.5901,1.5295,1.5117,1.5038,1.5011,1.4773,1.4942,1.521,1.453,1.3776,1.2565,0.9431,0.0,0.0,0.0,0.0,0.5538,0.6009,0.6037,0.6058,0.6467,0.5328,0.4126,0.4139,0.4057,0.3889,0.3657,0.3609,0.355,0.3434,0.345,0.0,0.3704,0.3777,0.3948,0.4247,0.4303,0.4357,0.4309,0.433,0.4338,0.4338,0.4328,0.432,0.432,0.429,0.4293,0.4277,0.407,0.4443,0.5532,0.0,0.0,0.0,0.0,0.0,0.0,0.0,0.0,0.0,0.0,0.0,0.0,0.0,0.0,0.0,0.0,0.0,0.0,0.0,0.0,0.0,0.0,0.0,0.0,0.0,0.0,0.0,1.0299,1.176,1.3731,1.3352,1.2975,0.0,0.0,0.0,0.0,0.0,0.0,0.0,0.0,0.0,1.5315,1.5983,1.6637,1.7352,1.7859,1.841,1.9087,1.8975,1.9158,1.952,1.9542,1.9507,1.9478,1.9205,1.9037,1.8878,1.7391,1.6826,1.6723,0.0,0.0,0.0,0.0,1.3185,1.3264,1.3818,1.4341,1.4729,1.4525,0.0,0.0,0.0,0.0,0.0,0.0,0.0,0.6241,0.7274,0.7733,0.8113,0.8548,0.6937,0.5322,0.5514,0.5502,0.4962,0.3548,0.3689,0.3853,0.3186,0.3078,0.0,0.0,0.0,0.3704,0.4069,0.419,0.429,0.4249,0.4281,0.4296,0.4296,0.4273,0.4247,0.429,0.4242,0.4153,0.4102,0.4412,0.4902,0.0,0.0,0.0,0.0,0.0,0.0,0.0,0.0,0.0,0.0,0.0,0.0,0.0,0.0,0.0,0.0,0.0,0.0,0.0,0.0,0.0,0.0,0.0,0.0,0.0,0.0,0.0,0.0,0.0,1.0787,1.2141,0.0,0.0,0.0,0.0,0.0,0.0,0.0,0.0,0.0,0.0,0.0,0.0,0.0,1.5487,1.6065,1.6545,1.7242,1.8187,1.7993,1.8102,1.8499,1.8555,1.8574,1.8531,1.7756,0.0,1.7308,1.622,0.0,0.0,0.0,0.0,0.0,0.0,0.0,0.0,0.0,0.0,0.0,0.0,0.0,0.0,0.0,0.0,0.0,0.0,0.0,0.0,0.0,0.0,0.9966,1.0375,0.8694,0.7174,0.7701,0.7399,0.6292,0.3623,0.3909,0.4148,0.0,0.0,0.0,0.0,0.0,0.0,0.3781,0.4072,0.4244,0.4245,0.4239,0.4273,0.4273,0.4288,0.4359,0.4689,0.4474,0.4391,0.4556,0.5375,0.0,0.0,0.0,0.0,0.0,0.0,0.0,0.0,0.0,0.0,0.0,0.0,0.0,0.0,0.0,0.0,0.0,0.0,0.0,0.0,0.0,0.0,0.0,0.0,0.0,0.0,0.0,0.0,0.0,0.0,0.0,0.0,0.0,0.0,0.0,0.0,0.0,0.0,0.0,0.0,0.0,0.0,0.0,0.0,0.0,0.0,0.0,0.0,0.0,0.0,1.5932,1.6234,1.6637,1.6956,1.7114,1.7036,1.572,1.5444,1.5769,1.3791,0.0,0.0,0.0,0.0,0.0,0.0,0.0,0.0,0.0,0.0,0.0,0.0,0.0,0.0,0.0,0.0,0.0,0.0,0.0,0.0,0.0,0.0,1.0549,1.137,0.9821,0.844,0.9688,0.0,0.0,0.0,0.0,0.0,0.0,0.0,0.0,0.0,0.0,0.0,0.3527,0.3767,0.4012,0.4118,0.4184,0.4285,0.4285,0.4166,0.4871,0.6749,0.6105,0.6403,0.0,0.0,0.0,0.0,0.0,0.0,0.0,0.0,0.0,0.0,0.0,0.0,0.0,0.0,0.0,0.0,0.0,0.0,0.0,0.0,0.0,0.0,0.0,0.0,0.0,0.0,0.0,0.0,0.0,0.0,0.0,0.0,0.0,0.0,0.0,0.0,0.0,0.0,0.0,0.0,0.0,0.0,0.0,0.0,0.0,0.0,0.0,0.0,0.0,0.0,0.0,0.0,0.0,0.0,0.0,0.0,0.0,0.0,1.4424,1.3456,0.0,0.0,0.0,0.0,0.0,0.0,0.0,0.0,0.0,0.0,0.0,0.0,0.0,0.0,0.0,0.0,0.0,0.0,0.0,0.0,0.0,0.0,0.0,0.0,0.0,0.0,0.0,0.0,0.0,0.0,0.0,0.0,0.0,0.0,0.0,0.0,0.0,0.0,0.0,0.0,0.3349,0.3665,0.397,0.4086,0.4217,0.4825,0.6082,0.6168,0.6902,0.8794,0.8287,0.0,0.0,0.0,0.0,0.0,0.0,0.0,0.0,0.0,0.0,0.0,0.0,0.0,0.0,0.0,0.0,0.0,0.0,0.0,0.0,0.0,0.0,0.0,0.0,0.0,0.0,0.0,0.0,0.0,0.0,0.0,0.0,0.0,0.0,0.0,0.0,0.0,0.0,0.0,0.0,0.0,0.0,0.0,0.0,0.0,0.0,0.0,0.0,0.0,0.0,0.0,0.0,0.0,0.0,0.0,0.0,0.0,0.0,0.0,1.2901,1.1486,0.0,0.0,0.0,0.0,0.0,0.0,0.0,0.0,0.0,0.0,0.0,0.0,0.0,0.0,0.0,0.0,0.0,0.0,0.0,0.0,0.0,0.0,0.0,0.0,0.0,0.0,0.0,0.0,0.0,0.0,0.0,0.0,0.0,0.0,0.0,0.0,0.0,0.0,0.0,0.0,0.371,0.417,0.4406,0.4049,0.463,0.5812,0.7805,0.8368,0.9293,1.0833,1.032,0.0,0.0,0.0,0.0,0.0,0.0,0.0,0.0,0.0,0.0,0.0,0.0,0.0,0.0,0.0,0.0,0.0,0.0,0.0,0.0,0.0,0.0,0.0,0.0,0.0,0.0,0.0,0.0,0.0,0.0,0.0,0.0,0.0,0.0,0.0,0.0,0.0,0.0,0.0,0.0,0.0,0.0,0.0,0.0,0.0,0.0,0.0,0.0,0.0,0.0,0.0,0.0,0.0,0.0,0.0,0.0,0.0,0.0,0.0,0.0,0.0,0.0,0.0,0.0,0.0,0.0,0.0,0.0,0.0,0.0,0.0,0.0,0.0,0.0,0.0,0.0,0.0,0.0,0.0,0.0,0.0,0.0,0.0,0.0,0.0,0.0,0.0,0.0,0.0,0.0,0.0,0.0,0.0,0.0,0.0,0.0,0.0,0.0,0.0,0.0,0.0,0.5108,0.5837,0.5853,0.4106,0.6043,0.7573,0.7918,0.9676,1.1422,1.287,0.0,0.0,0.0,0.0,0.0,0.0,0.0,0.0,0.0,0.0,0.0,0.0,0.0,0.0,0.0,0.0,0.0,0.0,0.0,0.0,0.0,0.0,0.0,0.0,0.0,0.0,0.0,0.0,0.0,0.0,0.0,0.0,0.0,0.0,0.0,0.0,0.0,0.0,0.0,0.0,0.0,0.0,0.0,0.0,0.0,0.0,0.0,0.0,0.0,0.0,0.0,0.0,0.0,0.0,0.0,0.0,0.0,0.0,0.0,0.0,0.0,0.0,0.0,0.0,0.0,0.0,0.0,0.0,0.0,0.0,0.0,0.0,0.0,0.0,0.0,0.0,0.0,0.0,0.0,0.0,0.0,0.0,0.0,0.0,0.0,0.0,0.0,0.0,0.0,0.0,0.0,0.0,0.0,0.0,0.0,0.0,0.0,0.0,0.0,0.0,0.0,0.0,0.7248,0.8306,0.8918,0.8296,0.9369,1.0698,1.2047,1.2813,1.3598,1.4585,0.0,0.0,0.0,0.0,0.0,0.0,0.0,0.0,0.0,0.0,0.0,0.0,0.0,0.0,0.0,0.0,0.0,0.0,0.0,0.0,0.0,0.0,0.0,0.0,0.0,0.0,0.0,0.0,0.0,0.0,0.0,0.0,0.0,0.0,0.0,0.0,0.0,0.0,0.0,0.0,0.0,0.0,0.0,0.0,0.0,0.0,0.0,0.0,0.0,0.0,0.0,0.0,0.0,0.0,0.0,0.0,0.0,0.0,0.0,0.0,0.0,0.0,0.0,0.0,0.0,0.0,0.0,0.0,0.0,0.0,0.0,0.0,0.0,0.0,0.0,0.0,0.0,0.0,0.0,0.0,0.0,0.0,0.0,0.0,0.0,0.0,0.0,0.0,0.0,0.0,0.0,0.0,0.0,0.0,0.0,0.0,0.0,0.0,0.0,0.0,0.0,0.0,0.9145,1.0547,1.1408,1.1122,1.2083,1.3382,1.4847,1.5171,1.5297,1.5301,0.0,0.0,0.0,0.0,0.0,0.0,0.0,0.0,0.0,0.0,0.0,0.0,0.0,0.0,0.0,0.0,0.0,0.0,0.0,0.0,0.0,0.0,0.0,0.0,0.0,0.0,0.0,0.0,0.0,0.0,0.0,0.0,0.0,0.0,0.0,0.0,0.0,0.0,0.0,0.0,0.0,0.0,0.0,0.0,0.0,0.0,0.0,0.0,0.0,0.0,0.0,0.0,0.0,0.0,0.0,0.0,0.0,0.0,0.0,0.0,0.0,0.0,0.0,0.0,0.0,0.0,0.0,0.0,0.0,0.0,0.0,0.0,0.0,0.0,0.0,0.0,0.0,0.0,0.0,0.0,0.0,0.0,0.0,0.0,0.0,0.0,0.0,0.0,0.0,0.0,0.0,0.0,0.0,0.0,0.0,0.0,0.0,0.0,0.0,0.0,0.0,0.0,1.0667,1.2299,1.296,1.1275,1.3614,1.5221,1.4995,1.6177,1.6286,0.0,0.0,0.0,0.0,0.0,0.0,0.0,0.0,0.0,0.0,0.0,0.0,0.0,0.0,0.0,0.0,0.0,0.0,0.0,0.0,0.0,0.0,0.0,0.0,0.0,0.0,0.0,0.0,0.0,0.0,0.0,0.0,0.0,0.0,0.0,0.0,0.0,0.0,0.0,0.0,0.0,0.0,0.0,0.0,0.0,0.0,0.0,0.0,0.0,0.0,0.0,0.0,0.0,0.0,0.0,0.0,0.0,0.0,0.0,0.0,0.0,0.0,0.0,0.0,0.0,0.0,0.0,0.0,0.0,0.0,0.0,0.0,0.0,0.0,0.0,0.0,0.0,0.0,0.0,0.0,0.0,0.0,0.0,0.0,0.0,0.0,0.0,0.0,0.0,0.0,0.0,0.0,0.0,0.0,0.0,0.0,0.0,0.0,0.0,0.0,0.0,0.0,0.0,1.2706,1.4402,1.5678,1.5975,1.7101,1.7691,1.7276,1.7173,1.6391,1.4628,0.0,0.0,0.0,0.0,0.0,0.0,0.0,0.0,0.0,0.0,0.0,0.0,0.0,0.0,0.0,0.0,0.0,0.0,0.0,0.0,0.0,0.0,0.0,0.0,0.0,0.0,0.0,0.0,0.0,0.0,0.0,0.0,0.0,0.0,0.0,0.0,0.0,0.0,0.0,0.0,0.0,0.0,0.0,0.0,0.0,0.0,0.0,0.0,0.0,0.0,0.0,0.0,0.0,0.0,0.0,0.0,0.0,0.0,0.0,0.0,0.0,0.0,0.0,0.0,0.0,0.0,0.0,0.0,0.0,0.0,0.0,0.0,0.0,0.0,0.0,0.0,0.0,0.0,0.0,0.0,0.0,0.0,0.0,0.0,0.0,0.0,0.0,0.0,0.0,0.0,0.0,0.0,0.0,0.0,0.0,0.0,0.0,0.0,0.0,0.0,0.0,0.0,0.0,1.5348,1.6943,1.8014,1.8591,1.875,1.8331,1.7497,1.6218,1.428,0.0,0.0,0.0,0.0,0.0,0.0,0.0,0.0,0.0,0.0,0.0,0.0,0.0,0.0,0.0,0.0,0.0,0.0,0.0,0.0,0.0,0.0,0.0,0.0,0.0,0.0,0.0,0.0,0.0,0.0,0.0,0.0,0.0,0.0,0.0,0.0,0.0,0.0,0.0,0.0,0.0,0.0,0.0,0.0,0.0,0.0,0.0,0.0,0.0,0.0,0.0,0.0,0.0,0.0,0.0,0.0,0.0,0.0,0.0,0.0,0.0,0.0,0.0,0.0,0.0,0.0,0.0,0.0,0.0,0.0,0.0,0.0,0.0,0.0,0.0,0.0,0.0,0.0,0.0,0.0,0.0,0.0,0.0,0.0,0.0,0.0,0.0,0.0,0.0,0.0,0.0,0.0,0.0,0.0,0.0,0.0,0.0,0.0,0.0,0.0,0.0,0.0,0.0,1.5203,1.6837,1.7804,1.8358,1.8539,1.8318,1.7234,1.577,1.3903,1.25,0.0,0.0,0.0,0.0,0.0,0.0,0.0,0.0,0.0,0.0,0.0,0.0,0.0,0.0,0.0,0.0,0.0,0.0,0.0,0.0,0.0,0.0,0.0,0.0,0.0,0.0,0.0,0.0,0.0,0.0,0.0,0.0,0.0,0.0,0.0,0.0,0.0,0.0,0.0,0.0,0.0,0.0,0.0,0.0,0.0,0.0,0.0,0.0,0.0,0.0,0.0,0.0,0.0,0.0,0.0,0.0,0.0,0.0,0.0,0.0,0.0,0.0,0.0,0.0,0.0,0.0,0.0,0.0,0.0,0.0,0.0,0.0,0.0,0.0,0.0,0.0,0.0,0.0,0.0,0.0,0.0,0.0,0.0,0.0,0.0,0.0,0.0,0.0,0.0,0.0,0.0,0.0,0.0,0.0,0.0,0.0,0.0,0.0,0.0,0.0,0.0,0.0,1.4801,1.6337,1.771,1.8173,1.8314,1.8305,1.7365,1.5931,1.3916,1.2737,0.0,0.0,0.0,0.0,0.0,0.0,0.0,0.0,0.0,0.0,0.0,0.0,0.0,0.0,0.0,0.0,0.0,0.0,0.0,0.0,0.0,0.0,0.0,0.0,0.0,0.0,0.0,0.0,0.0,0.0,0.0,0.0,0.0,0.0,0.0,0.0,0.0,0.0,0.0,0.0,0.0,0.0,0.0,0.0,0.0,0.0,0.0,0.0,0.0,0.0,0.0,0.0,0.0,0.0,0.0,0.0,0.0,0.0,0.0,0.0,0.0,0.0,0.0,0.0,0.0,0.0,0.0,0.0,0.0,0.0,0.0,0.0,0.0,0.0,0.0,0.0,0.0,0.0,0.0,0.0,0.0,0.0,0.0,0.0,0.0,0.0,0.0,0.0,0.0,0.0,0.0,0.0,0.0,0.0,0.0,0.0,0.0,0.0,0.0,0.0,0.0,0.0,1.333,1.5044,1.722,1.7829,1.804,1.7853,1.7286,1.5957,1.3746,1.2473,0.0,0.0,0.0,0.0,0.0,0.0,0.0,0.0,0.0,0.0,0.0,0.0,0.0,0.0,0.0,0.0,0.0,0.0,0.0,0.0,0.0,0.0,0.0,0.0,0.0,0.0,0.0,0.0,0.0,0.0,0.0,0.0,0.0,0.0,0.0,0.0,0.0,0.0,0.0,0.0,0.0,0.0,0.0,0.0,0.0,0.0,0.0,0.0,0.0,0.0,0.0,0.0,0.0,0.0,0.0,0.0,0.0,0.0,0.0,0.0,0.0,0.0,0.0,0.0,0.0,0.0,0.0,0.0,0.0,0.0,0.0,0.0,0.0,0.0,0.0,0.0,0.0,0.0,0.0,0.0,0.0,0.0,0.0,0.0,0.0,0.0,0.0,0.0,0.0,0.0,0.0,0.0,0.0,0.0,0.0,0.0,0.0,0.0,0.0,0.0,0.0,0.0,0.0,1.3689,1.6258,1.722,1.7591,1.7338,1.6891,1.5708,1.3565,0.0,0.0,0.0,0.0,0.0,0.0,0.0,0.0,0.0,0.0,0.0,0.0,0.0,0.0,0.0,0.0,0.0,0.0,0.0,0.0,0.0,0.0,0.0,0.0,0.0,0.0,0.0,0.0,0.0,0.0,0.0,0.0,0.0,0.0,0.0,0.0,0.0,0.0,0.0,0.0,0.0,0.0,0.0,0.0,0.0,0.0,0.0,0.0,0.0,0.0,0.0,0.0,0.0,0.0,0.0,0.0,0.0,0.0,0.0,0.0,0.0,0.0,0.0,0.0,0.0,0.0,0.0,0.0,0.0,0.0,0.0,0.0,0.0,0.0,0.0,0.0,0.0,0.0,0.0,0.0,0.0,0.0,0.0,0.0,0.0,0.0,0.0,0.0,0.0,0.0,0.0,0.0,0.0,0.0,0.0,0.0,0.0,0.0,0.0,0.0,0.0,0.0,0.0,0.0,1.3409,1.4641,1.5951,1.6877,1.7285,1.6141,1.484,1.3513,0.0,0.0,0.0,0.0,0.0,0.0,0.0,0.0,0.0,0.0,0.0,0.0,0.0,0.0]}],[{"header":{"parameterUnit":"kt","parameterCategory":2,"dx":1,"dy":1,"la1":29.285339999999998,"la2":30.599998999999997,"lo1":-89.70041500000002,"lo2":-87.6738589999976,"nx":112,"ny":82,"refTime":"2022-10-31T06:00:00:Z","depth":0,"parameterNumber":2,"parameterNumberName":"V-component_of_WINDS"},"data":[11.1205,10.7755,10.3632,10.424,9.8632,9.1677,8.69,8.4881,8.2787,7.8367,7.7918,7.7993,7.7328,7.4179,0.0,0.0,0.0,0.0,0.0,5.8919,0.0,0.0,0.0,0.0,0.0,0.0,0.0,0.0,0.0,0.0,0.0,12.5788,13.1534,13.7591,14.0507,14.2288,14.2886,14.5517,14.7162,14.7761,14.7761,14.7761,14.7761,14.9481,15.114,15.2711,15.4416,15.6046,15.7631,15.7631,15.7631,15.7631,15.7631,15.7631,15.7631,15.7631,15.7631,15.7631,15.7631,15.7631,15.7631,15.7631,15.7631,15.7631,15.7631,15.781,15.7874,15.7315,15.7727,15.8206,15.7654,15.7967,15.8418,15.8418,15.8418,15.8418,15.8418,15.8418,15.8418,15.8418,15.8418,15.8418,15.8418,15.8418,15.8418,15.8418,15.8418,15.8418,15.8418,15.8418,15.8418,15.8418,15.8418,15.8418,15.8418,15.8418,15.8418,15.8418,15.8418,15.8418,15.8418,15.8418,15.8719,15.9332,16.0385,16.1525,16.2641,16.4746,16.61,16.6777,16.7816,16.8343,10.3727,10.0501,9.6753,9.6753,9.0996,8.405,7.9048,7.7028,7.5009,7.059,7.1487,7.2983,7.3065,7.0814,0.0,0.0,0.0,0.0,0.0,0.0,0.0,0.0,0.0,0.0,0.0,0.0,0.0,0.0,11.1355,11.7038,12.3619,12.8618,13.3254,13.7666,14.1092,14.2886,14.2886,14.6116,14.7761,14.7761,14.7761,14.7761,14.7761,14.8882,15.0318,15.1888,15.3519,15.5238,15.6809,15.7407,15.7631,15.7631,15.7631,15.7631,15.7631,15.7631,15.7631,15.7631,15.7631,15.7631,15.7631,15.7631,15.7631,15.7631,15.7631,15.7853,15.8004,15.8004,15.8217,15.8418,15.8418,15.8418,15.8418,15.8418,15.8418,15.8418,15.8418,15.8418,15.8418,15.8418,15.8418,15.8418,15.8418,15.8418,15.8418,15.8418,15.8418,15.8418,15.8418,15.8418,15.8418,15.8418,15.8418,15.8418,15.8418,15.8418,15.8418,15.8418,15.8418,15.8418,15.8418,15.8418,15.8418,15.8418,15.9558,16.0385,16.0924,16.3092,16.4746,16.5799,16.6927,16.7453,9.6015,9.206,8.8404,8.8255,8.1067,7.4329,7.5757,7.3581,7.0434,6.7082,6.902,7.0359,6.7157,6.7973,0.0,0.0,0.0,0.0,0.0,6.6172,0.0,0.0,0.0,0.0,0.0,10.2819,10.9923,11.3363,11.8235,12.3769,13.0126,13.2132,13.4512,13.774,14.1092,14.2886,14.2886,14.6116,14.7761,14.7761,14.7761,14.7761,14.7761,14.7761,14.8658,15.0318,15.1888,15.3519,15.5224,15.6884,15.7557,15.7631,15.7631,15.7631,15.7631,15.7631,15.7631,15.7631,15.7631,15.7631,15.7631,15.7631,15.7631,15.7631,15.7631,15.7853,15.8004,15.8004,15.8217,15.8418,15.8418,15.8418,15.8418,15.8418,15.8418,15.8418,15.8418,15.8418,15.8418,15.8418,15.8418,15.8418,15.8418,15.8418,15.8418,15.8418,15.8418,15.8418,15.8418,15.8418,15.8418,15.8418,15.8418,15.8418,15.8418,15.8418,15.8418,15.8418,15.8418,15.8418,15.8418,15.8418,15.8418,15.8418,15.8418,15.9257,16.0849,16.0924,16.2578,16.5649,16.5724,16.5799,8.5762,8.4266,8.2704,8.0319,7.7701,7.4561,7.0223,7.0291,7.006,6.558,6.8191,0.0,0.0,0.0,7.1555,0.0,0.0,7.163,6.9013,7.1936,7.8898,9.1013,9.4902,9.9529,10.7146,11.1419,11.5532,12.0007,12.4954,12.8555,13.035,13.4301,13.6918,13.7815,14.1092,14.2886,14.2886,14.6116,14.7761,14.7761,14.7761,14.7761,14.7761,14.7761,14.8658,15.0318,15.0691,15.2472,15.5149,15.5597,15.651,15.7631,15.7631,15.7631,15.7631,15.7631,15.7631,15.7631,15.7631,15.7631,15.7631,15.7631,15.7631,15.7631,15.7631,15.7853,15.8004,15.8004,15.8217,15.8418,15.8418,15.8418,15.8418,15.8418,15.8418,15.8418,15.8418,15.8418,15.8418,15.8418,15.8418,15.8418,15.8418,15.8418,15.8418,15.8418,15.8418,15.8418,15.8418,15.8418,15.8418,15.8418,15.8418,15.8418,15.8418,15.8418,15.8418,15.8418,15.8418,15.8418,15.8418,15.8418,15.8418,15.8418,15.8418,15.8644,15.9095,16.031,16.145,16.2353,16.3543,16.4746,7.7911,7.7612,7.7387,7.4105,7.2766,7.1046,6.6484,6.7449,6.8496,6.5586,0.0,0.0,0.0,0.0,0.0,0.0,7.6124,7.8217,7.5817,8.0162,8.7565,9.8258,9.9529,10.3418,11.3352,11.8298,12.2635,12.6886,13.0562,13.2818,13.3491,13.6245,13.7815,13.7815,14.0432,14.2152,14.2886,14.5443,14.7013,14.7761,14.7761,14.7761,14.7761,14.7761,14.8284,14.9256,14.9944,15.135,15.3219,15.4565,15.5672,15.6584,15.6584,15.6584,15.6659,15.7407,15.7631,15.7631,15.7631,15.7631,15.7631,15.7631,15.7631,15.7646,15.7707,15.7897,15.8017,15.8085,15.8256,15.8418,15.8418,15.8418,15.8418,15.8418,15.8418,15.8418,15.8418,15.8418,15.8418,15.8418,15.8418,15.8418,15.8418,15.8418,15.8418,15.8418,15.8418,15.8418,15.8418,15.8418,15.8418,15.8418,15.8418,15.8418,15.8418,15.8418,15.8418,15.8418,15.8418,15.8418,15.8418,15.8418,15.8418,15.8418,15.8418,15.8418,15.8418,15.9408,15.9859,15.9934,16.1663,16.3242,7.1555,7.1481,7.2011,6.9163,6.73,6.596,6.4982,0.0,6.7007,6.7762,0.0,7.32,7.658,0.0,0.0,7.575,8.1956,8.592,8.307,9.0398,9.7875,10.2799,10.3398,10.7071,11.6429,12.3981,12.9739,13.3017,13.4811,13.6394,13.774,13.7815,13.7815,13.7815,13.9474,14.118,14.2886,14.4457,14.6041,14.7761,14.7761,14.7761,14.7761,14.7761,14.7761,14.7835,14.9331,15.0093,15.0467,15.3369,15.4715,15.485,15.485,15.485,15.5014,15.651,15.7183,15.7332,15.7332,15.7482,15.7631,15.7631,15.7631,15.7662,15.7824,15.7907,15.8058,15.8191,15.8319,15.8418,15.8418,15.8418,15.8418,15.8418,15.8418,15.8418,15.8418,15.8418,15.8418,15.8418,15.8418,15.8418,15.8418,15.8418,15.8418,15.8418,15.8418,15.8418,15.8418,15.8418,15.8418,15.8418,15.8418,15.8418,15.8418,15.8418,15.8418,15.8418,15.8418,15.8418,15.8418,15.8418,15.8418,15.8418,15.8418,15.8418,15.8418,15.8418,15.8418,15.8493,16.016,16.1901,6.4826,6.4683,6.573,6.5057,6.4683,6.543,0.0,0.0,0.0,7.5308,7.6879,7.83,8.1732,8.233,8.3078,8.5404,8.9285,9.1893,9.122,10.2809,11.3203,11.8212,11.8736,12.1128,12.6985,12.9004,13.1384,13.4749,13.6469,13.7516,13.7815,13.7815,13.7815,13.7815,13.9474,14.118,14.2886,14.4457,14.6041,14.7761,14.7761,14.7761,14.7761,14.7761,14.7761,14.7761,14.806,14.8957,15.0318,15.0901,15.1948,15.3085,15.3085,15.3085,15.3085,15.3459,15.4416,15.5597,15.5597,15.651,15.7631,15.7631,15.7631,15.7662,15.7824,15.7976,15.8191,15.8217,15.8319,15.8418,15.8418,15.8418,15.8418,15.8418,15.8418,15.8418,15.8418,15.8418,15.8418,15.8418,15.8418,15.8418,15.8418,15.8418,15.8418,15.8418,15.8418,15.8418,15.8418,15.8418,15.8418,15.8418,15.8418,15.8418,15.8418,15.8418,15.8418,15.8418,15.8418,15.8418,15.8418,15.8418,15.8418,15.8418,15.8418,15.8418,15.8418,15.8418,15.8418,15.8493,16.016,16.1901,5.9972,6.1467,6.3935,6.3935,6.5804,0.0,0.0,7.2684,7.4553,8.1067,8.2413,8.3983,8.8985,9.0639,9.1985,9.4369,9.8258,10.1772,10.424,11.2466,11.942,12.2624,12.382,12.6225,13.1235,13.2506,13.3628,13.5348,13.6918,13.7815,13.7815,13.7815,13.7815,13.7815,13.8638,14.0283,14.2886,14.3634,14.5279,14.7761,14.7761,14.7761,14.7761,14.7761,14.7761,14.7761,14.7761,14.8209,14.9032,14.9944,15.0243,15.0228,15.1065,15.1439,15.1514,15.2337,15.3159,15.3818,15.3818,15.4416,15.5238,15.6136,15.636,15.654,15.7525,15.7949,15.8152,15.8281,15.8369,15.8418,15.8418,15.8418,15.8418,15.8418,15.8418,15.8418,15.8418,15.8418,15.8418,15.8418,15.8418,15.8418,15.8418,15.8418,15.8418,15.8418,15.8418,15.8418,15.8418,15.8418,15.8418,15.8418,15.8418,15.8418,15.8418,15.8418,15.8418,15.8418,15.8418,15.8418,15.8418,15.8418,15.8418,15.8418,15.8418,15.8418,15.8418,15.8418,15.8418,15.8418,15.9332,16.1062,5.6836,5.9454,6.2813,6.4159,6.7449,0.0,7.4105,7.6131,7.9422,8.6593,8.8321,9.049,9.6762,9.909,10.0586,10.251,10.6708,11.1568,11.6878,12.0254,12.2872,12.4792,12.6449,12.9216,13.3465,13.511,13.5946,13.5946,13.7067,13.7815,13.7815,13.7815,13.7815,13.7815,13.7815,13.946,14.2812,14.2886,14.4531,14.7761,14.7761,14.7761,14.7761,14.7761,14.7761,14.7761,14.7761,14.7761,14.7835,14.9181,14.8957,14.7835,14.9256,14.9794,14.9944,15.114,15.1888,15.2112,15.2112,15.2337,15.286,15.4192,15.4655,15.4999,15.6805,15.7485,15.7737,15.8281,15.8418,15.8418,15.8418,15.8418,15.8418,15.8418,15.8418,15.8418,15.8418,15.8418,15.8418,15.8418,15.8418,15.8418,15.8418,15.8418,15.8418,15.8418,15.8418,15.8418,15.8418,15.8418,15.8418,15.8418,15.8418,15.8418,15.8418,15.8418,15.8418,15.8418,15.8418,15.8418,15.8418,15.8418,15.8418,15.8418,15.8418,15.8418,15.8418,15.8418,15.8418,15.8418,15.8418,16.0222,5.6244,5.6992,5.8787,6.4764,6.6633,0.0,7.6437,7.9489,8.3444,9.2949,9.6099,9.8716,10.3866,10.4988,10.612,10.9186,11.2615,11.7102,12.3608,12.6075,12.8393,13.1521,13.3316,13.5123,13.7067,13.7441,13.7591,13.7591,13.774,13.7815,13.7815,13.7815,13.7815,13.7815,13.7815,13.946,14.2812,14.2886,14.4531,14.7761,14.7761,14.7761,14.7761,14.7761,14.7761,14.7761,14.7761,14.7761,14.7761,14.791,14.791,14.7761,14.791,14.7985,14.806,14.8209,14.9256,15.0542,15.0542,15.1439,15.2636,15.2785,15.2933,15.336,15.5236,15.5834,15.6277,15.793,15.8418,15.8418,15.8418,15.8418,15.8418,15.8418,15.8418,15.8418,15.8418,15.8418,15.8418,15.8418,15.8418,15.8418,15.8418,15.8418,15.8418,15.8418,15.8418,15.8418,15.8418,15.8418,15.8418,15.8418,15.8418,15.8418,15.8418,15.8418,15.8418,15.8418,15.8418,15.8418,15.8418,15.8418,15.8418,15.8418,15.8418,15.8418,15.8418,15.8418,15.8418,15.8418,15.8418,16.0222,5.3316,5.5859,5.9149,6.386,0.0,0.0,8.0244,8.4499,8.9575,9.8482,10.2371,10.5746,11.0671,11.3224,11.5019,11.6365,12.0179,12.3907,12.6673,12.9291,13.1459,13.2792,13.526,13.7067,13.774,13.7815,13.7815,13.7815,13.7815,13.7815,13.7815,13.7815,13.7815,13.7815,13.7815,13.946,14.2812,14.2886,14.4531,14.7761,14.7761,14.7761,14.7761,14.7761,14.7761,14.7761,14.7761,14.7761,14.7761,14.7761,14.7761,14.7761,14.7761,14.7761,14.7761,14.7761,14.8209,14.8808,14.8808,14.9181,14.9944,15.1002,15.1372,15.1755,15.372,15.4274,15.4725,15.6427,15.6914,15.714,15.8192,15.8418,15.8418,15.8418,15.8418,15.8418,15.8418,15.8418,15.8418,15.8418,15.8418,15.8418,15.8418,15.8418,15.8418,15.8418,15.8418,15.8418,15.8418,15.8418,15.8418,15.8418,15.8418,15.8418,15.8418,15.8418,15.8418,15.8418,15.8418,15.8418,15.8418,15.8418,15.8418,15.8418,15.8418,15.8418,15.8418,15.8418,15.8418,15.8418,15.8418,16.0222,5.1816,0.0,0.0,0.0,0.0,0.0,8.5845,9.1004,9.6379,10.2819,10.7755,11.2103,11.5681,11.9506,12.2198,12.2647,12.5788,12.8106,12.8106,13.0936,13.2942,13.2942,13.5871,13.7815,13.7815,13.7815,13.7815,13.7815,13.7815,13.7815,13.7815,13.7815,13.7815,13.7815,13.7815,13.946,14.2812,14.2886,14.4531,14.7761,14.7761,14.7761,14.7761,14.7761,14.7761,14.7761,14.7761,14.7761,14.7761,14.7761,14.7761,14.7761,14.7761,14.7761,14.7761,14.7761,14.7761,14.7761,14.7761,14.7714,14.7995,14.9289,14.9821,15.0227,15.2084,15.2697,15.3197,15.5311,15.5862,15.6313,15.7967,15.8418,15.8418,15.8418,15.8418,15.8418,15.8418,15.8418,15.8418,15.8418,15.8418,15.8418,15.8418,15.8418,15.8418,15.8418,15.8418,15.8418,15.8418,15.8418,15.8418,15.8418,15.8418,15.8418,15.8418,15.8418,15.8418,15.8418,15.8418,15.8418,15.8418,15.8418,15.8418,15.8418,15.8418,15.8418,15.8418,15.8418,15.8418,15.8418,15.8418,16.0222,0.0,0.0,0.0,7.3588,7.987,8.5695,9.3771,9.9529,10.3567,10.5437,11.2241,11.7936,11.8085,12.2112,12.5926,12.7571,12.8032,12.8106,12.8106,13.0936,13.2942,13.2942,13.5871,13.7815,13.7815,13.7815,13.7815,13.7815,13.7815,13.7815,13.7815,13.7815,13.7815,13.7815,13.7815,13.946,14.2812,14.2886,14.4531,14.7761,14.7761,14.7761,14.7761,14.7761,14.7761,14.7761,14.7761,14.7761,14.7761,14.7761,14.7761,14.7761,14.7761,14.7761,14.7761,14.7761,14.7761,14.7761,14.7761,14.7784,14.7908,14.7996,14.8167,14.868,15.042,15.103,15.1813,15.4959,15.5862,15.6313,15.7967,15.8418,15.8418,15.8418,15.8418,15.8418,15.8418,15.8418,15.8418,15.8418,15.8418,15.8418,15.8418,15.8418,15.8418,15.8418,15.8418,15.8418,15.8418,15.8418,15.8418,15.8418,15.8418,15.8418,15.8418,15.8418,15.8418,15.8418,15.8418,15.8418,15.8418,15.8418,15.8418,15.8418,15.8418,15.8418,15.8418,15.8418,15.8418,15.8418,15.8418,16.0222,5.6601,6.348,7.1338,7.7993,8.4947,9.1528,9.6547,10.1548,10.5885,10.8588,11.487,12.0179,12.1215,12.4654,12.7421,12.8032,12.8106,12.8106,12.8106,13.0936,13.2942,13.2942,13.5871,13.7815,13.7815,13.7815,13.7815,13.7815,13.7815,13.7815,13.7815,13.7815,13.7815,13.7815,13.7815,13.8937,14.118,14.2288,14.3933,14.6041,14.7162,14.7761,14.7761,14.7761,14.7761,14.7761,14.7761,14.7761,14.7761,14.7761,14.7761,14.7761,14.7761,14.7761,14.7761,14.7761,14.7756,14.784,14.784,14.7934,14.8066,14.8156,14.8244,14.8404,14.91,14.9309,14.9795,15.2039,15.3467,15.4746,15.6313,15.7591,15.8418,15.8418,15.8418,15.8418,15.8418,15.8418,15.8418,15.8418,15.8418,15.8418,15.8418,15.8418,15.8418,15.8418,15.8418,15.8418,15.8418,15.8418,15.8418,15.8418,15.8418,15.8418,15.8418,15.8418,15.8418,15.8418,15.8418,15.8418,15.8418,15.8418,15.8418,15.8418,15.8418,15.8418,15.8418,15.8418,15.8418,15.8418,15.8418,15.9019,6.0363,6.8122,7.6498,8.3818,9.137,9.8108,10.2007,10.6344,10.9998,11.2103,11.7337,12.1888,12.2848,12.5776,12.8106,12.8106,12.8106,12.8106,12.8106,13.0936,13.2942,13.2942,13.5871,13.7815,13.7815,13.7815,13.7815,13.7815,13.7815,13.7815,13.7815,13.7815,13.7815,13.7815,13.7815,13.8339,13.946,14.169,14.3634,14.5204,14.6938,14.7761,14.7761,14.7761,14.7761,14.7761,14.7761,14.7761,14.7761,14.7761,14.7761,14.7761,14.7761,14.7761,14.7761,14.7761,14.7784,14.7921,14.7921,14.804,14.8194,14.8293,14.8353,14.8412,14.8493,14.8516,14.8892,15.0546,15.2264,15.3919,15.5486,15.714,15.8418,15.8418,15.8418,15.8418,15.8418,15.8418,15.8418,15.8418,15.8418,15.8418,15.8418,15.8418,15.8418,15.8418,15.8418,15.8418,15.8418,15.8418,15.8418,15.8418,15.8418,15.8418,15.8418,15.8418,15.8418,15.8418,15.8418,15.8418,15.8418,15.8418,15.8418,15.8418,15.8418,15.8418,15.8418,15.8418,15.8418,15.8418,15.8418,15.8418,6.4567,7.2066,8.005,9.1105,9.8866,10.5063,10.989,11.3385,11.5681,11.5789,11.9656,12.3072,12.3033,12.5788,12.8106,12.8106,12.8106,12.8106,12.8106,13.0936,13.2942,13.2942,13.5871,13.7815,13.7815,13.7815,13.7815,13.7815,13.7815,13.7815,13.7815,13.7815,13.7815,13.7815,13.7815,13.7815,13.7815,14.1017,14.341,14.5129,14.6863,14.7761,14.7761,14.7761,14.7761,14.7761,14.7761,14.7761,14.7761,14.7761,14.7761,14.7761,14.7761,14.7761,14.7761,14.7761,14.7784,14.7921,14.7921,14.8105,14.8317,14.8329,14.8412,14.8516,14.8516,14.8516,14.8817,15.0471,15.2114,15.3768,15.5347,15.6989,15.8343,15.8418,15.8418,15.8418,15.8418,15.8418,15.8418,15.8418,15.8418,15.8418,15.8418,15.8418,15.8418,15.8418,15.8418,15.8418,15.8418,15.8418,15.8418,15.8418,15.8418,15.8418,15.8418,15.8418,15.8418,15.8418,15.8418,15.8418,15.8418,15.8418,15.8418,15.8418,15.8418,15.8418,15.8418,15.8418,15.8418,15.8418,15.8418,15.8418,6.8825,8.1675,9.2625,9.7958,10.4181,10.9653,11.2384,11.4364,11.6079,11.7534,12.0627,12.3114,12.3453,12.6022,12.8106,12.8106,12.8106,12.8106,12.8106,13.0936,13.2942,13.2942,13.5871,13.7815,13.7815,13.7815,13.7815,13.7815,13.7815,13.7815,13.7815,13.7815,13.7815,13.7815,13.7815,13.7815,13.7815,13.8638,14.0582,14.3485,14.634,14.7761,14.7761,14.7761,14.7761,14.7761,14.7761,14.7761,14.7761,14.7761,14.7761,14.7761,14.7761,14.7761,14.7761,14.7761,14.7784,14.7934,14.8027,14.8181,14.8341,14.8436,14.8482,14.8516,14.8516,14.8516,14.8591,14.9043,15.0396,15.2039,15.3693,15.5347,15.6839,15.8117,15.8418,15.8418,15.8418,15.8418,15.8418,15.8418,15.8418,15.8418,15.8418,15.8418,15.8418,15.8418,15.8418,15.8418,15.8418,15.8418,15.8418,15.8418,15.8418,15.8418,15.8418,15.8418,15.8418,15.8418,15.8418,15.8418,15.8418,15.8418,15.8418,15.8418,15.8418,15.8418,15.8418,15.8418,15.8418,15.8418,15.8418,15.8418,6.9087,8.4195,9.768,10.2497,10.7876,11.2421,11.3632,11.5451,11.7299,11.8519,12.1283,12.3531,12.3749,12.6244,12.8274,12.8274,12.8176,12.8106,12.8106,13.0936,13.2942,13.2942,13.5871,13.7815,13.7815,13.7815,13.7815,13.7815,13.7815,13.7815,13.7815,13.7815,13.7815,13.7815,13.7815,13.7815,13.7815,13.7815,13.9161,14.1778,14.5069,14.7013,14.7761,14.7761,14.7761,14.7761,14.7761,14.7761,14.7761,14.7761,14.7761,14.7761,14.7761,14.7761,14.7761,14.7761,14.7784,14.7934,14.8001,14.8156,14.8317,14.8341,14.8377,14.8424,14.8424,14.8424,14.8447,14.8493,14.9719,15.1437,15.3092,15.4746,15.6313,15.8042,15.8418,15.8418,15.8418,15.8418,15.8418,15.8418,15.8418,15.8418,15.8418,15.8418,15.8418,15.8418,15.8418,15.8418,15.8418,15.8418,15.8418,15.8418,15.8418,15.8418,15.8418,15.8418,15.8418,15.8418,15.8418,15.8418,15.8418,15.8418,15.8418,15.8418,15.8418,15.8418,15.8418,15.8418,15.8418,15.8418,15.8418,15.8418,6.8803,8.3411,9.7979,10.5269,11.0461,11.3842,11.409,11.6486,11.8678,11.9012,12.1716,12.4052,12.4052,12.6513,12.8581,12.8513,12.8277,12.8141,12.8119,13.0948,13.2967,13.2942,13.5871,13.7815,13.7815,13.7815,13.7815,13.7815,13.7815,13.7815,13.7815,13.7815,13.7815,13.7815,13.7815,13.7815,13.7815,13.7815,13.8638,14.0371,14.3424,14.5891,14.7761,14.7761,14.7761,14.7761,14.7761,14.7761,14.7761,14.7761,14.7761,14.7761,14.7789,14.7775,14.7761,14.7789,14.7798,14.7921,14.7934,14.8118,14.8305,14.8194,14.8244,14.8341,14.8341,14.8341,14.8365,14.8482,14.9569,15.1073,15.2791,15.437,15.6012,15.7666,15.8268,15.8418,15.8418,15.8418,15.8418,15.8418,15.8418,15.8418,15.8418,15.8418,15.8418,15.8418,15.8418,15.8418,15.8418,15.8418,15.8418,15.8418,15.8418,15.8418,15.8418,15.8418,15.8418,15.8418,15.8418,15.8418,15.8418,15.8418,15.8418,15.8418,15.8418,15.8418,15.8418,15.8418,15.8418,15.8418,15.8418,15.8418,7.5871,8.5569,9.577,10.634,11.1506,11.4104,11.4364,11.6728,11.9026,11.9354,12.2039,12.4381,12.4381,12.6872,12.8881,12.8572,12.8515,12.8474,12.8117,13.1023,13.3068,13.2955,13.5871,13.7815,13.7815,13.7815,13.7815,13.7815,13.7815,13.7815,13.7815,13.7815,13.7815,13.7815,13.7815,13.7815,13.7815,13.7815,13.8638,14.0371,14.2302,14.483,14.7761,14.7761,14.7761,14.7761,14.7761,14.7761,14.7761,14.7761,14.7761,14.7775,14.7826,14.7798,14.7775,14.784,14.7894,14.7934,14.804,14.8181,14.8329,14.8424,14.8459,14.8482,14.8482,14.8482,14.8482,14.8505,14.8742,14.9343,15.1061,15.2716,15.437,15.5937,15.7441,15.8418,15.8418,15.8418,15.8418,15.8418,15.8418,15.8418,15.8418,15.8418,15.8418,15.8418,15.8418,15.8418,15.8418,15.8418,15.8418,15.8418,15.8418,15.8418,15.8418,15.8418,15.8418,15.8418,15.8418,15.8418,15.8418,15.8418,15.8418,15.8418,15.8418,15.8418,15.8418,15.8418,15.8418,15.8418,15.8418,15.8418,8.0893,8.9315,9.6967,10.5111,11.0737,11.4353,11.4623,11.7028,11.8375,11.5226,11.9959,12.4205,12.2382,12.599,12.9169,12.9011,12.8805,12.8636,12.8413,13.0452,13.2241,13.3079,13.5326,13.7098,13.7858,13.792,13.7894,13.7829,13.7815,13.7815,13.7815,13.7815,13.7815,13.7815,13.7815,13.7815,13.7815,13.7815,13.8189,13.9086,14.1615,14.3709,14.5293,14.7091,14.7908,14.7908,14.7908,14.7908,14.7908,14.7908,14.7908,14.7921,14.7988,14.7974,14.7921,14.7988,14.8014,14.8027,14.8092,14.8206,14.8317,14.8317,14.8353,14.8412,14.8412,14.8412,14.8424,14.8493,14.8516,14.8892,15.061,15.2264,15.3919,15.5486,15.6538,15.7365,15.8192,15.8418,15.8418,15.8418,15.8418,15.8418,15.8418,15.8418,15.8418,15.8418,15.8418,15.8418,15.8418,15.8418,15.8418,15.8418,15.8418,15.8418,15.8418,15.8418,15.8418,15.8418,15.8418,15.8418,15.8418,15.8418,15.8418,15.8418,15.8418,15.8418,15.8418,15.8418,15.8418,15.8418,15.8418,15.8418,8.2561,9.1212,9.7966,10.267,10.8748,11.3548,11.3807,11.5956,11.6663,11.1988,11.8229,12.3771,12.1414,12.5383,12.9111,12.9453,12.914,12.8844,12.8683,12.9972,13.1527,13.313,13.4832,13.6446,13.7922,13.806,13.8022,13.7907,13.7907,13.7907,13.7907,13.7907,13.7907,13.7907,13.7907,13.7907,13.7907,13.7907,13.7907,13.7907,14.1336,14.2968,14.3016,14.6128,14.773,14.8105,14.8105,14.8105,14.8105,14.8105,14.8105,14.8118,14.8143,14.8131,14.8118,14.8143,14.8156,14.8156,14.8156,14.8244,14.8341,14.8231,14.8268,14.8365,14.8365,14.8365,14.8389,14.8482,14.8516,14.8817,15.017,15.1738,15.3392,15.5047,15.5636,15.6388,15.8042,15.8418,15.8418,15.8418,15.8418,15.8418,15.8418,15.8418,15.8418,15.8418,15.8418,15.8418,15.8418,15.8418,15.8418,15.8418,15.8418,15.8418,15.8418,15.8418,15.8418,15.8418,15.8418,15.8418,15.8418,15.8418,15.8418,15.8418,15.8418,15.8418,15.8418,15.8418,15.8418,15.8418,15.8418,15.8418,7.8618,8.7725,9.5919,9.9485,10.5396,11.0399,11.0484,11.1772,11.3285,11.4202,11.8836,12.3085,12.4302,12.6286,12.8086,12.9246,12.9494,12.9399,12.8757,13.019,13.1856,13.3176,13.4832,13.6482,13.8044,13.8194,13.8182,13.817,13.817,13.817,13.817,13.817,13.817,13.817,13.817,13.817,13.817,13.817,13.817,13.817,14.1619,14.3143,14.3102,14.4967,14.668,14.8105,14.8105,14.8105,14.8105,14.8105,14.8105,14.8118,14.8256,14.8219,14.8118,14.8256,14.8305,14.8305,14.8305,14.8389,14.8493,14.8482,14.8482,14.8493,14.8493,14.8493,14.8505,14.8516,14.8516,14.8516,14.8742,15.002,15.1663,15.3392,15.4896,15.6388,15.8042,15.8418,15.8418,15.8418,15.8418,15.8418,15.8418,15.8418,15.8418,15.8418,15.8418,15.8418,15.8418,15.8418,15.8418,15.8418,15.8418,15.8418,15.8418,15.8418,15.8418,15.8418,15.8418,15.8418,15.8418,15.8418,15.8418,15.8418,15.8418,15.8418,15.8418,15.8418,15.8418,15.8418,15.8418,15.8418,8.0288,8.9544,9.6979,9.9333,10.3507,10.7226,10.8288,10.8983,10.9595,11.0265,11.6863,12.2028,12.0674,12.2668,12.533,12.7891,12.7335,12.72,12.9025,12.9669,13.0894,13.3427,13.4239,13.555,13.8111,13.8336,13.8301,13.8218,13.8206,13.8206,13.8206,13.8206,13.8206,13.8206,13.8206,13.8206,13.8206,13.8206,13.8206,13.8206,14.0606,14.228,14.3367,14.5064,14.6728,14.8244,14.8329,14.8353,14.8353,14.8353,14.8353,14.8365,14.8412,14.8412,14.8365,14.8412,14.8436,14.8436,14.8436,14.847,14.8516,14.8516,14.8516,14.8516,14.8516,14.8516,14.8516,14.8516,14.8516,14.8516,14.8516,14.9795,15.1437,15.3167,15.3994,15.5197,15.7892,15.8418,15.8418,15.8418,15.8418,15.8418,15.8418,15.8418,15.8418,15.8418,15.8418,15.8418,15.8418,15.8418,15.8418,15.8418,15.8418,15.8418,15.8418,15.8418,15.8418,15.8418,15.8418,15.8418,15.8418,15.8418,15.8418,15.8418,15.8418,15.8418,15.8418,15.8418,15.8418,15.8418,15.8418,15.8944,7.6796,8.6583,9.4627,9.5312,9.987,10.4653,10.6393,10.6334,10.6267,10.7317,11.4679,12.0225,11.7886,11.9795,12.269,12.5584,12.5262,12.5839,12.9161,12.9814,13.0987,13.3602,13.427,13.5608,13.8182,13.8471,13.8427,13.8336,13.8324,13.8324,13.8324,13.8324,13.8324,13.8324,13.8324,13.8324,13.8324,13.8324,13.8324,13.8324,14.005,14.1749,14.3569,14.4776,14.6418,14.8389,14.8482,14.8516,14.8516,14.8516,14.8516,14.8516,14.8516,14.8516,14.8516,14.8516,14.8516,14.8516,14.8516,14.8516,14.8516,14.8516,14.8516,14.8516,14.8516,14.8516,14.8516,14.8516,14.8516,14.8516,14.8516,14.9419,15.0697,15.2415,15.3167,15.4295,15.7065,15.8042,15.8418,15.8418,15.8418,15.8418,15.8418,15.8418,15.8418,15.8418,15.8418,15.8418,15.8418,15.8418,15.8418,15.8418,15.8418,15.8418,15.8418,15.8418,15.8418,15.8418,15.8418,15.8418,15.8418,15.8418,15.8418,15.8418,15.8418,15.8418,15.8418,15.8418,15.8418,15.8418,15.8418,15.9332,6.5107,7.6111,8.719,8.5524,9.3812,10.2926,10.4573,10.3675,10.3462,10.6802,11.2808,11.7445,11.737,11.8813,12.0488,12.2243,12.3914,12.6106,12.9244,13.1056,13.2622,13.3805,13.5399,13.7005,13.8482,13.8579,13.8579,13.8579,13.8579,13.8579,13.8579,13.8579,13.8579,13.8579,13.8579,13.8579,13.8579,13.8579,13.8579,13.8579,14.0309,14.2038,14.3681,14.3692,14.5422,14.8516,14.8516,14.8516,14.8516,14.8516,14.8516,14.8516,14.8516,14.8516,14.8516,14.8516,14.8516,14.8516,14.8516,14.8516,14.8516,14.8516,14.8516,14.8516,14.8516,14.8516,14.8516,14.8516,14.8516,14.8516,14.8516,14.8516,14.8967,15.0697,15.234,15.3994,15.5573,15.7215,15.8418,15.8418,15.8418,15.8418,15.8418,15.8418,15.8418,15.8418,15.8418,15.8418,15.8418,15.8418,15.8418,15.8418,15.8418,15.8418,15.8418,15.8418,15.8418,15.8418,15.8418,15.8418,15.8418,15.8418,15.8418,15.8418,15.8418,15.8418,15.8418,15.8418,15.8418,15.8418,15.8418,15.9332,6.5716,7.5134,8.4701,8.765,9.3742,9.8837,9.8202,10.2093,10.5219,10.2777,10.6734,11.1299,11.366,11.5484,11.8296,12.3387,12.3692,12.4829,12.9304,13.1247,13.2774,13.4262,13.5652,13.7104,13.8723,13.8689,13.859,13.859,13.859,13.859,13.859,13.859,13.859,13.859,13.859,13.859,13.859,13.859,13.859,13.859,13.9116,14.0309,14.1963,14.3091,14.482,14.6851,14.7978,14.8516,14.8516,14.8516,14.8516,14.8516,14.8516,14.8516,14.8516,14.8516,14.8516,14.8516,14.8516,14.8516,14.8516,14.8516,14.8516,14.8516,14.8516,14.8516,14.8516,14.8516,14.8516,14.8516,14.8516,14.8516,14.8967,15.061,15.234,15.3994,15.5561,15.7215,15.8418,15.8418,15.8418,15.8418,15.8418,15.8418,15.8418,15.8418,15.8418,15.8418,15.8418,15.8418,15.8418,15.8418,15.8418,15.8418,15.8418,15.8418,15.8418,15.8418,15.8418,15.8418,15.8418,15.8418,15.8418,15.8418,15.8418,15.8418,15.8418,15.8418,15.8418,15.8418,15.8418,15.9922,6.3147,7.15,8.0684,8.5078,8.9427,9.3082,9.4578,9.8993,10.1888,9.8691,10.2568,10.7206,10.9339,11.268,11.6402,12.0579,12.1946,12.3996,12.8476,13.1503,13.3675,13.462,13.6426,13.8004,13.8904,13.882,13.8689,13.8601,13.859,13.859,13.859,13.859,13.859,13.859,13.859,13.859,13.859,13.859,13.859,13.859,13.859,13.9482,14.1211,14.2865,14.4508,14.6087,14.7753,14.8516,14.8516,14.8516,14.8516,14.8516,14.8516,14.8516,14.8516,14.8516,14.8516,14.8516,14.8516,14.8516,14.8516,14.8516,14.8516,14.8516,14.8516,14.8516,14.8516,14.8516,14.8516,14.8516,14.8516,14.8516,14.8817,14.987,15.1362,15.3092,15.4671,15.6313,15.7666,15.8343,15.8418,15.8418,15.8418,15.8418,15.8418,15.8418,15.8418,15.8418,15.8418,15.8418,15.8418,15.8418,15.8418,15.8418,15.8418,15.8418,15.8418,15.8418,15.8418,15.8418,15.8418,15.8418,15.8418,15.8418,15.8418,15.8418,15.8418,15.8418,15.8418,15.8418,15.8418,16.0222,5.8532,6.6044,7.5525,7.9169,8.2226,8.6105,9.2473,9.4297,9.4529,9.4074,9.9238,10.3947,10.4026,10.9265,11.3973,11.4884,11.9212,12.3616,12.7033,13.1665,13.4698,13.4715,13.7506,13.9299,13.9078,13.898,13.8891,13.8663,13.8601,13.859,13.859,13.859,13.859,13.859,13.859,13.859,13.859,13.859,13.859,13.859,13.859,13.9407,14.0986,14.279,14.4433,14.5937,14.7753,14.8516,14.8516,14.8516,14.8516,14.8516,14.8516,14.8516,14.8516,14.8516,14.8516,14.8516,14.8516,14.8516,14.8516,14.8516,14.8516,14.8516,14.8516,14.8516,14.8516,14.8516,14.8516,14.8516,14.8516,14.8516,14.8516,14.8516,14.9795,15.1512,15.3167,15.4821,15.6388,15.8117,15.8418,15.8418,15.8418,15.8418,15.8418,15.8418,15.8418,15.8418,15.8418,15.8418,15.8418,15.8418,15.8418,15.8418,15.8418,15.8418,15.8418,15.8418,15.8418,15.8418,15.8418,15.8418,15.8418,15.8418,15.8418,15.8418,15.8418,15.8418,15.8418,15.8418,15.8568,16.0385,5.9292,6.5218,7.2886,8.0016,8.055,8.0022,8.2827,8.7465,8.9671,8.4507,8.8838,9.3927,9.5218,9.7799,10.3115,11.3441,11.9212,12.3616,12.7033,12.9691,13.212,13.4546,13.6559,13.824,13.931,13.9152,13.8991,13.8908,13.8698,13.859,13.859,13.859,13.859,13.859,13.859,13.859,13.859,13.859,13.859,13.859,13.859,13.8805,13.9267,14.2264,14.3843,14.4358,14.7227,14.8516,14.8516,14.8516,14.8516,14.8516,14.8516,14.8516,14.8516,14.8516,14.8516,14.8516,14.8516,14.8516,14.8516,14.8516,14.8516,14.8516,14.8516,14.8516,14.8516,14.8516,14.8516,14.8516,14.8516,14.8516,14.8516,14.8516,14.9795,15.1512,15.3167,15.4821,15.6388,15.8117,15.8418,15.8418,15.8418,15.8418,15.8418,15.8418,15.8418,15.8418,15.8418,15.8418,15.8418,15.8418,15.8418,15.8418,15.8418,15.8418,15.8418,15.8418,15.8418,15.8418,15.8418,15.8418,15.8418,15.8418,15.8418,15.8418,15.8418,15.8418,15.8418,15.8493,15.9708,16.1438,6.0283,6.431,6.9474,7.7142,7.7142,7.5851,7.828,8.1092,8.2081,7.8436,8.2993,8.7928,8.884,9.4231,10.0609,10.7063,11.2986,11.7921,12.1338,12.5211,12.8931,13.2272,13.5452,13.7929,13.9406,13.9404,13.9225,13.9175,13.8942,13.8804,13.8804,13.8618,13.859,13.859,13.859,13.859,13.859,13.859,13.859,13.859,13.859,13.859,13.8655,14.1286,14.2941,14.3768,14.6249,14.7753,14.8516,14.8516,14.8516,14.8516,14.8516,14.8516,14.8516,14.8516,14.8516,14.8516,14.8516,14.8516,14.8516,14.8516,14.8516,14.8516,14.8516,14.8516,14.8516,14.8516,14.8516,14.8516,14.8516,14.8516,14.8516,14.8516,14.9193,15.0321,15.2039,15.3693,15.5347,15.6914,15.7892,15.8418,15.8418,15.8418,15.8418,15.8418,15.8418,15.8418,15.8418,15.8418,15.8418,15.8418,15.8418,15.8418,15.8418,15.8418,15.8418,15.8418,15.8418,15.8418,15.8418,15.8418,15.8418,15.8418,15.8418,15.8418,15.8418,15.8418,15.8418,15.8493,16.016,16.1901,6.1197,6.378,6.6742,7.2742,7.3198,7.2894,7.5703,7.5476,7.464,7.464,7.9348,8.36,8.4132,9.2332,9.9166,9.947,10.433,10.9645,11.4049,12.0199,12.5438,12.8855,13.3867,13.7659,13.9128,13.9411,13.9508,13.9439,13.9195,13.9003,13.8956,13.8804,13.8653,13.859,13.859,13.859,13.859,13.859,13.859,13.859,13.859,13.859,13.8665,14.0309,14.2038,14.3768,14.5336,14.6926,14.8516,14.8516,14.8516,14.8516,14.8516,14.8516,14.8516,14.8516,14.8516,14.8516,14.8516,14.8516,14.8516,14.8516,14.8516,14.8516,14.8516,14.8516,14.8516,14.8516,14.8516,14.8516,14.8516,14.8516,14.8516,14.8516,14.8516,14.8967,15.0697,15.234,15.3994,15.5573,15.729,15.8418,15.8418,15.8418,15.8418,15.8418,15.8418,15.8418,15.8418,15.8418,15.8418,15.8418,15.8418,15.8418,15.8418,15.8418,15.8418,15.8418,15.8418,15.8418,15.8418,15.8418,15.8418,15.8418,15.8418,15.8418,15.8418,15.8418,15.8418,15.8493,16.046,16.2127,6.1805,6.4692,6.7655,7.016,7.054,7.054,7.0996,7.2059,7.2894,7.2894,7.4868,7.745,8.0335,8.2309,8.6713,9.6357,9.8787,10.2659,11.1695,11.739,12.1946,12.5362,13.1513,13.6069,13.7586,13.884,13.9544,13.9527,13.9372,13.9227,13.8964,13.8975,13.8802,13.8601,13.859,13.859,13.859,13.859,13.859,13.859,13.859,13.859,13.8665,14.0309,14.2038,14.3768,14.5336,14.6926,14.8516,14.8516,14.8516,14.8516,14.8516,14.8516,14.8516,14.8516,14.8516,14.8516,14.8516,14.8516,14.8516,14.8516,14.8516,14.8516,14.8516,14.8516,14.8516,14.8516,14.8516,14.8516,14.8516,14.8516,14.8516,14.8516,14.8516,14.8967,15.0697,15.234,15.3994,15.5573,15.729,15.8418,15.8418,15.8418,15.8418,15.8418,15.8418,15.8418,15.8418,15.8418,15.8418,15.8418,15.8418,15.8418,15.8418,15.8418,15.8418,15.8418,15.8418,15.8418,15.8418,15.8418,15.8418,15.8418,15.8418,15.8418,15.8418,15.8418,15.8418,15.8493,16.1663,16.3242,6.4231,6.8261,7.1527,7.1375,7.1375,7.1072,7.016,7.0616,7.1148,7.1148,7.2514,7.4413,7.6918,8.0335,8.4511,8.9827,9.3851,9.8407,10.4785,11.3897,12.1186,12.4603,13.0905,13.5613,13.7284,13.8872,13.9772,13.9772,13.9615,13.9422,13.9334,13.9207,13.9063,13.8784,13.8775,13.8775,13.8775,13.8704,13.859,13.859,13.859,13.859,13.859,13.9407,14.0685,14.2339,14.3993,14.5647,14.7227,14.8129,14.8516,14.8516,14.8516,14.8516,14.8516,14.8516,14.8516,14.8516,14.8516,14.8516,14.8516,14.8516,14.8516,14.8516,14.8516,14.8516,14.8516,14.8516,14.8516,14.8516,14.8516,14.8516,14.8516,14.8516,14.8516,14.8742,14.9494,15.0986,15.2716,15.4295,15.5937,15.7365,15.8268,15.8418,15.8418,15.8418,15.8418,15.8418,15.8418,15.8418,15.8418,15.8418,15.8418,15.8418,15.8418,15.8418,15.8418,15.8418,15.8418,15.8418,15.8418,15.8418,15.8418,15.8418,15.8418,15.8418,15.8418,15.8418,15.8418,15.8493,16.1889,16.3468,6.8938,0.0,7.6083,7.5552,7.4564,7.335,0.0,7.0844,7.0009,7.0009,7.0996,7.2514,7.464,7.9196,8.3145,8.4663,8.9599,9.4838,9.9318,10.9113,11.7542,12.2097,12.9235,13.4246,13.5537,13.8271,13.9941,13.9941,13.9771,13.9655,13.9555,13.945,13.9352,13.9078,13.9134,13.9106,13.8956,13.8823,13.8669,13.8659,13.8632,13.8642,13.8659,13.8632,13.9557,14.1211,14.2941,14.4508,14.6087,14.7828,14.8516,14.8516,14.8516,14.8516,14.8516,14.8516,14.8516,14.8516,14.8516,14.8516,14.8516,14.8516,14.8516,14.8516,14.8516,14.8516,14.8516,14.8516,14.8516,14.8516,14.8516,14.8516,14.8516,14.8516,14.8516,14.8516,14.8516,14.987,15.1512,15.3242,15.4821,15.6463,15.8117,15.8418,15.8418,15.8418,15.8418,15.8418,15.8418,15.8418,15.8418,15.8418,15.8418,15.8418,15.8418,15.8418,15.8418,15.8418,15.8418,15.8418,15.8418,15.8418,15.8418,15.8418,15.8418,15.8418,15.8418,15.8418,15.8418,15.8493,16.1513,16.3092,0.0,7.9348,8.0411,8.3297,8.0639,7.7146,7.707,7.335,0.0,7.0009,7.0085,7.1148,7.4413,7.54,7.7754,8.3904,8.6713,9.0814,9.8787,10.2128,10.6683,11.4808,12.4451,13.045,13.0526,13.6297,13.9941,13.9941,13.9941,13.9855,13.9558,13.9544,13.9477,13.9357,13.9454,13.9382,13.8956,13.9,13.8991,13.8908,13.8708,13.8718,13.8975,13.8698,13.9557,14.1211,14.2941,14.4508,14.6087,14.7828,14.8516,14.8516,14.8516,14.8516,14.8516,14.8516,14.8516,14.8516,14.8516,14.8516,14.8516,14.8516,14.8516,14.8516,14.8516,14.8516,14.8516,14.8516,14.8516,14.8516,14.8516,14.8516,14.8516,14.8516,14.8516,14.8516,14.8516,14.987,15.1512,15.3242,15.4821,15.6463,15.8117,15.8418,15.8418,15.8418,15.8418,15.8418,15.8418,15.8418,15.8418,15.8418,15.8418,15.8418,15.8418,15.8418,15.8418,15.8418,15.8418,15.8418,15.8418,15.8418,15.8418,15.8418,15.8418,15.8418,15.8418,15.8418,15.8418,15.8493,16.031,16.1977,8.2172,8.5902,8.8958,8.8199,8.6629,8.398,7.8741,7.6083,7.3805,7.0616,7.0009,7.0996,7.4413,7.502,7.7222,8.3828,8.5499,8.9903,10.1444,10.357,10.8278,11.9895,12.5514,12.9691,13.288,13.455,13.66,13.9713,13.9941,13.994,13.9854,13.9777,13.9769,13.9742,13.9644,13.9508,13.9377,13.9242,13.9234,13.9234,13.9127,13.9033,13.8948,13.8891,13.9068,13.9707,14.2489,14.3993,0.0,14.7377,14.8516,14.8516,14.8516,14.8516,14.8516,14.8516,14.8516,14.8516,14.8516,14.8516,14.8516,14.8516,14.8516,14.8516,14.8516,14.8516,14.8516,14.8516,14.8516,14.8516,14.8516,14.8516,14.8516,14.8516,14.8516,14.8516,14.8516,14.9043,14.9945,15.1663,15.3317,15.4971,15.6538,15.7741,15.8418,15.8418,15.8418,15.8418,15.8418,15.8418,15.8418,15.8418,15.8418,15.8418,15.8418,15.8418,15.8418,15.8418,15.8418,15.8418,15.8418,15.8418,15.8418,15.8418,15.8418,15.8418,15.8418,15.8418,15.8418,15.8493,16.016,16.1901,8.8478,9.2681,9.5919,9.4703,9.2866,8.9649,8.2981,7.934,7.6154,7.1679,7.0312,7.0996,7.4413,7.502,7.707,8.3145,8.5043,9.0054,10.2431,10.5089,11.0176,12.1946,12.4375,12.7109,13.2196,13.3563,13.5765,13.9638,13.9941,13.9941,13.9941,13.9941,13.9941,13.9941,13.9773,13.9662,13.9553,13.9458,13.94,13.9395,13.9409,13.9329,13.9158,13.9048,13.8891,13.8859,14.1651,14.3166,14.3843,14.655,14.8065,14.8516,14.8516,14.8516,14.8516,14.8516,14.8516,14.8516,14.8516,14.8516,14.8516,14.8516,14.8516,14.8516,14.8516,14.8516,14.8516,14.8516,14.8516,14.8516,14.8516,14.8516,14.8516,14.8516,14.8516,14.8516,14.8516,14.8516,14.9043,15.0697,15.2415,15.4069,15.5636,15.729,15.8418,15.8418,15.8418,15.8418,15.8418,15.8418,15.8418,15.8418,15.8418,15.8418,15.8418,15.8418,15.8418,15.8418,15.8418,15.8418,15.8418,15.8418,15.8418,15.8418,15.8418,15.8418,15.8418,15.8418,15.8418,15.8418,15.9633,16.1062,9.6837,9.9559,10.0396,10.3592,9.9491,9.3759,9.0553,8.3291,7.641,7.3196,7.1224,7.1072,7.4413,7.502,7.6691,8.1626,8.5271,9.1042,10.1064,10.5393,11.0632,11.8984,11.9971,12.1946,12.7033,13.3487,13.8119,13.9789,13.9941,13.9941,13.9941,13.9941,13.9941,13.9941,13.9941,13.9857,13.9555,13.9555,13.9555,13.9553,13.9404,13.9489,13.9544,13.9158,13.8956,13.9091,14.0506,14.2124,14.3768,14.5336,14.7001,14.8516,14.8516,14.8516,14.8516,14.8516,14.8516,14.8516,14.8516,14.8516,14.8516,14.8516,14.8516,14.8516,14.8516,14.8516,14.8516,14.8516,14.8516,14.8516,14.8516,14.8516,14.8516,14.8516,14.8516,14.8516,14.8516,14.8516,14.9043,15.0697,15.2415,15.4069,15.5636,15.729,15.8418,15.8418,15.8418,15.8418,15.8418,15.8418,15.8418,15.8418,15.8418,15.8418,15.8418,15.8418,15.8418,15.8418,15.8418,15.8418,15.8418,15.8418,15.8418,15.8418,15.8418,15.8418,15.8418,15.8418,15.8418,15.8418,15.8418,15.9332,9.7279,10.1829,10.6338,10.6105,10.4633,10.0882,9.1753,8.78,8.3834,7.5824,7.38,7.4185,7.6387,7.6842,7.8437,8.3373,8.8004,9.4155,10.2963,10.8126,11.4125,12.2477,12.3464,12.4072,12.559,13.0754,13.5158,13.7967,13.9258,13.9941,13.9941,13.9941,13.9941,13.9941,13.9941,13.9941,13.9858,13.9858,13.9858,13.9858,13.9768,13.9668,13.955,13.9469,13.9348,13.9328,14.0752,14.2326,14.3882,14.5391,14.7001,14.8516,14.8516,14.8516,14.8516,14.8516,14.8516,14.8516,14.8516,14.8516,14.8516,14.8516,14.8516,14.8516,14.8516,14.8516,14.8516,14.8516,14.8516,14.8516,14.8516,14.8516,14.8516,14.8516,14.8516,14.8516,14.8516,14.8516,14.8667,14.9118,15.1588,15.3693,15.4144,15.6538,15.8418,15.8418,15.8418,15.8418,15.8418,15.8418,15.8418,15.8418,15.8418,15.8418,15.8418,15.8418,15.8418,15.8418,15.8418,15.8418,15.8418,15.8418,15.8418,15.8418,15.8418,15.8418,15.8418,15.8418,15.8418,15.8418,15.8418,15.8719,10.1473,10.5191,10.8871,10.7801,10.7182,10.407,9.3845,9.045,8.697,7.7638,7.5264,7.5828,7.8883,7.8885,8.0331,8.603,9.013,9.5446,10.3798,10.9341,11.5643,12.3996,12.559,12.6274,12.6957,13.0374,13.3639,13.6221,13.865,13.9941,13.9941,13.9941,13.9941,13.9941,13.9941,13.9941,13.9941,13.9941,13.9941,13.9941,13.9941,13.9862,13.9758,13.9572,13.9511,13.9484,14.0312,14.1474,14.2993,14.4494,14.6025,14.7602,14.8215,14.8516,14.8516,14.8516,14.8516,14.8516,14.8516,14.8516,14.8516,14.8516,14.8516,14.8516,14.8516,14.8516,14.8516,14.8516,14.8516,14.8516,14.8516,14.8516,14.8516,14.8516,14.8516,14.8516,14.8516,14.8516,14.8516,14.8516,15.0697,15.2791,15.3467,15.5711,15.7666,15.8343,15.8418,15.8418,15.8418,15.8418,15.8418,15.8418,15.8418,15.8418,15.8418,15.8418,15.8418,15.8418,15.8418,15.8418,15.8418,15.8418,15.8418,15.8418,15.8418,15.8418,15.8418,15.8418,15.8418,15.8418,15.8418,15.8418,10.7291,10.8645,10.887,10.887,10.7826,10.4573,9.6368,9.1971,8.7432,7.9234,7.6246,7.6678,8.1796,8.1505,8.2814,8.975,9.256,9.666,10.4557,11.0176,11.6327,12.4072,12.6501,12.8172,12.9918,13.1437,13.3032,13.455,13.7663,13.9562,13.9713,13.9865,13.9941,13.9941,13.9941,13.9941,13.9941,13.9941,13.9941,13.9941,13.9941,13.9941,13.9941,13.968,13.9644,13.9563,13.9417,14.0185,14.167,14.3034,14.4617,14.6143,14.77,14.8366,14.8516,14.8516,14.8516,14.8516,14.8516,14.8516,14.8516,14.8516,14.8516,14.8516,14.8516,14.8516,14.8516,14.8516,14.8516,14.8516,14.8516,14.8516,14.8516,14.8516,14.8516,14.8516,14.8516,14.8516,14.8516,14.8516,14.987,15.1512,15.3092,15.4746,15.6388,15.7967,15.8343,15.8418,15.8418,15.8418,15.8418,15.8418,15.8418,15.8418,15.8418,15.8418,15.8418,15.8418,15.8418,15.8418,15.8418,15.8418,15.8418,15.8418,15.8418,15.8418,15.8418,15.8418,15.8418,15.8418,15.8418,15.8418,10.542,10.6923,10.887,10.887,10.8569,10.618,9.7967,9.4583,9.0802,8.2566,7.9666,8.0177,8.5291,8.5911,8.8359,9.6508,10.1444,10.5848,11.0328,11.6327,12.149,12.4603,12.6501,12.8172,12.9918,13.0374,13.1285,13.2956,13.5006,13.6676,13.7891,13.9258,13.9941,13.9941,13.9941,13.9941,13.9941,13.9941,13.9941,13.9941,13.9941,13.9941,13.9941,13.9864,13.9861,13.986,13.9641,14.0477,14.2008,14.2015,14.3714,14.6314,14.6456,14.7377,14.8516,14.8516,14.8516,14.8516,14.8516,14.8516,14.8516,14.8516,14.8516,14.8516,14.8516,14.8516,14.8516,14.8516,14.8516,14.8516,14.8516,14.8516,14.8516,14.8516,14.8516,14.8516,14.8516,14.8516,14.8516,14.8516,14.987,15.1137,15.1512,15.3994,15.6012,15.6388,15.7591,15.8418,15.8418,15.8418,15.8418,15.8418,15.8418,15.8418,15.8418,15.8418,15.8418,15.8418,15.8418,15.8418,15.8418,15.8418,15.8418,15.8418,15.8418,15.8418,15.8418,15.8418,15.8418,15.8418,15.8418,15.8418,10.6547,10.7592,10.887,10.887,10.887,10.7141,10.0457,9.7099,9.3503,8.6658,8.344,8.3166,8.757,8.9668,9.2658,9.8936,10.4096,10.8875,11.3137,11.8073,12.2477,12.5818,12.7716,12.9083,12.9994,13.007,13.0754,13.2424,13.3411,13.4246,13.5082,13.6676,13.7891,13.8726,13.9562,13.9941,13.9941,13.9941,13.9941,13.9941,13.9941,13.9941,13.9941,13.9941,13.9941,13.9941,13.9853,14.0201,14.0904,14.1561,14.2753,14.4255,14.5644,14.6697,14.758,14.8293,14.8516,14.8516,14.8516,14.8516,14.8516,14.8516,14.8516,14.8516,14.8516,14.8516,14.8516,14.8516,14.8516,14.8516,14.8516,14.8516,14.8516,14.8516,14.8516,14.8516,14.8516,14.8516,14.8516,14.8516,14.9268,15.0095,15.0911,15.2415,15.4069,15.5636,15.6689,15.7516,15.8343,15.7741,15.7516,15.8343,15.8418,15.8418,15.8418,15.8418,15.8418,15.8418,15.8418,15.8418,15.8418,15.8418,15.8418,15.8418,15.8418,15.8418,15.8418,15.8418,15.8418,15.8418,15.8418,15.8418,10.8269,10.887,10.887,10.887,10.887,10.7592,10.2946,9.963,9.6096,9.129,8.7975,8.7162,9.1355,9.4294,9.7526,10.2099,10.6339,11.0734,11.5639,11.8908,12.2477,12.6957,12.9007,13.007,13.007,13.007,13.0602,13.2044,13.212,13.2272,13.2576,13.3791,13.5309,13.698,13.865,13.9638,13.9941,13.9941,13.9941,13.9941,13.9941,13.9941,13.9941,13.9941,13.9941,13.9941,13.9941,13.9857,13.9731,14.1073,14.1676,14.2046,14.4564,14.5726,14.6206,14.7646,14.8176,14.8165,14.8464,14.8516,14.8441,14.814,14.8291,14.8516,14.8516,14.8516,14.8516,14.8516,14.8516,14.8516,14.8516,14.8516,14.8516,14.8516,14.8516,14.8516,14.8516,14.8516,14.8516,14.8516,14.8516,14.8967,15.0385,15.0847,15.1964,15.4671,15.5347,15.6087,15.7741,15.6538,15.6012,15.7441,15.7591,15.7666,15.7967,15.7967,15.8117,15.8418,15.8418,15.8418,15.8418,15.8418,15.8418,15.8418,15.8418,15.8418,15.8418,15.8418,15.8418,15.8418,15.8418,15.8418,10.7592,10.887,10.887,10.887,10.887,10.7968,10.4442,10.2194,9.9863,9.6321,9.4066,9.4711,10.1062,10.2596,10.5464,11.3338,11.5361,11.7171,12.0828,12.3076,12.5135,12.7261,12.9007,13.007,13.007,13.007,13.0146,13.0374,13.0374,13.0981,13.25,13.2728,13.3639,13.5385,13.698,13.8499,13.9941,13.9941,13.9941,13.9941,13.9941,13.9941,13.9941,13.9941,13.9941,13.9941,13.9941,13.9941,13.9863,13.9891,14.0753,14.2084,14.2278,14.3243,14.4714,14.6147,14.6698,14.6803,14.8111,14.8516,14.8291,14.6775,14.7302,14.8516,14.8516,14.8516,14.8516,14.8516,14.8516,14.8516,14.8516,14.8516,14.8516,14.8516,14.8516,14.8516,14.8516,14.8516,14.8516,14.8516,14.8516,14.8591,14.8817,15.0095,15.1212,15.1588,15.2941,15.4445,15.6012,15.4821,15.3919,15.4219,15.4219,15.4746,15.6087,15.6238,15.6839,15.8343,15.8418,15.8418,15.8418,15.8418,15.8418,15.8418,15.8418,15.8418,15.8418,15.8418,15.8418,15.8418,15.8418,15.8418,10.6172,10.8193,10.887,10.887,10.887,10.8494,10.7074,10.4743,10.2495,10.1058,9.9404,9.9132,10.2194,10.5738,10.955,11.347,11.6466,11.9153,12.1685,12.3565,12.5291,12.7084,12.8833,12.9905,12.9994,13.007,13.007,13.007,13.007,13.0373,13.1133,13.1133,13.1892,13.3639,13.4322,13.5461,13.7132,13.8043,13.903,13.9941,13.9941,13.9941,13.9941,13.9941,13.9941,13.9941,13.9941,13.9941,13.9941,13.9861,14.0237,14.099,14.1642,14.2419,14.317,14.4663,14.5117,14.5014,14.5682,14.589,14.5786,14.5032,14.5817,14.7076,14.7076,14.7753,14.8516,14.8516,14.8516,14.8516,14.8516,14.8516,14.8516,14.8516,14.8516,14.8516,14.8516,14.8516,14.8516,14.8516,14.8516,14.8516,14.8516,14.9118,14.9945,15.0911,15.1663,15.2415,15.3092,15.2565,15.249,15.3467,15.3543,15.3843,15.452,15.4595,15.4896,15.5648,15.5711,15.5711,15.5711,15.5711,15.5711,15.5711,15.5711,15.6099,15.6989,15.6989,15.7516,15.8418,15.8418,15.8418,10.354,10.6096,10.7291,10.8569,10.887,10.887,10.887,10.6999,10.5269,10.5269,10.4592,10.4137,10.471,10.9091,11.2863,11.3563,11.673,11.9765,12.1521,12.2893,12.4581,12.6751,12.8205,12.9225,12.9817,12.9908,12.9912,12.9907,12.9899,12.9979,13.0069,13.0065,13.0597,13.1892,13.2348,13.3107,13.4322,13.5917,13.7663,13.9333,13.9333,13.956,13.994,13.994,13.994,13.994,13.9935,13.9937,13.994,13.9935,13.9933,14.0088,14.1142,14.1581,14.1735,14.3186,14.3539,14.33,14.2928,14.2991,14.328,14.328,14.431,14.5516,14.5516,14.6348,14.7391,14.7809,14.7884,14.8023,14.8452,14.8516,14.8516,14.8516,14.8516,14.8516,14.8516,14.8516,14.8516,14.8516,14.8516,14.8516,14.8516,14.8516,14.8967,15.017,15.0396,15.0396,15.0396,15.0396,15.0911,15.2114,15.2264,15.2415,15.2866,15.2941,15.3092,15.3543,15.3543,15.3543,15.3543,15.3543,15.3543,15.3543,15.3543,15.4144,15.5272,15.5272,15.5937,15.714,15.714,15.7365,9.9111,10.1743,10.2946,10.7667,10.887,10.887,10.887,10.872,10.8569,10.8569,10.9772,11.136,11.2965,11.4836,11.6605,11.7978,11.8784,11.9664,12.1131,12.1691,12.3163,12.6386,12.6951,12.7732,12.9323,12.9627,12.9599,12.9534,12.9527,12.9661,13.0049,13.005,13.0056,13.0141,13.1736,13.2574,13.2652,13.4244,13.5909,13.7569,13.7569,13.8404,13.9921,13.9921,13.9921,13.9921,13.992,13.992,13.9921,13.992,13.992,13.992,14.0,14.0077,14.0234,14.1677,14.2182,14.1952,14.0363,14.0683,14.1848,14.1848,14.2911,14.4118,14.4118,14.4134,14.4361,14.5917,14.6262,14.6617,14.8087,14.8516,14.8516,14.8516,14.8516,14.8516,14.8516,14.8516,14.8516,14.8516,14.8516,14.8516,14.8516,14.8516,14.8516,14.8591,14.8667,14.8667,14.8667,14.8667,14.8667,14.8742,14.8742,14.9419,15.1061,15.1137,15.1813,15.3467,15.3543,15.3543,15.3543,15.3543,15.3543,15.3543,15.3543,15.3618,15.3693,15.3693,15.3693,15.3843,15.3843,15.4595,9.4449,9.8128,10.0906,10.5852,10.7129,10.7429,10.8462,10.8762,10.8762,10.8762,11.0864,11.2965,11.3575,11.5902,11.7994,11.848,11.8702,11.8954,11.9491,12.0566,12.1755,12.3083,12.4251,12.5617,12.7441,12.7469,12.7407,12.7355,12.8528,12.9309,12.9655,12.9643,12.9756,13.0055,13.0664,13.0969,13.0973,13.2488,13.3547,13.4226,13.5289,13.6655,13.8326,13.8326,13.8933,13.9995,13.9984,13.9986,13.9993,13.9984,13.9979,13.998,13.999,13.9989,13.9984,14.0543,14.0623,14.0383,14.0013,14.0017,14.0355,14.0355,14.1325,14.2516,14.2516,14.3175,14.4056,14.4628,14.4757,14.4783,14.5345,14.5486,14.5776,14.6757,14.7036,14.7251,14.8302,14.8516,14.8516,14.8516,14.8516,14.8516,14.8516,14.8516,14.8516,14.8516,14.8615,14.8784,14.8784,14.8925,14.8987,14.8987,14.8987,14.9214,14.9886,14.9886,15.01,15.0528,15.0746,15.0667,15.0344,15.0443,15.0453,15.0321,15.0321,15.0836,15.1964,15.1964,15.249,15.3543,15.3543,15.3843,8.8068,9.2111,9.5937,10.1496,10.3663,10.5079,10.732,10.7845,10.7985,10.851,11.0835,11.272,11.272,11.5494,11.7724,11.7683,11.8164,11.8528,11.8465,11.9428,12.0406,12.1106,12.2138,12.354,12.535,12.4803,12.4594,12.5255,12.6998,12.8152,12.8456,12.9101,12.9574,12.9846,12.9953,12.9968,13.0049,13.1032,13.1485,13.1561,13.3226,13.4667,13.5729,13.6337,13.7172,13.8233,13.8295,13.8599,13.9066,13.9128,13.9425,13.9959,13.9973,13.9969,13.9959,13.9973,13.9852,13.9712,13.9891,13.983,13.9711,13.9711,14.0309,14.1068,14.1068,14.1721,14.2614,14.3197,14.3294,14.334,14.3798,14.3906,14.4163,14.517,14.539,14.5649,14.6627,14.6884,14.7001,14.7527,14.7678,14.7828,14.8441,14.8516,14.8516,14.8516,14.869,14.8811,14.8979,14.9186,14.929,14.929,14.929,14.929,14.929,14.929,14.9218,14.9018,14.9193,14.9133,14.8755,14.8967,14.8983,14.8812,14.8727,14.933,15.0462,15.0462,15.098,15.2111,15.2111,15.2413,7.9974,8.3643,8.7761,9.4603,9.8646,10.1779,10.5229,10.5979,10.6495,10.8126,10.986,11.1079,11.1079,11.3779,11.5914,11.579,11.7277,11.8401,11.8108,11.8412,11.9107,12.0659,12.0831,12.1505,12.3155,12.1749,12.1515,12.3381,12.497,12.6031,12.6542,12.8325,12.938,12.9431,12.9661,12.9876,13.0045,12.9879,12.987,12.987,13.1518,13.2265,13.2341,13.4013,13.485,13.4926,13.4926,13.5834,13.7349,13.7349,13.8338,13.978,13.9856,13.9856,13.9856,13.9856,13.9856,13.9856,13.9856,13.9932,13.9932,13.9932,13.9914,13.9789,13.9789,13.9697,13.9929,14.1411,14.1853,14.2184,14.3503,14.3872,14.3876,14.3768,14.3673,14.3593,14.3668,14.3661,14.4112,14.5617,14.5906,14.6444,14.811,14.8411,14.8486,14.8486,14.8411,14.8575,14.9091,14.9156,14.9231,14.9313,14.9313,14.9313,14.9313,14.9313,14.9313,14.9302,14.9307,14.9307,14.929,14.9302,14.9302,14.929,14.929,14.929,14.929,14.929,14.929,14.929,14.929,15.0123,7.6427,7.755,8.0088,9.1465,9.3195,9.3944,10.0737,10.2299,10.2823,10.4469,10.7098,10.9054,10.9054,11.1813,11.4048,11.4005,11.5373,11.6432,11.6365,11.7457,11.8463,11.8878,11.8912,11.9159,11.9608,12.03,12.0921,12.1505,12.2992,12.4537,12.6021,12.6663,12.7598,12.8969,12.937,12.955,12.9638,12.9737,12.9851,12.9851,13.0299,13.0522,13.0598,13.2268,13.3709,13.4926,13.4926,13.5151,13.5606,13.5606,13.591,13.6441,13.7655,13.8111,13.7959,13.6745,13.7048,13.8111,13.8111,13.8945,13.9932,13.9932,13.9952,13.9897,13.9897,13.9784,13.9783,14.0235,14.0279,14.0286,14.069,14.0827,14.111,14.2152,14.2419,14.2695,14.3861,14.4064,14.4203,14.4651,14.4688,14.4889,14.5343,14.6437,14.7233,14.7233,14.6182,14.5509,14.5877,14.6962,14.8282,14.9704,14.9861,14.9861,14.9861,14.9861,14.9759,14.9594,14.975,14.9648,14.9307,14.9442,14.9451,14.9296,14.929,14.929,14.929,14.929,14.929,14.929,14.929,14.9517,6.9618,7.0522,7.2759,8.1201,8.2854,8.4582,9.2865,9.5258,9.6977,10.1464,10.3856,10.5586,10.7007,10.94,11.1419,11.2167,11.3662,11.4933,11.5532,11.6504,11.7401,11.8085,11.816,11.816,11.816,11.9058,11.9656,11.9656,12.114,12.2538,12.3722,12.4516,12.5543,12.6664,12.7657,12.8244,12.8244,12.9221,12.9683,12.9686,12.9818,12.9842,12.9918,13.0902,13.1812,13.2801,13.2801,13.3181,13.3861,13.3861,13.4241,13.5002,13.5986,13.6365,13.6289,13.5303,13.5531,13.6365,13.6365,13.7048,13.7807,13.7807,13.8338,13.887,13.887,13.9364,13.985,13.985,13.9788,13.9709,13.9692,13.9609,13.9825,14.0677,14.0877,14.1087,14.1968,14.2176,14.2311,14.3069,14.3199,14.3408,14.4086,14.5047,14.5544,14.5078,14.474,14.4618,14.4793,14.563,14.6697,14.7835,14.791,14.7911,14.7913,14.8597,14.8974,14.8797,14.958,14.9953,14.9618,14.9754,14.9759,14.9614,14.9611,14.9611,14.9611,14.9611,14.9611,14.9611,14.9611,14.9232,6.0944,6.2744,6.5661,6.8116,7.0733,7.4927,0.0,8.6152,8.9443,9.7127,9.8837,10.0043,10.3343,10.5746,10.7765,10.941,11.1568,11.3513,11.4933,11.5457,11.613,11.7487,11.7775,11.7924,11.7924,11.8085,11.816,11.816,11.9581,12.0478,12.0703,12.2392,12.3352,12.3578,12.5299,12.6217,12.6217,12.7935,12.8955,12.9112,12.9361,12.9582,12.9824,12.9824,12.9829,12.9842,12.9842,13.0674,13.2116,13.2116,13.2951,13.4395,13.4547,13.4471,13.4319,13.4319,13.4471,13.462,13.462,13.4774,13.4926,13.4926,13.591,13.7122,13.7122,13.8187,13.9401,13.9628,13.9628,13.9651,13.9783,13.9788,13.9789,13.968,13.9494,13.9403,13.9403,13.9378,13.9736,14.1249,14.1549,14.2001,14.3508,14.3883,14.3588,14.236,14.3482,14.4471,14.4472,14.4624,14.4702,14.4703,14.4931,14.5012,14.5022,14.6394,14.723,14.723,14.8673,14.9508,14.9509,14.9509,14.9509,14.9509,14.9509,14.9509,14.9509,14.9509,14.9509,14.9509,14.9509,14.8597,0.0,0.0,0.0,0.0,0.0,0.0,0.0,7.8524,7.9945,8.4192,8.6136,8.8088,9.1387,9.6622,10.096,10.2585,10.7605,11.1429,11.1654,11.4036,11.5307,11.441,11.5382,11.613,11.613,11.7401,11.816,11.816,11.8534,11.9282,12.064,12.1105,12.1898,12.3149,12.384,12.4215,12.4215,12.4791,12.5768,12.7108,12.7181,12.7987,12.9507,12.9507,12.9661,12.9842,12.9842,13.0069,13.0373,13.0373,13.0525,13.098,13.2343,13.204,13.0828,13.0828,13.166,13.2875,13.2875,13.3785,13.4926,13.4926,13.5151,13.5379,13.5379,13.5606,13.6138,13.7504,13.788,13.8189,13.9577,13.9887,13.9891,13.9906,13.9837,13.9838,13.9838,13.9841,13.992,14.0224,14.0308,14.0389,14.0769,14.1912,14.2288,14.072,14.0709,14.0943,14.096,14.21,14.2943,14.2955,14.4171,14.5008,14.5011,14.5317,14.547,14.547,14.5773,14.6006,14.6013,14.6013,14.6014,14.6016,14.6016,14.6016,14.6016,14.6016,14.6016,14.6016,14.6016,14.5105,0.0,0.0,0.0,0.0,0.0,0.0,0.0,0.0,0.0,0.0,0.0,8.1366,8.5479,0.0,9.5641,9.8099,10.4016,10.8662,10.941,11.1654,11.2914,11.2167,11.3513,11.4485,11.4485,11.598,11.6952,11.6952,11.77,11.8534,11.9431,11.9431,11.9805,12.0616,12.1623,12.2201,12.2201,12.3302,12.4235,12.5056,12.5236,12.5761,12.6725,12.6906,12.7011,12.7173,12.7314,12.7869,12.8701,12.8701,12.9159,12.9766,12.9004,12.8172,12.7489,12.84,12.9232,13.0067,13.0826,13.166,13.2346,13.2346,13.2951,13.3633,13.3633,13.4241,13.5078,13.591,13.6138,13.6365,13.72,13.7428,13.7655,13.849,13.8718,13.8945,13.978,13.9932,13.9932,13.9932,13.9945,13.9952,13.9952,14.0646,14.095,14.0089,13.9932,13.9937,13.995,14.0711,14.0566,13.8831,14.0958,14.1797,14.0136,14.1502,14.2872,14.3715,14.4551,14.5011,14.5016,14.5017,14.464,14.3733,14.3736,14.3357,14.2446,14.2447,14.2447,14.2371,13.9104,13.7507,0.0,0.0,0.0,0.0,0.0,0.0,0.0,0.0,0.0,0.0,0.0,0.0,0.0,0.0,0.0,9.265,9.9305,10.4764,10.7007,10.8513,10.9485,10.9859,11.1643,11.284,11.284,11.426,11.5232,11.5232,11.6728,11.77,11.77,11.7999,11.816,11.816,11.9506,12.0254,12.0254,12.1771,12.2703,12.3088,12.3264,0.0,12.3953,12.4175,12.4284,12.4341,12.4746,12.5637,12.6927,12.7024,12.779,12.8628,12.6047,12.4985,12.5137,12.65,12.7031,12.7183,12.8476,12.9159,12.9386,12.9386,13.0522,13.1888,13.1888,13.2875,0.0,13.4316,13.4392,13.4468,13.485,13.4926,13.5227,13.6593,13.697,13.7276,13.8718,13.9021,13.9021,13.9021,13.9249,13.9477,13.9477,13.8642,13.7807,13.7127,13.7051,13.72,13.7504,13.8111,13.7579,13.5154,13.7959,13.888,13.609,13.7762,13.9819,14.1883,14.2644,14.2874,14.2573,14.2573,14.1437,13.9163,13.8793,13.8265,13.7581,13.7206,13.7359,13.789,13.0213,12.7851,0.0,0.0,0.0,0.0,0.0,0.0,0.0,0.0,0.0,0.0,0.0,0.0,0.0,0.0,0.0,0.0,9.093,9.8781,10.3343,10.4165,10.4838,10.6334,10.9186,11.1056,11.1056,11.2615,11.3587,11.3587,11.5083,11.598,11.598,11.7401,0.0,0.0,0.0,11.8459,11.8459,11.8665,11.9522,12.1019,12.1075,12.1996,12.3643,12.3688,12.3815,12.4099,12.4336,12.4568,12.4809,12.5097,12.5364,12.5516,12.5137,12.4985,12.4985,12.5213,12.5288,12.5288,12.544,0.0,0.0,12.779,12.8853,13.0145,13.0145,13.0297,13.0752,13.2268,13.2647,13.3026,13.4544,13.4926,13.4926,13.5151,13.5227,13.5227,13.5457,13.5457,13.5457,13.5457,13.6669,13.7729,13.7729,13.3937,12.9993,12.711,12.6654,12.7262,12.8701,13.1433,13.3633,13.4774,13.7959,0.0,13.9406,13.6978,13.6828,14.0018,13.759,13.5398,13.3823,13.3825,13.1632,12.7017,12.5502,12.611,12.8918,12.7401,12.8235,13.0891,11.973,11.6996,0.0,0.0,0.0,0.0,0.0,0.0,0.0,0.0,0.0,0.0,0.0,0.0,0.0,0.0,0.0,0.0,8.5928,9.1761,9.1977,9.5258,9.937,10.3941,10.6558,10.8363,10.9261,11.0831,11.1867,11.1867,11.3363,11.4335,11.4335,11.5008,11.5756,11.6653,11.6728,11.7177,11.816,11.816,11.8534,11.9207,11.9207,11.9694,12.0498,12.0589,12.0792,12.0886,12.1119,12.1767,12.2773,12.3141,12.3815,12.441,0.0,0.0,0.0,0.0,12.2576,12.3695,12.4606,12.544,12.6047,12.6047,12.6503,12.7034,12.7034,12.7034,12.7186,12.7869,12.8777,12.9687,13.0446,13.1281,13.2194,13.3178,13.3406,13.3709,13.4698,13.4926,13.4926,13.4926,13.5455,0.0,13.4693,13.3558,13.2346,13.098,13.0752,13.098,13.1736,13.3026,13.333,13.2118,13.5002,13.6216,13.4243,13.4623,0.0,0.0,0.0,13.4625,13.3878,13.3878,0.0,0.0,0.0,12.2223,12.1616,11.9042,0.0,0.0,10.6571,10.4749,0.0,0.0,0.0,0.0,0.0,0.0,0.0,0.0,0.0,0.0,0.0,0.0,0.0,0.0,0.0,0.0,7.8524,8.3385,8.1956,8.6966,9.3314,9.9893,10.2939,10.5107,10.6783,10.8043,10.8706,10.8737,11.0746,11.1942,11.1942,11.284,11.3886,11.5008,11.4997,11.5606,11.6878,11.6878,11.6878,11.6878,11.7251,11.7476,11.7487,11.8194,11.8484,11.8503,11.8744,11.957,12.0731,12.1098,12.1878,12.2543,11.9035,11.7787,11.8012,11.8012,11.8944,12.042,12.22,12.2838,12.3012,12.3467,12.3923,12.4302,12.4302,12.4606,12.4985,12.4985,12.5896,12.6804,12.6804,12.7641,12.8855,13.0067,13.0674,13.1357,13.2571,13.3181,13.356,13.356,13.2801,13.1509,12.9306,12.9991,13.0446,12.9536,12.9763,13.0219,13.075,13.204,13.2118,13.0069,13.2877,13.394,13.1435,13.2649,13.394,13.485,13.4015,13.3712,13.4165,13.2877,13.0828,12.7869,12.2041,11.78,0.0,0.0,0.0,0.0,0.0,0.0,0.0,0.0,0.0,0.0,0.0,0.0,0.0,0.0,0.0,0.0,0.0,0.0,0.0,0.0,0.0,0.0,0.0,0.0,7.6206,8.0909,8.6518,9.3014,9.7938,10.1588,10.3398,10.3476,10.3541,10.3632,10.6633,10.8438,10.8438,11.1568,11.3352,11.3427,11.3427,11.3427,11.3513,11.3513,11.3513,11.3513,11.5008,11.5756,11.5831,11.7423,11.8183,11.8205,11.8494,11.8587,11.8698,11.8981,11.9108,11.8806,11.5571,11.4293,11.43,11.43,11.4306,11.4651,11.6613,11.7453,11.7925,11.9592,12.1186,12.2554,12.2554,12.3695,12.4985,12.4985,12.5061,12.5061,12.5061,12.5137,12.5137,12.5213,12.65,12.7714,12.7714,12.8929,12.9993,12.9993,12.7489,12.4226,12.0882,12.0351,11.9289,11.6026,11.6939,0.0,12.02,12.4677,12.8322,12.969,13.2877,13.485,13.4774,13.1815,13.1435,13.4698,13.1815,13.075,13.2419,12.7869,12.4454,12.2706,11.4586,11.0337,11.0261,0.0,0.0,0.0,0.0,0.0,0.0,0.0,0.0,0.0,0.0,0.0,0.0,0.0,0.0,0.0,0.0,0.0,0.0,0.0,0.0,0.0,0.0,0.0,0.0,7.1691,7.877,8.7492,8.9974,9.2541,9.6444,9.6739,9.673,9.6808,10.0926,10.3391,10.3391,10.5545,10.7755,10.9923,10.9998,11.1045,11.3277,11.3352,11.3352,11.3352,11.3875,11.41,11.41,11.4709,11.4933,11.5019,11.502,11.5083,11.5124,11.5397,11.5406,11.5086,11.4035,11.3682,11.3831,11.3831,11.3966,11.4224,11.4844,11.5149,11.5282,11.5887,11.6582,11.7205,11.7205,11.7719,11.8305,11.8305,11.9898,12.1644,12.1644,12.3313,12.4985,12.4985,12.544,12.582,12.582,12.6275,12.6654,12.6654,12.4833,12.2934,12.1795,12.1644,12.1644,12.1568,12.2101,12.3012,12.4755,12.6424,12.8094,12.969,13.0904,13.1587,13.1587,13.0525,13.0297,13.1511,12.9536,12.8549,12.9156,12.6503,12.3695,12.0882,11.6939,11.1096,10.3279,0.0,0.0,0.0,0.0,0.0,0.0,0.0,0.0,0.0,0.0,0.0,0.0,0.0,0.0,0.0,0.0,0.0,0.0,0.0,0.0,0.0,0.0,0.0,0.0,0.0,0.0,8.2099,8.4354,0.0,8.9564,8.9854,8.9313,8.8221,9.116,9.3997,9.6282,9.749,10.0144,10.4522,10.5269,10.6604,10.877,10.9357,10.9954,11.0552,11.1193,11.1802,11.2411,11.3042,11.3352,11.3352,11.3352,11.3352,11.3149,11.0891,10.9848,10.9571,10.7809,10.7272,10.7447,10.7447,10.7533,10.7901,10.9804,11.0819,11.1217,11.0705,11.0746,11.0754,10.9546,10.9798,11.0337,10.9728,11.2384,11.5495,11.5495,11.8456,12.1494,12.2177,12.2784,12.3389,12.3923,12.453,12.4074,12.1039,11.9139,11.7849,11.7242,11.8077,11.9215,12.0356,12.2025,12.3768,12.5514,12.6804,12.7942,12.8929,12.9538,12.9842,12.9842,12.931,12.9004,12.9004,12.7487,12.6349,12.5741,12.4072,12.1568,11.8227,11.4131,10.7757,0.0,0.0,0.0,0.0,0.0,0.0,0.0,0.0,0.0,0.0,0.0,0.0,0.0,0.0,0.0,0.0,0.0,0.0,0.0,0.0,0.0,0.0,0.0,0.0,0.0,0.0,0.0,7.7004,8.057,0.0,0.0,0.0,0.0,7.8006,7.8161,8.1072,8.7328,8.7773,9.0759,9.7236,9.9165,10.0123,10.0347,10.1976,10.3616,10.5342,10.6933,10.8555,11.0284,11.2026,11.2818,11.2818,11.2818,11.2818,11.2284,10.5547,10.2742,10.223,9.7622,9.5641,9.5416,9.5267,9.5267,9.6004,10.103,10.3932,10.5198,10.3898,10.3524,10.3071,9.9762,10.0095,0.0,0.0,10.2974,10.692,10.707,11.0786,11.4959,11.6704,11.8452,12.0124,12.172,12.3315,12.1874,11.3374,11.0489,10.8819,10.7152,0.0,11.1629,11.2008,11.6256,12.0048,12.2099,12.5134,12.7183,12.7411,12.8701,12.9614,12.9614,12.8246,12.7411,12.7411,12.5744,12.3998,12.2402,12.0503,11.7845,11.4352,10.6235,0.0,0.0,0.0,0.0,0.0,0.0,0.0,0.0,0.0,0.0,0.0,0.0,0.0,0.0,0.0,0.0,0.0,0.0,0.0,0.0,0.0,0.0,0.0,0.0,0.0,0.0,5.8058,6.3315,7.1903,7.0448,6.9691,0.0,0.0,0.0,0.0,0.0,0.0,7.717,7.8602,8.1777,8.7113,9.0087,9.2772,9.5148,9.7972,10.0283,10.1912,10.2392,10.3447,10.5002,10.5472,10.5643,10.5643,10.5643,10.5643,10.5195,9.87,9.5957,9.5733,9.3352,9.0182,8.6742,8.5463,8.5014,8.5404,8.7988,9.0808,9.3072,9.2719,9.1836,9.0477,8.8796,0.0,0.0,0.0,0.0,9.8479,10.0962,10.5296,10.9857,11.28,11.4836,11.6329,11.6709,11.618,11.3147,10.4721,10.176,10.009,9.8347,9.8802,0.0,10.7759,10.9884,11.3069,11.9744,12.1338,12.2855,12.5364,12.5971,12.6199,12.6199,12.5896,12.5668,12.5668,12.2858,12.1034,12.0579,11.6559,11.153,10.5551,0.0,0.0,0.0,0.0,0.0,0.0,0.0,0.0,0.0,0.0,0.0,0.0,0.0,0.0,0.0,0.0,0.0,0.0,0.0,0.0,0.0,0.0,0.0,0.0,0.0,0.0,0.0,5.2222,5.8125,6.4773,6.3844,6.3069,0.0,0.0,0.0,0.0,0.0,0.0,0.0,0.0,0.0,7.6773,8.0123,8.34,8.6741,8.9273,9.2028,9.5144,9.5941,9.7143,9.8697,10.0241,10.0943,10.0794,9.9378,9.709,9.4102,9.0525,8.8623,8.7561,0.0,0.0,0.0,0.0,7.4778,7.5226,7.8367,8.159,8.4066,8.2637,0.0,0.0,0.0,0.0,0.0,0.0,0.0,9.0675,9.2426,9.8255,10.4547,10.7864,10.9501,11.0808,11.2243,10.6085,9.8814,9.424,9.1347,8.9364,8.8478,8.9546,0.0,0.0,0.0,10.7759,11.4736,11.8151,12.0958,12.3619,12.453,12.4985,12.4985,12.4302,12.3543,12.2858,11.9592,11.7088,11.5647,10.9252,10.3226,0.0,0.0,0.0,0.0,0.0,0.0,0.0,0.0,0.0,0.0,0.0,0.0,0.0,0.0,0.0,0.0,0.0,0.0,0.0,0.0,0.0,0.0,0.0,0.0,0.0,0.0,0.0,0.0,0.0,5.2433,5.7426,0.0,0.0,0.0,0.0,0.0,0.0,0.0,0.0,0.0,0.0,0.0,0.0,0.0,7.2861,7.5377,7.7837,8.1337,8.5794,8.7463,8.9224,9.0925,9.4089,9.5555,9.5332,9.1615,0.0,8.1867,8.1083,0.0,0.0,0.0,0.0,0.0,0.0,0.0,0.0,0.0,0.0,0.0,0.0,0.0,0.0,0.0,0.0,0.0,0.0,0.0,0.0,0.0,0.0,9.7901,10.137,10.2595,10.3398,10.5187,9.4016,8.3439,8.299,8.0468,7.8327,0.0,0.0,0.0,0.0,0.0,0.0,10.8288,11.4812,11.9668,12.1568,12.3315,12.4302,12.4302,12.2782,12.1032,11.9348,11.5481,11.1761,10.841,10.0465,0.0,0.0,0.0,0.0,0.0,0.0,0.0,0.0,0.0,0.0,0.0,0.0,0.0,0.0,0.0,0.0,0.0,0.0,0.0,0.0,0.0,0.0,0.0,0.0,0.0,0.0,0.0,0.0,0.0,0.0,0.0,0.0,0.0,0.0,0.0,0.0,0.0,0.0,0.0,0.0,0.0,0.0,0.0,0.0,0.0,0.0,0.0,0.0,0.0,0.0,7.5561,7.7204,7.8904,8.0854,8.183,8.1458,7.5372,7.3646,7.4586,6.9334,0.0,0.0,0.0,0.0,0.0,0.0,0.0,0.0,0.0,0.0,0.0,0.0,0.0,0.0,0.0,0.0,0.0,0.0,0.0,0.0,0.0,0.0,8.5916,9.0558,9.2954,9.2403,8.5865,0.0,0.0,0.0,0.0,0.0,0.0,0.0,0.0,0.0,0.0,0.0,10.2598,10.958,11.489,11.7925,11.9822,12.0807,12.0807,11.9291,11.7441,11.5522,10.8562,10.284,0.0,0.0,0.0,0.0,0.0,0.0,0.0,0.0,0.0,0.0,0.0,0.0,0.0,0.0,0.0,0.0,0.0,0.0,0.0,0.0,0.0,0.0,0.0,0.0,0.0,0.0,0.0,0.0,0.0,0.0,0.0,0.0,0.0,0.0,0.0,0.0,0.0,0.0,0.0,0.0,0.0,0.0,0.0,0.0,0.0,0.0,0.0,0.0,0.0,0.0,0.0,0.0,0.0,0.0,0.0,0.0,0.0,0.0,6.7498,6.2968,0.0,0.0,0.0,0.0,0.0,0.0,0.0,0.0,0.0,0.0,0.0,0.0,0.0,0.0,0.0,0.0,0.0,0.0,0.0,0.0,0.0,0.0,0.0,0.0,0.0,0.0,0.0,0.0,0.0,0.0,0.0,0.0,0.0,0.0,0.0,0.0,0.0,0.0,0.0,0.0,9.7438,10.662,11.3676,11.7015,11.891,11.9494,11.8525,11.7684,11.4905,10.9444,10.3848,0.0,0.0,0.0,0.0,0.0,0.0,0.0,0.0,0.0,0.0,0.0,0.0,0.0,0.0,0.0,0.0,0.0,0.0,0.0,0.0,0.0,0.0,0.0,0.0,0.0,0.0,0.0,0.0,0.0,0.0,0.0,0.0,0.0,0.0,0.0,0.0,0.0,0.0,0.0,0.0,0.0,0.0,0.0,0.0,0.0,0.0,0.0,0.0,0.0,0.0,0.0,0.0,0.0,0.0,0.0,0.0,0.0,0.0,0.0,6.0369,5.3606,0.0,0.0,0.0,0.0,0.0,0.0,0.0,0.0,0.0,0.0,0.0,0.0,0.0,0.0,0.0,0.0,0.0,0.0,0.0,0.0,0.0,0.0,0.0,0.0,0.0,0.0,0.0,0.0,0.0,0.0,0.0,0.0,0.0,0.0,0.0,0.0,0.0,0.0,0.0,0.0,9.1878,10.3258,11.214,11.5952,11.783,11.831,11.713,11.6025,11.1841,10.3613,9.8704,0.0,0.0,0.0,0.0,0.0,0.0,0.0,0.0,0.0,0.0,0.0,0.0,0.0,0.0,0.0,0.0,0.0,0.0,0.0,0.0,0.0,0.0,0.0,0.0,0.0,0.0,0.0,0.0,0.0,0.0,0.0,0.0,0.0,0.0,0.0,0.0,0.0,0.0,0.0,0.0,0.0,0.0,0.0,0.0,0.0,0.0,0.0,0.0,0.0,0.0,0.0,0.0,0.0,0.0,0.0,0.0,0.0,0.0,0.0,0.0,0.0,0.0,0.0,0.0,0.0,0.0,0.0,0.0,0.0,0.0,0.0,0.0,0.0,0.0,0.0,0.0,0.0,0.0,0.0,0.0,0.0,0.0,0.0,0.0,0.0,0.0,0.0,0.0,0.0,0.0,0.0,0.0,0.0,0.0,0.0,0.0,0.0,0.0,0.0,0.0,0.0,8.5042,9.7169,10.7207,11.2303,11.4117,11.5547,11.6894,11.2723,10.6987,9.9859,0.0,0.0,0.0,0.0,0.0,0.0,0.0,0.0,0.0,0.0,0.0,0.0,0.0,0.0,0.0,0.0,0.0,0.0,0.0,0.0,0.0,0.0,0.0,0.0,0.0,0.0,0.0,0.0,0.0,0.0,0.0,0.0,0.0,0.0,0.0,0.0,0.0,0.0,0.0,0.0,0.0,0.0,0.0,0.0,0.0,0.0,0.0,0.0,0.0,0.0,0.0,0.0,0.0,0.0,0.0,0.0,0.0,0.0,0.0,0.0,0.0,0.0,0.0,0.0,0.0,0.0,0.0,0.0,0.0,0.0,0.0,0.0,0.0,0.0,0.0,0.0,0.0,0.0,0.0,0.0,0.0,0.0,0.0,0.0,0.0,0.0,0.0,0.0,0.0,0.0,0.0,0.0,0.0,0.0,0.0,0.0,0.0,0.0,0.0,0.0,0.0,0.0,8.3895,9.615,10.5929,11.0016,11.2749,11.3698,11.2265,10.9276,10.3286,9.3403,0.0,0.0,0.0,0.0,0.0,0.0,0.0,0.0,0.0,0.0,0.0,0.0,0.0,0.0,0.0,0.0,0.0,0.0,0.0,0.0,0.0,0.0,0.0,0.0,0.0,0.0,0.0,0.0,0.0,0.0,0.0,0.0,0.0,0.0,0.0,0.0,0.0,0.0,0.0,0.0,0.0,0.0,0.0,0.0,0.0,0.0,0.0,0.0,0.0,0.0,0.0,0.0,0.0,0.0,0.0,0.0,0.0,0.0,0.0,0.0,0.0,0.0,0.0,0.0,0.0,0.0,0.0,0.0,0.0,0.0,0.0,0.0,0.0,0.0,0.0,0.0,0.0,0.0,0.0,0.0,0.0,0.0,0.0,0.0,0.0,0.0,0.0,0.0,0.0,0.0,0.0,0.0,0.0,0.0,0.0,0.0,0.0,0.0,0.0,0.0,0.0,0.0,8.2258,9.4403,10.4162,10.8087,11.0887,11.1502,10.9095,10.5446,9.8671,8.7897,0.0,0.0,0.0,0.0,0.0,0.0,0.0,0.0,0.0,0.0,0.0,0.0,0.0,0.0,0.0,0.0,0.0,0.0,0.0,0.0,0.0,0.0,0.0,0.0,0.0,0.0,0.0,0.0,0.0,0.0,0.0,0.0,0.0,0.0,0.0,0.0,0.0,0.0,0.0,0.0,0.0,0.0,0.0,0.0,0.0,0.0,0.0,0.0,0.0,0.0,0.0,0.0,0.0,0.0,0.0,0.0,0.0,0.0,0.0,0.0,0.0,0.0,0.0,0.0,0.0,0.0,0.0,0.0,0.0,0.0,0.0,0.0,0.0,0.0,0.0,0.0,0.0,0.0,0.0,0.0,0.0,0.0,0.0,0.0,0.0,0.0,0.0,0.0,0.0,0.0,0.0,0.0,0.0,0.0,0.0,0.0,0.0,0.0,0.0,0.0,0.0,0.0,7.8704,9.0743,10.0996,10.6162,10.7954,10.8736,10.8845,10.1069,9.2658,0.0,0.0,0.0,0.0,0.0,0.0,0.0,0.0,0.0,0.0,0.0,0.0,0.0,0.0,0.0,0.0,0.0,0.0,0.0,0.0,0.0,0.0,0.0,0.0,0.0,0.0,0.0,0.0,0.0,0.0,0.0,0.0,0.0,0.0,0.0,0.0,0.0,0.0,0.0,0.0,0.0,0.0,0.0,0.0,0.0,0.0,0.0,0.0,0.0,0.0,0.0,0.0,0.0,0.0,0.0,0.0,0.0,0.0,0.0,0.0,0.0,0.0,0.0,0.0,0.0,0.0,0.0,0.0,0.0,0.0,0.0,0.0,0.0,0.0,0.0,0.0,0.0,0.0,0.0,0.0,0.0,0.0,0.0,0.0,0.0,0.0,0.0,0.0,0.0,0.0,0.0,0.0,0.0,0.0,0.0,0.0,0.0,0.0,0.0,0.0,0.0,0.0,0.0,7.8017,8.8434,9.7611,10.3791,10.6842,10.7516,10.5352,10.0596,9.3257,8.2696,0.0,0.0,0.0,0.0,0.0,0.0,0.0,0.0,0.0,0.0,0.0,0.0,0.0,0.0,0.0,0.0,0.0,0.0,0.0,0.0,0.0,0.0,0.0,0.0,0.0,0.0,0.0,0.0,0.0,0.0,0.0,0.0,0.0,0.0,0.0,0.0,0.0,0.0,0.0,0.0,0.0,0.0,0.0,0.0,0.0,0.0,0.0,0.0,0.0,0.0,0.0,0.0,0.0,0.0,0.0,0.0,0.0,0.0,0.0,0.0,0.0,0.0,0.0,0.0,0.0,0.0,0.0,0.0,0.0,0.0,0.0,0.0,0.0,0.0,0.0,0.0,0.0,0.0,0.0,0.0,0.0,0.0,0.0,0.0,0.0,0.0,0.0,0.0,0.0,0.0,0.0,0.0,0.0,0.0,0.0,0.0,0.0,0.0,0.0,0.0,0.0,0.0,0.0,8.7041,9.5781,10.1837,10.5437,10.6334,10.3632,9.923,9.1977,8.0984,0.0,0.0,0.0,0.0,0.0,0.0,0.0,0.0,0.0,0.0,0.0,0.0,0.0,0.0,0.0,0.0,0.0,0.0,0.0,0.0,0.0,0.0,0.0,0.0,0.0,0.0,0.0,0.0,0.0,0.0,0.0,0.0,0.0,0.0,0.0,0.0,0.0,0.0,0.0,0.0,0.0,0.0,0.0,0.0,0.0,0.0,0.0,0.0,0.0,0.0,0.0,0.0,0.0,0.0,0.0,0.0,0.0,0.0,0.0,0.0,0.0,0.0,0.0,0.0,0.0,0.0,0.0,0.0,0.0,0.0,0.0,0.0,0.0,0.0,0.0,0.0,0.0,0.0,0.0,0.0,0.0,0.0,0.0,0.0,0.0,0.0,0.0,0.0,0.0,0.0,0.0,0.0,0.0,0.0,0.0,0.0,0.0,0.0,0.0,0.0,0.0,0.0,0.0,8.6219,9.5183,10.0332,10.3781,10.5137,10.3557,9.7426,8.9434,7.9354,7.112,0.0,0.0,0.0,0.0,0.0,0.0,0.0,0.0,0.0,0.0,0.0,0.0,0.0,0.0,0.0,0.0,0.0,0.0,0.0,0.0,0.0,0.0,0.0,0.0,0.0,0.0,0.0,0.0,0.0,0.0,0.0,0.0,0.0,0.0,0.0,0.0,0.0,0.0,0.0,0.0,0.0,0.0,0.0,0.0,0.0,0.0,0.0,0.0,0.0,0.0,0.0,0.0,0.0,0.0,0.0,0.0,0.0,0.0,0.0,0.0,0.0,0.0,0.0,0.0,0.0,0.0,0.0,0.0,0.0,0.0,0.0,0.0,0.0,0.0,0.0,0.0,0.0,0.0,0.0,0.0,0.0,0.0,0.0,0.0,0.0,0.0,0.0,0.0,0.0,0.0,0.0,0.0,0.0,0.0,0.0,0.0,0.0,0.0,0.0,0.0,0.0,0.0,8.4208,9.265,10.0118,10.2735,10.3866,10.3482,9.8482,9.0639,7.9429,7.2235,0.0,0.0,0.0,0.0,0.0,0.0,0.0,0.0,0.0,0.0,0.0,0.0,0.0,0.0,0.0,0.0,0.0,0.0,0.0,0.0,0.0,0.0,0.0,0.0,0.0,0.0,0.0,0.0,0.0,0.0,0.0,0.0,0.0,0.0,0.0,0.0,0.0,0.0,0.0,0.0,0.0,0.0,0.0,0.0,0.0,0.0,0.0,0.0,0.0,0.0,0.0,0.0,0.0,0.0,0.0,0.0,0.0,0.0,0.0,0.0,0.0,0.0,0.0,0.0,0.0,0.0,0.0,0.0,0.0,0.0,0.0,0.0,0.0,0.0,0.0,0.0,0.0,0.0,0.0,0.0,0.0,0.0,0.0,0.0,0.0,0.0,0.0,0.0,0.0,0.0,0.0,0.0,0.0,0.0,0.0,0.0,0.0,0.0,0.0,0.0,0.0,0.0,7.56,8.5321,9.7351,10.0791,10.1987,10.1249,9.8034,9.0789,7.8457,7.074,0.0,0.0,0.0,0.0,0.0,0.0,0.0,0.0,0.0,0.0,0.0,0.0,0.0,0.0,0.0,0.0,0.0,0.0,0.0,0.0,0.0,0.0,0.0,0.0,0.0,0.0,0.0,0.0,0.0,0.0,0.0,0.0,0.0,0.0,0.0,0.0,0.0,0.0,0.0,0.0,0.0,0.0,0.0,0.0,0.0,0.0,0.0,0.0,0.0,0.0,0.0,0.0,0.0,0.0,0.0,0.0,0.0,0.0,0.0,0.0,0.0,0.0,0.0,0.0,0.0,0.0,0.0,0.0,0.0,0.0,0.0,0.0,0.0,0.0,0.0,0.0,0.0,0.0,0.0,0.0,0.0,0.0,0.0,0.0,0.0,0.0,0.0,0.0,0.0,0.0,0.0,0.0,0.0,0.0,0.0,0.0,0.0,0.0,0.0,0.0,0.0,0.0,0.0,7.7387,9.2201,9.7351,9.9445,9.8641,9.6099,8.9368,7.7178,0.0,0.0,0.0,0.0,0.0,0.0,0.0,0.0,0.0,0.0,0.0,0.0,0.0,0.0,0.0,0.0,0.0,0.0,0.0,0.0,0.0,0.0,0.0,0.0,0.0,0.0,0.0,0.0,0.0,0.0,0.0,0.0,0.0,0.0,0.0,0.0,0.0,0.0,0.0,0.0,0.0,0.0,0.0,0.0,0.0,0.0,0.0,0.0,0.0,0.0,0.0,0.0,0.0,0.0,0.0,0.0,0.0,0.0,0.0,0.0,0.0,0.0,0.0,0.0,0.0,0.0,0.0,0.0,0.0,0.0,0.0,0.0,0.0,0.0,0.0,0.0,0.0,0.0,0.0,0.0,0.0,0.0,0.0,0.0,0.0,0.0,0.0,0.0,0.0,0.0,0.0,0.0,0.0,0.0,0.0,0.0,0.0,0.0,0.0,0.0,0.0,0.0,0.0,0.0,7.6049,8.2771,9.0173,9.5715,9.8342,9.1836,8.4432,7.6879,0.0,0.0,0.0,0.0,0.0,0.0,0.0,0.0,0.0,0.0,0.0,0.0,0.0,0.0]}]]]